<?xml version="1.0" encoding="UTF-8" standalone="no" ?><gpx xmlns="http://www.topografix.com/GPX/1/1" xmlns:gpxx="http://www.garmin.com/xmlschemas/GpxExtensions/v3" xmlns:gpxtrkx="http://www.garmin.com/xmlschemas/TrackStatsExtension/v1" xmlns:wptx1="http://www.garmin.com/xmlschemas/WaypointExtension/v1" xmlns:gpxtpx="http://www.garmin.com/xmlschemas/TrackPointExtension/v1" creator="GPSMAP 65" version="1.1" xmlns:xsi="http://www.w3.org/2001/XMLSchema-instance" xsi:schemaLocation="http://www.topografix.com/GPX/1/1 http://www.topografix.com/GPX/1/1/gpx.xsd http://www.garmin.com/xmlschemas/GpxExtensions/v3 http://www8.garmin.com/xmlschemas/GpxExtensionsv3.xsd http://www.garmin.com/xmlschemas/TrackStatsExtension/v1 http://www8.garmin.com/xmlschemas/TrackStatsExtension.xsd http://www.garmin.com/xmlschemas/WaypointExtension/v1 http://www8.garmin.com/xmlschemas/WaypointExtensionv1.xsd http://www.garmin.com/xmlschemas/TrackPointExtension/v1 http://www.garmin.com/xmlschemas/TrackPointExtensionv1.xsd"><metadata><link href="http://www.garmin.com"><text>Garmin International</text></link><time>2026-04-23T23:58:39Z</time></metadata><trk><name>20260423-АВТОНОМ</name><extensions><gpxx:TrackExtension><gpxx:DisplayColor>Cyan</gpxx:DisplayColor></gpxx:TrackExtension><gpxtrkx:TrackStatsExtension><gpxtrkx:Distance>105081.000</gpxtrkx:Distance><gpxtrkx:TotalElapsedTime>93106</gpxtrkx:TotalElapsedTime><gpxtrkx:MovingTime>16742</gpxtrkx:MovingTime><gpxtrkx:StoppedTime>25333</gpxtrkx:StoppedTime><gpxtrkx:MovingSpeed>6.277</gpxtrkx:MovingSpeed><gpxtrkx:MaxSpeed>33.836</gpxtrkx:MaxSpeed><gpxtrkx:MaxElevation>215.551</gpxtrkx:MaxElevation><gpxtrkx:MinElevation>-148.208</gpxtrkx:MinElevation><gpxtrkx:Ascent>3838.000</gpxtrkx:Ascent><gpxtrkx:Descent>3764.908</gpxtrkx:Descent><gpxtrkx:AvgAscentRate>0.019</gpxtrkx:AvgAscentRate><gpxtrkx:MaxAscentRate>3.562</gpxtrkx:MaxAscentRate><gpxtrkx:AvgDescentRate>0.019</gpxtrkx:AvgDescentRate><gpxtrkx:MaxDescentRate>-7.799</gpxtrkx:MaxDescentRate></gpxtrkx:TrackStatsExtension></extensions><trkseg><trkpt lat="59.0926004201" lon="29.9885689840"><ele>75.33</ele><time>2026-04-22T22:06:53Z</time></trkpt><trkpt lat="59.0926190279" lon="29.9886641186"><ele>75.28</ele><time>2026-04-22T22:06:58Z</time></trkpt><trkpt lat="59.0926930401" lon="29.9889154918"><ele>74.72</ele><time>2026-04-22T22:07:14Z</time></trkpt><trkpt lat="59.0927326865" lon="29.9891204294"><ele>74.24</ele><time>2026-04-22T22:07:27Z</time></trkpt><trkpt lat="59.0927419905" lon="29.9893966969"><ele>73.78</ele><time>2026-04-22T22:07:41Z</time></trkpt><trkpt lat="59.0927658789" lon="29.9896069989"><ele>74.51</ele><time>2026-04-22T22:07:54Z</time></trkpt><trkpt lat="59.0927924495" lon="29.9898142833"><ele>74.63</ele><time>2026-04-22T22:08:08Z</time></trkpt><trkpt lat="59.0928496979" lon="29.9900620524"><ele>74.36</ele><time>2026-04-22T22:08:21Z</time></trkpt><trkpt lat="59.0928553976" lon="29.9901415966"><ele>74.21</ele><time>2026-04-22T22:08:24Z</time></trkpt><trkpt lat="59.0928900987" lon="29.9903735239"><ele>73.64</ele><time>2026-04-22T22:08:37Z</time></trkpt><trkpt lat="59.0929437429" lon="29.9906084687"><ele>72.97</ele><time>2026-04-22T22:08:49Z</time></trkpt><trkpt lat="59.0929851495" lon="29.9908125680"><ele>72.56</ele><time>2026-04-22T22:08:59Z</time></trkpt><trkpt lat="59.0930574853" lon="29.9909934495"><ele>72.94</ele><time>2026-04-22T22:09:13Z</time></trkpt><trkpt lat="59.0931029990" lon="29.9912477564"><ele>73.19</ele><time>2026-04-22T22:09:32Z</time></trkpt><trkpt lat="59.0931417234" lon="29.9915343337"><ele>73.32</ele><time>2026-04-22T22:09:44Z</time></trkpt><trkpt lat="59.0932010673" lon="29.9918479845"><ele>72.76</ele><time>2026-04-22T22:10:00Z</time></trkpt><trkpt lat="59.0932464972" lon="29.9920815881"><ele>73.76</ele><time>2026-04-22T22:10:11Z</time></trkpt><trkpt lat="59.0933060925" lon="29.9923830852"><ele>73.77</ele><time>2026-04-22T22:10:26Z</time></trkpt><trkpt lat="59.0933721419" lon="29.9926748592"><ele>73.58</ele><time>2026-04-22T22:10:39Z</time></trkpt><trkpt lat="59.0933831222" lon="29.9927304313"><ele>73.59</ele><time>2026-04-22T22:10:42Z</time></trkpt><trkpt lat="59.0934252832" lon="29.9930022564"><ele>73.23</ele><time>2026-04-22T22:10:55Z</time></trkpt><trkpt lat="59.0934305638" lon="29.9930199422"><ele>73.15</ele><time>2026-04-22T22:10:56Z</time></trkpt><trkpt lat="59.0934586432" lon="29.9932003208"><ele>72.88</ele><time>2026-04-22T22:11:04Z</time></trkpt><trkpt lat="59.0935361758" lon="29.9935130496"><ele>72.52</ele><time>2026-04-22T22:11:18Z</time></trkpt><trkpt lat="59.0936034825" lon="29.9937570468"><ele>72.29</ele><time>2026-04-22T22:11:32Z</time></trkpt><trkpt lat="59.0936631616" lon="29.9940351583"><ele>72.34</ele><time>2026-04-22T22:11:46Z</time></trkpt><trkpt lat="59.0936775785" lon="29.9943770561"><ele>71.39</ele><time>2026-04-22T22:12:02Z</time></trkpt><trkpt lat="59.0937129501" lon="29.9946605321"><ele>71.01</ele><time>2026-04-22T22:12:17Z</time></trkpt><trkpt lat="59.0937717911" lon="29.9948994163"><ele>70.99</ele><time>2026-04-22T22:12:30Z</time></trkpt><trkpt lat="59.0938314702" lon="29.9952813797"><ele>70.83</ele><time>2026-04-22T22:12:47Z</time></trkpt><trkpt lat="59.0938334819" lon="29.9953045975"><ele>71.05</ele><time>2026-04-22T22:12:48Z</time></trkpt><trkpt lat="59.0938638244" lon="29.9955966230"><ele>72.40</ele><time>2026-04-22T22:13:04Z</time></trkpt><trkpt lat="59.0939090867" lon="29.9959322345"><ele>73.21</ele><time>2026-04-22T22:13:17Z</time></trkpt><trkpt lat="59.0939851943" lon="29.9964045547"><ele>73.08</ele><time>2026-04-22T22:13:38Z</time></trkpt><trkpt lat="59.0940474719" lon="29.9968354683"><ele>73.20</ele><time>2026-04-22T22:13:55Z</time></trkpt><trkpt lat="59.0941060614" lon="29.9971514661"><ele>73.97</ele><time>2026-04-22T22:14:12Z</time></trkpt><trkpt lat="59.0941392537" lon="29.9971881788"><ele>74.96</ele><time>2026-04-22T22:14:33Z</time></trkpt><trkpt lat="59.0941517428" lon="29.9971973989"><ele>75.72</ele><time>2026-04-22T22:14:57Z</time></trkpt><trkpt lat="59.0941448696" lon="29.9972010870"><ele>77.01</ele><time>2026-04-22T22:15:27Z</time></trkpt><trkpt lat="59.0941393375" lon="29.9971299246"><ele>78.89</ele><time>2026-04-22T22:15:49Z</time></trkpt><trkpt lat="59.0941389184" lon="29.9971293379"><ele>79.47</ele><time>2026-04-22T22:16:12Z</time></trkpt><trkpt lat="59.0941724461" lon="29.9973265640"><ele>80.27</ele><time>2026-04-22T22:16:23Z</time></trkpt><trkpt lat="59.0943169501" lon="29.9980969448"><ele>81.44</ele><time>2026-04-22T22:16:36Z</time></trkpt><trkpt lat="59.0944721829" lon="29.9990917929"><ele>85.48</ele><time>2026-04-22T22:16:51Z</time></trkpt><trkpt lat="59.0946149267" lon="29.9999278877"><ele>84.95</ele><time>2026-04-22T22:17:04Z</time></trkpt><trkpt lat="59.0947819781" lon="30.0008674990"><ele>86.14</ele><time>2026-04-22T22:17:18Z</time></trkpt><trkpt lat="59.0948735923" lon="30.0014193635"><ele>86.50</ele><time>2026-04-22T22:17:29Z</time></trkpt><trkpt lat="59.0949932858" lon="30.0021289755"><ele>86.04</ele><time>2026-04-22T22:17:43Z</time></trkpt><trkpt lat="59.0951364487" lon="30.0030421838"><ele>86.04</ele><time>2026-04-22T22:18:01Z</time></trkpt><trkpt lat="59.0952536277" lon="30.0037031807"><ele>86.02</ele><time>2026-04-22T22:18:14Z</time></trkpt><trkpt lat="59.0953704715" lon="30.0045490824"><ele>85.65</ele><time>2026-04-22T22:18:30Z</time></trkpt><trkpt lat="59.0955052525" lon="30.0052465405"><ele>85.81</ele><time>2026-04-22T22:18:44Z</time></trkpt><trkpt lat="59.0956132952" lon="30.0058800448"><ele>85.95</ele><time>2026-04-22T22:18:56Z</time></trkpt><trkpt lat="59.0956215933" lon="30.0060393848"><ele>84.16</ele><time>2026-04-22T22:19:37Z</time></trkpt><trkpt lat="59.0957537759" lon="30.0067076739"><ele>84.83</ele><time>2026-04-22T22:19:51Z</time></trkpt><trkpt lat="59.0959025547" lon="30.0075265858"><ele>85.23</ele><time>2026-04-22T22:20:05Z</time></trkpt><trkpt lat="59.0960604697" lon="30.0085285585"><ele>85.14</ele><time>2026-04-22T22:20:22Z</time></trkpt><trkpt lat="59.0961852763" lon="30.0091287866"><ele>84.55</ele><time>2026-04-22T22:20:32Z</time></trkpt><trkpt lat="59.0964075644" lon="30.0101415720"><ele>82.89</ele><time>2026-04-22T22:20:50Z</time></trkpt><trkpt lat="59.0965598635" lon="30.0110560376"><ele>80.93</ele><time>2026-04-22T22:21:07Z</time></trkpt><trkpt lat="59.0967446845" lon="30.0122246426"><ele>78.12</ele><time>2026-04-22T22:21:26Z</time></trkpt><trkpt lat="59.0969010908" lon="30.0130587257"><ele>76.08</ele><time>2026-04-22T22:21:39Z</time></trkpt><trkpt lat="59.0969697386" lon="30.0133864582"><ele>76.01</ele><time>2026-04-22T22:21:49Z</time></trkpt><trkpt lat="59.0969708283" lon="30.0133578759"><ele>75.16</ele><time>2026-04-22T22:22:17Z</time></trkpt><trkpt lat="59.0969746839" lon="30.0133204926"><ele>75.02</ele><time>2026-04-22T22:22:34Z</time></trkpt><trkpt lat="59.0969592612" lon="30.0133795850"><ele>74.85</ele><time>2026-04-22T22:23:08Z</time></trkpt><trkpt lat="59.0969691519" lon="30.0133859552"><ele>74.13</ele><time>2026-04-22T22:23:32Z</time></trkpt><trkpt lat="59.0969892684" lon="30.0133963488"><ele>73.82</ele><time>2026-04-22T22:24:11Z</time></trkpt><trkpt lat="59.0969982371" lon="30.0133804232"><ele>73.67</ele><time>2026-04-22T22:24:38Z</time></trkpt><trkpt lat="59.0970104747" lon="30.0134639908"><ele>74.20</ele><time>2026-04-22T22:24:56Z</time></trkpt><trkpt lat="59.0970369615" lon="30.0136283599"><ele>73.56</ele><time>2026-04-22T22:25:05Z</time></trkpt><trkpt lat="59.0970649570" lon="30.0138793979"><ele>73.18</ele><time>2026-04-22T22:25:18Z</time></trkpt><trkpt lat="59.0971190203" lon="30.0139539968"><ele>73.46</ele><time>2026-04-22T22:25:32Z</time></trkpt><trkpt lat="59.0971400589" lon="30.0141600240"><ele>73.02</ele><time>2026-04-22T22:25:48Z</time></trkpt><trkpt lat="59.0971361194" lon="30.0142930448"><ele>71.57</ele><time>2026-04-22T22:26:00Z</time></trkpt><trkpt lat="59.0971676353" lon="30.0144582521"><ele>71.45</ele><time>2026-04-22T22:26:15Z</time></trkpt><trkpt lat="59.0972298291" lon="30.0146613456"><ele>70.94</ele><time>2026-04-22T22:26:27Z</time></trkpt><trkpt lat="59.0972504485" lon="30.0148358569"><ele>70.41</ele><time>2026-04-22T22:26:47Z</time></trkpt><trkpt lat="59.0973078646" lon="30.0150261261"><ele>70.05</ele><time>2026-04-22T22:27:00Z</time></trkpt><trkpt lat="59.0973197669" lon="30.0151010603"><ele>69.25</ele><time>2026-04-22T22:27:16Z</time></trkpt><trkpt lat="59.0973179229" lon="30.0152462348"><ele>67.25</ele><time>2026-04-22T22:27:29Z</time></trkpt><trkpt lat="59.0973865706" lon="30.0153881405"><ele>68.60</ele><time>2026-04-22T22:27:42Z</time></trkpt><trkpt lat="59.0973882470" lon="30.0155766495"><ele>69.99</ele><time>2026-04-22T22:27:56Z</time></trkpt><trkpt lat="59.0973910969" lon="30.0156164635"><ele>69.56</ele><time>2026-04-22T22:27:58Z</time></trkpt><trkpt lat="59.0974384546" lon="30.0157404318"><ele>69.85</ele><time>2026-04-22T22:28:14Z</time></trkpt><trkpt lat="59.0974053461" lon="30.0156754721"><ele>70.87</ele><time>2026-04-22T22:28:33Z</time></trkpt><trkpt lat="59.0973541327" lon="30.0155410264"><ele>72.09</ele><time>2026-04-22T22:28:45Z</time></trkpt><trkpt lat="59.0973231196" lon="30.0153113622"><ele>74.16</ele><time>2026-04-22T22:28:57Z</time></trkpt><trkpt lat="59.0973202698" lon="30.0152200833"><ele>74.39</ele><time>2026-04-22T22:29:01Z</time></trkpt><trkpt lat="59.0973026678" lon="30.0149793550"><ele>74.55</ele><time>2026-04-22T22:29:15Z</time></trkpt><trkpt lat="59.0972472634" lon="30.0147919357"><ele>74.73</ele><time>2026-04-22T22:29:25Z</time></trkpt><trkpt lat="59.0972090419" lon="30.0145233795"><ele>74.00</ele><time>2026-04-22T22:29:40Z</time></trkpt><trkpt lat="59.0971335210" lon="30.0142684858"><ele>75.04</ele><time>2026-04-22T22:29:52Z</time></trkpt><trkpt lat="59.0970926173" lon="30.0140683260"><ele>74.52</ele><time>2026-04-22T22:30:05Z</time></trkpt><trkpt lat="59.0970862471" lon="30.0138742849"><ele>75.46</ele><time>2026-04-22T22:30:18Z</time></trkpt><trkpt lat="59.0970388893" lon="30.0136495661"><ele>74.60</ele><time>2026-04-22T22:30:30Z</time></trkpt><trkpt lat="59.0970479418" lon="30.0136056449"><ele>75.37</ele><time>2026-04-22T22:30:44Z</time></trkpt><trkpt lat="59.0970031824" lon="30.0133686885"><ele>75.26</ele><time>2026-04-22T22:30:59Z</time></trkpt><trkpt lat="59.0970033500" lon="30.0131984521"><ele>75.23</ele><time>2026-04-22T22:31:17Z</time></trkpt><trkpt lat="59.0969895199" lon="30.0132206641"><ele>73.48</ele><time>2026-04-22T22:31:50Z</time></trkpt><trkpt lat="59.0970357880" lon="30.0132058281"><ele>73.35</ele><time>2026-04-22T22:32:24Z</time></trkpt><trkpt lat="59.0971704852" lon="30.0132350810"><ele>72.92</ele><time>2026-04-22T22:32:45Z</time></trkpt><trkpt lat="59.0971810464" lon="30.0131988712"><ele>75.40</ele><time>2026-04-22T22:33:19Z</time></trkpt><trkpt lat="59.0971847344" lon="30.0132168923"><ele>75.15</ele><time>2026-04-22T22:33:54Z</time></trkpt><trkpt lat="59.0972354449" lon="30.0132399425"><ele>74.57</ele><time>2026-04-22T22:34:12Z</time></trkpt><trkpt lat="59.0973013267" lon="30.0131789222"><ele>74.72</ele><time>2026-04-22T22:34:40Z</time></trkpt><trkpt lat="59.0973685496" lon="30.0131625775"><ele>74.71</ele><time>2026-04-22T22:34:56Z</time></trkpt><trkpt lat="59.0974313300" lon="30.0130857993"><ele>76.19</ele><time>2026-04-22T22:35:19Z</time></trkpt><trkpt lat="59.0974725690" lon="30.0130745675"><ele>76.07</ele><time>2026-04-22T22:35:42Z</time></trkpt><trkpt lat="59.0975211840" lon="30.0132098515"><ele>76.08</ele><time>2026-04-22T22:36:05Z</time></trkpt><trkpt lat="59.0975326672" lon="30.0134598836"><ele>75.97</ele><time>2026-04-22T22:36:30Z</time></trkpt><trkpt lat="59.0974838845" lon="30.0136495661"><ele>75.03</ele><time>2026-04-22T22:36:46Z</time></trkpt><trkpt lat="59.0974794421" lon="30.0137968361"><ele>72.86</ele><time>2026-04-22T22:37:03Z</time></trkpt><trkpt lat="59.0974514466" lon="30.0139283482"><ele>72.13</ele><time>2026-04-22T22:37:20Z</time></trkpt><trkpt lat="59.0974203497" lon="30.0139408372"><ele>73.59</ele><time>2026-04-22T22:37:39Z</time></trkpt><trkpt lat="59.0973325912" lon="30.0140255783"><ele>73.47</ele><time>2026-04-22T22:37:55Z</time></trkpt><trkpt lat="59.0973269753" lon="30.0140746962"><ele>73.48</ele><time>2026-04-22T22:38:18Z</time></trkpt><trkpt lat="59.0973565634" lon="30.0141256582"><ele>72.18</ele><time>2026-04-22T22:38:50Z</time></trkpt><trkpt lat="59.0973582398" lon="30.0141202938"><ele>76.97</ele><time>2026-04-22T22:39:22Z</time></trkpt><trkpt lat="59.0973500255" lon="30.0140691642"><ele>77.39</ele><time>2026-04-22T22:39:43Z</time></trkpt><trkpt lat="59.0973190963" lon="30.0140846707"><ele>76.93</ele><time>2026-04-22T22:40:13Z</time></trkpt><trkpt lat="59.0973134805" lon="30.0140502211"><ele>77.91</ele><time>2026-04-22T22:40:47Z</time></trkpt><trkpt lat="59.0972836409" lon="30.0140924659"><ele>79.45</ele><time>2026-04-22T22:41:15Z</time></trkpt><trkpt lat="59.0972919390" lon="30.0140740257"><ele>79.18</ele><time>2026-04-22T22:41:47Z</time></trkpt><trkpt lat="59.0972999856" lon="30.0140968245"><ele>76.96</ele><time>2026-04-22T22:42:39Z</time></trkpt><trkpt lat="59.0972891729" lon="30.0141172763"><ele>76.64</ele><time>2026-04-22T22:43:15Z</time></trkpt><trkpt lat="59.0972903464" lon="30.0140829943"><ele>74.64</ele><time>2026-04-22T22:43:30Z</time></trkpt><trkpt lat="59.0972951241" lon="30.0141439307"><ele>75.51</ele><time>2026-04-22T22:44:09Z</time></trkpt><trkpt lat="59.0973204374" lon="30.0140313618"><ele>75.79</ele><time>2026-04-22T22:44:36Z</time></trkpt><trkpt lat="59.0973172523" lon="30.0140548311"><ele>76.12</ele><time>2026-04-22T22:45:19Z</time></trkpt><trkpt lat="59.0972992312" lon="30.0140675716"><ele>77.05</ele><time>2026-04-22T22:45:39Z</time></trkpt><trkpt lat="59.0973670408" lon="30.0140108261"><ele>77.17</ele><time>2026-04-22T22:45:57Z</time></trkpt><trkpt lat="59.0974073578" lon="30.0139846746"><ele>75.56</ele><time>2026-04-22T22:46:12Z</time></trkpt><trkpt lat="59.0974740777" lon="30.0139033701"><ele>75.81</ele><time>2026-04-22T22:46:25Z</time></trkpt><trkpt lat="59.0974516980" lon="30.0137983449"><ele>75.20</ele><time>2026-04-22T22:46:36Z</time></trkpt><trkpt lat="59.0975393727" lon="30.0138001889"><ele>75.14</ele><time>2026-04-22T22:46:47Z</time></trkpt><trkpt lat="59.0975900833" lon="30.0138562638"><ele>76.85</ele><time>2026-04-22T22:46:58Z</time></trkpt><trkpt lat="59.0976659395" lon="30.0138815772"><ele>78.17</ele><time>2026-04-22T22:47:14Z</time></trkpt><trkpt lat="59.0976849664" lon="30.0139086507"><ele>77.46</ele><time>2026-04-22T22:47:31Z</time></trkpt><trkpt lat="59.0977503452" lon="30.0139426813"><ele>74.61</ele><time>2026-04-22T22:47:44Z</time></trkpt><trkpt lat="59.0977654327" lon="30.0139354728"><ele>75.41</ele><time>2026-04-22T22:47:47Z</time></trkpt><trkpt lat="59.0978269558" lon="30.0139490515"><ele>78.17</ele><time>2026-04-22T22:48:01Z</time></trkpt><trkpt lat="59.0978813544" lon="30.0139970798"><ele>77.71</ele><time>2026-04-22T22:48:17Z</time></trkpt><trkpt lat="59.0979383513" lon="30.0140323676"><ele>78.06</ele><time>2026-04-22T22:48:31Z</time></trkpt><trkpt lat="59.0979080927" lon="30.0140783843"><ele>76.67</ele><time>2026-04-22T22:48:48Z</time></trkpt><trkpt lat="59.0979437996" lon="30.0141636282"><ele>75.61</ele><time>2026-04-22T22:49:04Z</time></trkpt><trkpt lat="59.0979433805" lon="30.0141652208"><ele>74.62</ele><time>2026-04-22T22:49:23Z</time></trkpt><trkpt lat="59.0979573783" lon="30.0142697431"><ele>73.91</ele><time>2026-04-22T22:49:40Z</time></trkpt><trkpt lat="59.0979470685" lon="30.0142670609"><ele>74.29</ele><time>2026-04-22T22:50:07Z</time></trkpt><trkpt lat="59.0979383513" lon="30.0142616965"><ele>73.50</ele><time>2026-04-22T22:50:31Z</time></trkpt><trkpt lat="59.0978987888" lon="30.0142241456"><ele>76.79</ele><time>2026-04-22T22:50:58Z</time></trkpt><trkpt lat="59.0978517663" lon="30.0142353773"><ele>76.39</ele><time>2026-04-22T22:51:08Z</time></trkpt><trkpt lat="59.0977908298" lon="30.0141896959"><ele>77.01</ele><time>2026-04-22T22:51:20Z</time></trkpt><trkpt lat="59.0978122875" lon="30.0141071342"><ele>76.71</ele><time>2026-04-22T22:51:39Z</time></trkpt><trkpt lat="59.0978161432" lon="30.0140251592"><ele>76.63</ele><time>2026-04-22T22:51:54Z</time></trkpt><trkpt lat="59.0978265367" lon="30.0139323715"><ele>76.64</ele><time>2026-04-22T22:52:10Z</time></trkpt><trkpt lat="59.0978495870" lon="30.0138705969"><ele>76.35</ele><time>2026-04-22T22:52:31Z</time></trkpt><trkpt lat="59.0978719667" lon="30.0137316249"><ele>76.90</ele><time>2026-04-22T22:52:45Z</time></trkpt><trkpt lat="59.0979074221" lon="30.0136557687"><ele>74.38</ele><time>2026-04-22T22:52:57Z</time></trkpt><trkpt lat="59.0979338251" lon="30.0136024598"><ele>74.94</ele><time>2026-04-22T22:53:12Z</time></trkpt><trkpt lat="59.0979779977" lon="30.0135873724"><ele>75.16</ele><time>2026-04-22T22:53:39Z</time></trkpt><trkpt lat="59.0980458912" lon="30.0135868695"><ele>73.61</ele><time>2026-04-22T22:54:00Z</time></trkpt><trkpt lat="59.0980618168" lon="30.0135080796"><ele>73.57</ele><time>2026-04-22T22:54:15Z</time></trkpt><trkpt lat="59.0980495792" lon="30.0134583749"><ele>71.64</ele><time>2026-04-22T22:54:43Z</time></trkpt><trkpt lat="59.0980806760" lon="30.0135177188"><ele>72.78</ele><time>2026-04-22T22:55:07Z</time></trkpt><trkpt lat="59.0980658401" lon="30.0134099275"><ele>74.99</ele><time>2026-04-22T22:55:30Z</time></trkpt><trkpt lat="59.0980889741" lon="30.0134552736"><ele>73.34</ele><time>2026-04-22T22:56:01Z</time></trkpt><trkpt lat="59.0980873816" lon="30.0134329777"><ele>73.19</ele><time>2026-04-22T22:56:26Z</time></trkpt><trkpt lat="59.0980755631" lon="30.0134256855"><ele>76.08</ele><time>2026-04-22T22:57:15Z</time></trkpt><trkpt lat="59.0980579611" lon="30.0134467240"><ele>74.00</ele><time>2026-04-22T22:58:03Z</time></trkpt><trkpt lat="59.0980469808" lon="30.0134919863"><ele>73.90</ele><time>2026-04-22T22:58:14Z</time></trkpt><trkpt lat="59.0980547760" lon="30.0134874601"><ele>76.32</ele><time>2026-04-22T22:58:33Z</time></trkpt><trkpt lat="59.0980740543" lon="30.0134592969"><ele>76.41</ele><time>2026-04-22T22:58:57Z</time></trkpt><trkpt lat="59.0981247649" lon="30.0134189799"><ele>76.10</ele><time>2026-04-22T22:59:15Z</time></trkpt><trkpt lat="59.0981675964" lon="30.0134616438"><ele>75.85</ele><time>2026-04-22T22:59:27Z</time></trkpt><trkpt lat="59.0981921554" lon="30.0134962611"><ele>74.56</ele><time>2026-04-22T22:59:44Z</time></trkpt><trkpt lat="59.0982334781" lon="30.0135091692"><ele>74.38</ele><time>2026-04-22T23:00:01Z</time></trkpt><trkpt lat="59.0982342325" lon="30.0134970993"><ele>74.41</ele><time>2026-04-22T23:00:04Z</time></trkpt><trkpt lat="59.0982840210" lon="30.0134445447"><ele>76.19</ele><time>2026-04-22T23:00:17Z</time></trkpt><trkpt lat="59.0982934926" lon="30.0134068262"><ele>74.54</ele><time>2026-04-22T23:00:37Z</time></trkpt><trkpt lat="59.0983677562" lon="30.0133660901"><ele>73.81</ele><time>2026-04-22T23:00:55Z</time></trkpt><trkpt lat="59.0983796585" lon="30.0133664254"><ele>73.08</ele><time>2026-04-22T23:01:10Z</time></trkpt><trkpt lat="59.0983450413" lon="30.0133023877"><ele>72.05</ele><time>2026-04-22T23:01:29Z</time></trkpt><trkpt lat="59.0983366594" lon="30.0132019725"><ele>71.36</ele><time>2026-04-22T23:01:45Z</time></trkpt><trkpt lat="59.0982910618" lon="30.0131041557"><ele>71.58</ele><time>2026-04-22T23:01:59Z</time></trkpt><trkpt lat="59.0982828476" lon="30.0130746514"><ele>70.93</ele><time>2026-04-22T23:02:10Z</time></trkpt><trkpt lat="59.0982825961" lon="30.0129354279"><ele>69.43</ele><time>2026-04-22T23:02:23Z</time></trkpt><trkpt lat="59.0983306244" lon="30.0129064266"><ele>70.03</ele><time>2026-04-22T23:02:37Z</time></trkpt><trkpt lat="59.0983725339" lon="30.0128753297"><ele>68.50</ele><time>2026-04-22T23:02:50Z</time></trkpt><trkpt lat="59.0984424390" lon="30.0128766708"><ele>70.61</ele><time>2026-04-22T23:03:03Z</time></trkpt><trkpt lat="59.0985014476" lon="30.0129204243"><ele>71.37</ele><time>2026-04-22T23:03:16Z</time></trkpt><trkpt lat="59.0985683352" lon="30.0130073447"><ele>70.41</ele><time>2026-04-22T23:03:32Z</time></trkpt><trkpt lat="59.0986043774" lon="30.0131110288"><ele>72.24</ele><time>2026-04-22T23:03:44Z</time></trkpt><trkpt lat="59.0986399166" lon="30.0130607374"><ele>74.54</ele><time>2026-04-22T23:03:59Z</time></trkpt><trkpt lat="59.0986467898" lon="30.0129731465"><ele>74.64</ele><time>2026-04-22T23:04:13Z</time></trkpt><trkpt lat="59.0986526571" lon="30.0128737371"><ele>76.71</ele><time>2026-04-22T23:04:28Z</time></trkpt><trkpt lat="59.0986104961" lon="30.0127609167"><ele>76.62</ele><time>2026-04-22T23:04:41Z</time></trkpt><trkpt lat="59.0985922236" lon="30.0126742478"><ele>74.19</ele><time>2026-04-22T23:04:55Z</time></trkpt><trkpt lat="59.0986024495" lon="30.0126374513"><ele>71.40</ele><time>2026-04-22T23:05:20Z</time></trkpt><trkpt lat="59.0986043774" lon="30.0125396345"><ele>71.16</ele><time>2026-04-22T23:05:38Z</time></trkpt><trkpt lat="59.0985834226" lon="30.0125318393"><ele>71.84</ele><time>2026-04-22T23:05:57Z</time></trkpt><trkpt lat="59.0985825844" lon="30.0125418976"><ele>71.16</ele><time>2026-04-22T23:06:01Z</time></trkpt><trkpt lat="59.0985638928" lon="30.0125938654"><ele>70.34</ele><time>2026-04-22T23:06:14Z</time></trkpt><trkpt lat="59.0985088237" lon="30.0125593320"><ele>72.14</ele><time>2026-04-22T23:06:28Z</time></trkpt><trkpt lat="59.0985232405" lon="30.0125162490"><ele>71.81</ele><time>2026-04-22T23:06:42Z</time></trkpt><trkpt lat="59.0985311195" lon="30.0125400536"><ele>72.97</ele><time>2026-04-22T23:07:02Z</time></trkpt><trkpt lat="59.0985599533" lon="30.0124770217"><ele>73.97</ele><time>2026-04-22T23:07:21Z</time></trkpt><trkpt lat="59.0986226499" lon="30.0124877505"><ele>73.50</ele><time>2026-04-22T23:07:35Z</time></trkpt><trkpt lat="59.0986893699" lon="30.0124706514"><ele>74.73</ele><time>2026-04-22T23:07:47Z</time></trkpt><trkpt lat="59.0987651423" lon="30.0123957172"><ele>74.89</ele><time>2026-04-22T23:07:59Z</time></trkpt><trkpt lat="59.0988239832" lon="30.0124704000"><ele>75.13</ele><time>2026-04-22T23:08:11Z</time></trkpt><trkpt lat="59.0987960715" lon="30.0126777682"><ele>74.96</ele><time>2026-04-22T23:08:29Z</time></trkpt><trkpt lat="59.0987794753" lon="30.0126951188"><ele>76.00</ele><time>2026-04-22T23:08:45Z</time></trkpt><trkpt lat="59.0988273360" lon="30.0126914307"><ele>76.64</ele><time>2026-04-22T23:09:09Z</time></trkpt><trkpt lat="59.0988386516" lon="30.0127505232"><ele>77.00</ele><time>2026-04-22T23:09:35Z</time></trkpt><trkpt lat="59.0988591872" lon="30.0127175823"><ele>76.28</ele><time>2026-04-22T23:09:54Z</time></trkpt><trkpt lat="59.0988526493" lon="30.0127465837"><ele>74.64</ele><time>2026-04-22T23:10:19Z</time></trkpt><trkpt lat="59.0988240670" lon="30.0127070211"><ele>73.61</ele><time>2026-04-22T23:10:52Z</time></trkpt><trkpt lat="59.0988229774" lon="30.0126840547"><ele>76.61</ele><time>2026-04-22T23:11:33Z</time></trkpt><trkpt lat="59.0988418367" lon="30.0126819592"><ele>74.90</ele><time>2026-04-22T23:12:20Z</time></trkpt><trkpt lat="59.0988715924" lon="30.0126561429"><ele>70.80</ele><time>2026-04-22T23:13:11Z</time></trkpt><trkpt lat="59.0988268331" lon="30.0127065182"><ele>68.94</ele><time>2026-04-22T23:13:43Z</time></trkpt><trkpt lat="59.0988904517" lon="30.0127088651"><ele>71.20</ele><time>2026-04-22T23:14:01Z</time></trkpt><trkpt lat="59.0989518911" lon="30.0127550494"><ele>70.54</ele><time>2026-04-22T23:14:16Z</time></trkpt><trkpt lat="59.0990095586" lon="30.0128562190"><ele>70.66</ele><time>2026-04-22T23:14:30Z</time></trkpt><trkpt lat="59.0990823973" lon="30.0128623378"><ele>70.66</ele><time>2026-04-22T23:14:44Z</time></trkpt><trkpt lat="59.0991313476" lon="30.0128284749"><ele>70.68</ele><time>2026-04-22T23:14:58Z</time></trkpt><trkpt lat="59.0991987381" lon="30.0129506830"><ele>71.11</ele><time>2026-04-22T23:15:14Z</time></trkpt><trkpt lat="59.0992453415" lon="30.0129780918"><ele>72.72</ele><time>2026-04-22T23:15:25Z</time></trkpt><trkpt lat="59.0993319266" lon="30.0130789261"><ele>72.53</ele><time>2026-04-22T23:15:49Z</time></trkpt><trkpt lat="59.0993896779" lon="30.0131765753"><ele>74.56</ele><time>2026-04-22T23:16:02Z</time></trkpt><trkpt lat="59.0994239599" lon="30.0131523516"><ele>73.03</ele><time>2026-04-22T23:16:16Z</time></trkpt><trkpt lat="59.0994813759" lon="30.0132006314"><ele>75.04</ele><time>2026-04-22T23:16:33Z</time></trkpt><trkpt lat="59.0995683800" lon="30.0132099353"><ele>73.53</ele><time>2026-04-22T23:16:48Z</time></trkpt><trkpt lat="59.0996337589" lon="30.0131893996"><ele>72.69</ele><time>2026-04-22T23:17:02Z</time></trkpt><trkpt lat="59.0996736567" lon="30.0130643416"><ele>72.01</ele><time>2026-04-22T23:17:17Z</time></trkpt><trkpt lat="59.0996563900" lon="30.0129521918"><ele>71.19</ele><time>2026-04-22T23:17:29Z</time></trkpt><trkpt lat="59.0996306576" lon="30.0128938537"><ele>72.98</ele><time>2026-04-22T23:17:44Z</time></trkpt><trkpt lat="59.0995850600" lon="30.0128175784"><ele>73.39</ele><time>2026-04-22T23:17:59Z</time></trkpt><trkpt lat="59.0995567292" lon="30.0128694624"><ele>73.25</ele><time>2026-04-22T23:18:16Z</time></trkpt><trkpt lat="59.0995499399" lon="30.0128455739"><ele>70.86</ele><time>2026-04-22T23:18:39Z</time></trkpt><trkpt lat="59.0995732415" lon="30.0128360186"><ele>70.10</ele><time>2026-04-22T23:19:15Z</time></trkpt><trkpt lat="59.0995708946" lon="30.0127896667"><ele>67.43</ele><time>2026-04-22T23:19:42Z</time></trkpt><trkpt lat="59.0995587409" lon="30.0127733219"><ele>69.07</ele><time>2026-04-22T23:20:29Z</time></trkpt><trkpt lat="59.0995788574" lon="30.0128067657"><ele>68.48</ele><time>2026-04-22T23:21:01Z</time></trkpt><trkpt lat="59.0995763429" lon="30.0127983838"><ele>68.62</ele><time>2026-04-22T23:21:07Z</time></trkpt><trkpt lat="59.0994327608" lon="30.0130007230"><ele>61.03</ele><time>2026-04-22T23:24:22Z</time></trkpt><trkpt lat="59.0995161608" lon="30.0128718931"><ele>69.41</ele><time>2026-04-22T23:24:39Z</time></trkpt><trkpt lat="59.0995437372" lon="30.0127934385"><ele>70.99</ele><time>2026-04-22T23:24:54Z</time></trkpt><trkpt lat="59.0995552205" lon="30.0127386209"><ele>69.96</ele><time>2026-04-22T23:25:01Z</time></trkpt><trkpt lat="59.0996024944" lon="30.0126849767"><ele>68.62</ele><time>2026-04-22T23:25:14Z</time></trkpt><trkpt lat="59.0997095313" lon="30.0126725715"><ele>69.86</ele><time>2026-04-22T23:25:30Z</time></trkpt><trkpt lat="59.0997863933" lon="30.0126126409"><ele>63.64</ele><time>2026-04-22T23:25:48Z</time></trkpt><trkpt lat="59.0998645965" lon="30.0125150755"><ele>66.94</ele><time>2026-04-22T23:26:04Z</time></trkpt><trkpt lat="59.0999055840" lon="30.0125848968"><ele>67.02</ele><time>2026-04-22T23:26:17Z</time></trkpt><trkpt lat="59.0999562945" lon="30.0125999842"><ele>67.12</ele><time>2026-04-22T23:26:31Z</time></trkpt><trkpt lat="59.1000113636" lon="30.0124962162"><ele>66.85</ele><time>2026-04-22T23:26:46Z</time></trkpt><trkpt lat="59.1000380181" lon="30.0124539714"><ele>67.43</ele><time>2026-04-22T23:26:59Z</time></trkpt><trkpt lat="59.1000982840" lon="30.0124085415"><ele>67.87</ele><time>2026-04-22T23:27:17Z</time></trkpt><trkpt lat="59.1001374274" lon="30.0124597549"><ele>67.27</ele><time>2026-04-22T23:27:33Z</time></trkpt><trkpt lat="59.1001850367" lon="30.0124953780"><ele>65.31</ele><time>2026-04-22T23:27:53Z</time></trkpt><trkpt lat="59.1002585460" lon="30.0124865770"><ele>67.40</ele><time>2026-04-22T23:28:08Z</time></trkpt><trkpt lat="59.1003005393" lon="30.0125743356"><ele>68.86</ele><time>2026-04-22T23:28:25Z</time></trkpt><trkpt lat="59.1003084183" lon="30.0125784427"><ele>68.93</ele><time>2026-04-22T23:28:42Z</time></trkpt><trkpt lat="59.1003651638" lon="30.0125903450"><ele>69.15</ele><time>2026-04-22T23:29:07Z</time></trkpt><trkpt lat="59.1004152875" lon="30.0125947874"><ele>67.12</ele><time>2026-04-22T23:29:23Z</time></trkpt><trkpt lat="59.1004402656" lon="30.0125896744"><ele>68.09</ele><time>2026-04-22T23:29:48Z</time></trkpt><trkpt lat="59.1004297882" lon="30.0125887524"><ele>68.66</ele><time>2026-04-22T23:30:12Z</time></trkpt><trkpt lat="59.1004141979" lon="30.0125797838"><ele>69.63</ele><time>2026-04-22T23:30:36Z</time></trkpt><trkpt lat="59.1004143655" lon="30.0125845615"><ele>71.00</ele><time>2026-04-22T23:31:07Z</time></trkpt><trkpt lat="59.1004145332" lon="30.0125873275"><ele>71.30</ele><time>2026-04-22T23:31:33Z</time></trkpt><trkpt lat="59.1004240885" lon="30.0125847291"><ele>70.60</ele><time>2026-04-22T23:32:03Z</time></trkpt><trkpt lat="59.1004342306" lon="30.0125820469"><ele>70.50</ele><time>2026-04-22T23:32:31Z</time></trkpt><trkpt lat="59.1004221607" lon="30.0126099586"><ele>69.43</ele><time>2026-04-22T23:32:59Z</time></trkpt><trkpt lat="59.1004200652" lon="30.0125591643"><ele>70.08</ele><time>2026-04-22T23:33:34Z</time></trkpt><trkpt lat="59.1004332248" lon="30.0125781912"><ele>71.16</ele><time>2026-04-22T23:34:03Z</time></trkpt><trkpt lat="59.1004377510" lon="30.0125713181"><ele>70.29</ele><time>2026-04-22T23:34:26Z</time></trkpt><trkpt lat="59.1004070733" lon="30.0125620980"><ele>70.77</ele><time>2026-04-22T23:34:52Z</time></trkpt><trkpt lat="59.1004140303" lon="30.0127054285"><ele>70.48</ele><time>2026-04-22T23:35:13Z</time></trkpt><trkpt lat="59.1004976816" lon="30.0126689672"><ele>69.62</ele><time>2026-04-22T23:35:27Z</time></trkpt><trkpt lat="59.1005661618" lon="30.0126794446"><ele>70.47</ele><time>2026-04-22T23:35:44Z</time></trkpt><trkpt lat="59.1005757172" lon="30.0127420574"><ele>70.58</ele><time>2026-04-22T23:35:59Z</time></trkpt><trkpt lat="59.1005554330" lon="30.0128041673"><ele>71.65</ele><time>2026-04-22T23:36:13Z</time></trkpt><trkpt lat="59.1005715262" lon="30.0128225237"><ele>69.31</ele><time>2026-04-22T23:36:28Z</time></trkpt><trkpt lat="59.1005744599" lon="30.0128711388"><ele>70.14</ele><time>2026-04-22T23:36:44Z</time></trkpt><trkpt lat="59.1005989350" lon="30.0129335839"><ele>70.68</ele><time>2026-04-22T23:37:03Z</time></trkpt><trkpt lat="59.1006498970" lon="30.0129821990"><ele>72.22</ele><time>2026-04-22T23:37:19Z</time></trkpt><trkpt lat="59.1006957460" lon="30.0130237732"><ele>72.11</ele><time>2026-04-22T23:37:35Z</time></trkpt><trkpt lat="59.1006872803" lon="30.0130484998"><ele>72.93</ele><time>2026-04-22T23:37:52Z</time></trkpt><trkpt lat="59.1006713547" lon="30.0130295567"><ele>73.81</ele><time>2026-04-22T23:38:35Z</time></trkpt><trkpt lat="59.1006705165" lon="30.0129301473"><ele>74.29</ele><time>2026-04-22T23:39:01Z</time></trkpt><trkpt lat="59.1006696783" lon="30.0130047463"><ele>74.40</ele><time>2026-04-22T23:39:37Z</time></trkpt><trkpt lat="59.1006544232" lon="30.0130790938"><ele>75.87</ele><time>2026-04-22T23:40:20Z</time></trkpt><trkpt lat="59.1006744560" lon="30.0131016411"><ele>78.50</ele><time>2026-04-22T23:40:37Z</time></trkpt><trkpt lat="59.1006420180" lon="30.0130863860"><ele>76.36</ele><time>2026-04-22T23:41:07Z</time></trkpt><trkpt lat="59.1006609611" lon="30.0131248590"><ele>72.37</ele><time>2026-04-22T23:41:57Z</time></trkpt><trkpt lat="59.1006781440" lon="30.0131256972"><ele>73.58</ele><time>2026-04-22T23:42:27Z</time></trkpt><trkpt lat="59.1006972548" lon="30.0130205881"><ele>74.77</ele><time>2026-04-22T23:42:54Z</time></trkpt><trkpt lat="59.1006832570" lon="30.0130274612"><ele>75.41</ele><time>2026-04-22T23:43:25Z</time></trkpt><trkpt lat="59.1006680857" lon="30.0130494218"><ele>75.18</ele><time>2026-04-22T23:43:47Z</time></trkpt><trkpt lat="59.1006593686" lon="30.0130328257"><ele>75.07</ele><time>2026-04-22T23:44:10Z</time></trkpt><trkpt lat="59.1006706841" lon="30.0130810216"><ele>77.84</ele><time>2026-04-22T23:44:48Z</time></trkpt><trkpt lat="59.1007074807" lon="30.0129941851"><ele>76.68</ele><time>2026-04-22T23:45:20Z</time></trkpt><trkpt lat="59.1007214785" lon="30.0129636750"><ele>76.30</ele><time>2026-04-22T23:45:43Z</time></trkpt><trkpt lat="59.1007202212" lon="30.0129686203"><ele>75.64</ele><time>2026-04-22T23:46:06Z</time></trkpt><trkpt lat="59.1006954946" lon="30.0129070971"><ele>74.24</ele><time>2026-04-22T23:46:30Z</time></trkpt><trkpt lat="59.1006561834" lon="30.0128631759"><ele>71.97</ele><time>2026-04-22T23:47:11Z</time></trkpt><trkpt lat="59.1006779764" lon="30.0129811931"><ele>71.81</ele><time>2026-04-22T23:47:47Z</time></trkpt><trkpt lat="59.1006741207" lon="30.0130110327"><ele>70.92</ele><time>2026-04-22T23:48:09Z</time></trkpt><trkpt lat="59.1006717738" lon="30.0130340829"><ele>71.03</ele><time>2026-04-22T23:48:33Z</time></trkpt><trkpt lat="59.1005928162" lon="30.0130012259"><ele>72.01</ele><time>2026-04-22T23:48:45Z</time></trkpt><trkpt lat="59.1005680896" lon="30.0129582267"><ele>72.50</ele><time>2026-04-22T23:49:13Z</time></trkpt><trkpt lat="59.1005279403" lon="30.0129609928"><ele>72.21</ele><time>2026-04-22T23:49:28Z</time></trkpt><trkpt lat="59.1004781518" lon="30.0129545387"><ele>71.96</ele><time>2026-04-22T23:49:43Z</time></trkpt><trkpt lat="59.1004449595" lon="30.0129957777"><ele>71.51</ele><time>2026-04-22T23:50:00Z</time></trkpt><trkpt lat="59.1004138626" lon="30.0129994657"><ele>70.98</ele><time>2026-04-22T23:50:19Z</time></trkpt><trkpt lat="59.1004064865" lon="30.0129056722"><ele>68.26</ele><time>2026-04-22T23:50:37Z</time></trkpt><trkpt lat="59.1004016250" lon="30.0128413830"><ele>69.84</ele><time>2026-04-22T23:50:53Z</time></trkpt><trkpt lat="59.1003763955" lon="30.0129119586"><ele>69.71</ele><time>2026-04-22T23:51:18Z</time></trkpt><trkpt lat="59.1003394313" lon="30.0129892398"><ele>69.79</ele><time>2026-04-22T23:51:46Z</time></trkpt><trkpt lat="59.1003344860" lon="30.0129835401"><ele>67.69</ele><time>2026-04-22T23:52:19Z</time></trkpt><trkpt lat="59.1003428679" lon="30.0129107852"><ele>69.03</ele><time>2026-04-22T23:52:49Z</time></trkpt><trkpt lat="59.1003457177" lon="30.0128501840"><ele>69.57</ele><time>2026-04-22T23:53:04Z</time></trkpt><trkpt lat="59.1003408562" lon="30.0128542911"><ele>69.19</ele><time>2026-04-22T23:53:19Z</time></trkpt><trkpt lat="59.1003124416" lon="30.0128410477"><ele>69.04</ele><time>2026-04-22T23:53:38Z</time></trkpt><trkpt lat="59.1002625693" lon="30.0127402972"><ele>68.83</ele><time>2026-04-22T23:53:52Z</time></trkpt><trkpt lat="59.1002282873" lon="30.0127725676"><ele>71.21</ele><time>2026-04-22T23:54:18Z</time></trkpt><trkpt lat="59.1001887247" lon="30.0127742440"><ele>72.00</ele><time>2026-04-22T23:54:31Z</time></trkpt><trkpt lat="59.1001712903" lon="30.0128964521"><ele>72.63</ele><time>2026-04-22T23:54:45Z</time></trkpt><trkpt lat="59.1001964360" lon="30.0129954424"><ele>70.16</ele><time>2026-04-22T23:54:58Z</time></trkpt><trkpt lat="59.1002096795" lon="30.0130629167"><ele>71.24</ele><time>2026-04-22T23:55:04Z</time></trkpt><trkpt lat="59.1002538521" lon="30.0131542794"><ele>71.91</ele><time>2026-04-22T23:55:18Z</time></trkpt><trkpt lat="59.1002538521" lon="30.0132419541"><ele>72.67</ele><time>2026-04-22T23:55:29Z</time></trkpt><trkpt lat="59.1002112720" lon="30.0132983644"><ele>72.60</ele><time>2026-04-22T23:55:47Z</time></trkpt><trkpt lat="59.1002155468" lon="30.0132964365"><ele>70.40</ele><time>2026-04-22T23:56:00Z</time></trkpt><trkpt lat="59.1002416983" lon="30.0132447202"><ele>70.57</ele><time>2026-04-22T23:56:21Z</time></trkpt><trkpt lat="59.1002593841" lon="30.0132149644"><ele>71.44</ele><time>2026-04-22T23:56:37Z</time></trkpt><trkpt lat="59.1003065743" lon="30.0132438820"><ele>71.38</ele><time>2026-04-22T23:56:52Z</time></trkpt><trkpt lat="59.1002768185" lon="30.0132638309"><ele>72.36</ele><time>2026-04-22T23:57:43Z</time></trkpt><trkpt lat="59.1002737172" lon="30.0132813491"><ele>73.41</ele><time>2026-04-22T23:58:18Z</time></trkpt><trkpt lat="59.1002773214" lon="30.0132306386"><ele>74.57</ele><time>2026-04-22T23:58:55Z</time></trkpt><trkpt lat="59.1002750583" lon="30.0132132880"><ele>77.26</ele><time>2026-04-22T23:59:37Z</time></trkpt><trkpt lat="59.1002411954" lon="30.0132630765"><ele>76.19</ele><time>2026-04-23T00:00:00Z</time></trkpt><trkpt lat="59.1002456378" lon="30.0132950954"><ele>76.12</ele><time>2026-04-23T00:00:30Z</time></trkpt><trkpt lat="59.1001957655" lon="30.0132836960"><ele>79.07</ele><time>2026-04-23T00:01:07Z</time></trkpt><trkpt lat="59.1002119426" lon="30.0132587180"><ele>78.29</ele><time>2026-04-23T00:01:34Z</time></trkpt><trkpt lat="59.1002277844" lon="30.0131937582"><ele>80.91</ele><time>2026-04-23T00:02:16Z</time></trkpt><trkpt lat="59.1002228390" lon="30.0131995417"><ele>77.92</ele><time>2026-04-23T00:02:48Z</time></trkpt><trkpt lat="59.1002200730" lon="30.0133102667"><ele>74.70</ele><time>2026-04-23T00:03:19Z</time></trkpt><trkpt lat="59.1002182290" lon="30.0133230910"><ele>74.35</ele><time>2026-04-23T00:03:42Z</time></trkpt><trkpt lat="59.1002068296" lon="30.0132805947"><ele>72.03</ele><time>2026-04-23T00:04:04Z</time></trkpt><trkpt lat="59.1001979448" lon="30.0133456383"><ele>73.35</ele><time>2026-04-23T00:04:41Z</time></trkpt><trkpt lat="59.1001687758" lon="30.0134827662"><ele>68.49</ele><time>2026-04-23T00:04:54Z</time></trkpt><trkpt lat="59.1001597233" lon="30.0135195628"><ele>69.04</ele><time>2026-04-23T00:05:11Z</time></trkpt><trkpt lat="59.1001554485" lon="30.0135906413"><ele>68.97</ele><time>2026-04-23T00:05:32Z</time></trkpt><trkpt lat="59.1001561191" lon="30.0135651603"><ele>70.09</ele><time>2026-04-23T00:05:50Z</time></trkpt><trkpt lat="59.1001727991" lon="30.0136073213"><ele>70.17</ele><time>2026-04-23T00:06:07Z</time></trkpt><trkpt lat="59.1001203284" lon="30.0136907212"><ele>71.53</ele><time>2026-04-23T00:06:21Z</time></trkpt><trkpt lat="59.1001387686" lon="30.0137712713"><ele>70.77</ele><time>2026-04-23T00:06:35Z</time></trkpt><trkpt lat="59.1000825260" lon="30.0137953274"><ele>70.76</ele><time>2026-04-23T00:06:50Z</time></trkpt><trkpt lat="59.1000323184" lon="30.0138232391"><ele>70.82</ele><time>2026-04-23T00:07:05Z</time></trkpt><trkpt lat="59.1000049934" lon="30.0138342194"><ele>71.97</ele><time>2026-04-23T00:07:25Z</time></trkpt><trkpt lat="59.1000375990" lon="30.0138095766"><ele>72.19</ele><time>2026-04-23T00:07:57Z</time></trkpt><trkpt lat="59.1000195779" lon="30.0138966646"><ele>72.73</ele><time>2026-04-23T00:08:38Z</time></trkpt><trkpt lat="59.1000328213" lon="30.0138388295"><ele>72.89</ele><time>2026-04-23T00:09:15Z</time></trkpt><trkpt lat="59.1000445560" lon="30.0138237420"><ele>72.43</ele><time>2026-04-23T00:09:30Z</time></trkpt><trkpt lat="59.1000661813" lon="30.0138720218"><ele>74.00</ele><time>2026-04-23T00:10:10Z</time></trkpt><trkpt lat="59.1000494175" lon="30.0139027834"><ele>76.82</ele><time>2026-04-23T00:10:54Z</time></trkpt><trkpt lat="59.1000366770" lon="30.0138881989"><ele>75.59</ele><time>2026-04-23T00:11:24Z</time></trkpt><trkpt lat="59.1000327375" lon="30.0138650648"><ele>75.47</ele><time>2026-04-23T00:11:42Z</time></trkpt><trkpt lat="59.1000590567" lon="30.0138452835"><ele>78.54</ele><time>2026-04-23T00:12:06Z</time></trkpt><trkpt lat="59.1000596434" lon="30.0138774700"><ele>79.54</ele><time>2026-04-23T00:12:27Z</time></trkpt><trkpt lat="59.1000566259" lon="30.0138848461"><ele>78.84</ele><time>2026-04-23T00:12:52Z</time></trkpt><trkpt lat="59.1000517644" lon="30.0138871931"><ele>77.73</ele><time>2026-04-23T00:13:10Z</time></trkpt><trkpt lat="59.1000473220" lon="30.0138641428"><ele>77.60</ele><time>2026-04-23T00:13:49Z</time></trkpt><trkpt lat="59.1000518482" lon="30.0138678309"><ele>78.77</ele><time>2026-04-23T00:14:18Z</time></trkpt><trkpt lat="59.1000370961" lon="30.0138549227"><ele>76.58</ele><time>2026-04-23T00:14:32Z</time></trkpt><trkpt lat="59.0999820270" lon="30.0138307828"><ele>76.28</ele><time>2026-04-23T00:14:46Z</time></trkpt><trkpt lat="59.0999228507" lon="30.0138688367"><ele>74.70</ele><time>2026-04-23T00:14:59Z</time></trkpt><trkpt lat="59.0998942684" lon="30.0138405897"><ele>73.44</ele><time>2026-04-23T00:15:18Z</time></trkpt><trkpt lat="59.0998216812" lon="30.0138769671"><ele>73.99</ele><time>2026-04-23T00:15:35Z</time></trkpt><trkpt lat="59.0998071805" lon="30.0138796493"><ele>74.98</ele><time>2026-04-23T00:15:52Z</time></trkpt><trkpt lat="59.0997732338" lon="30.0138834212"><ele>73.67</ele><time>2026-04-23T00:16:15Z</time></trkpt><trkpt lat="59.0997360181" lon="30.0138473790"><ele>73.42</ele><time>2026-04-23T00:16:38Z</time></trkpt><trkpt lat="59.0997596551" lon="30.0137420185"><ele>73.89</ele><time>2026-04-23T00:17:11Z</time></trkpt><trkpt lat="59.0997513570" lon="30.0137712713"><ele>73.87</ele><time>2026-04-23T00:17:28Z</time></trkpt><trkpt lat="59.0997123811" lon="30.0137599558"><ele>73.38</ele><time>2026-04-23T00:17:44Z</time></trkpt><trkpt lat="59.0996671189" lon="30.0137791503"><ele>72.02</ele><time>2026-04-23T00:18:09Z</time></trkpt><trkpt lat="59.0996477567" lon="30.0138971675"><ele>72.58</ele><time>2026-04-23T00:18:27Z</time></trkpt><trkpt lat="59.0996346809" lon="30.0140040368"><ele>71.29</ele><time>2026-04-23T00:18:39Z</time></trkpt><trkpt lat="59.0995867364" lon="30.0140627939"><ele>71.17</ele><time>2026-04-23T00:18:54Z</time></trkpt><trkpt lat="59.0995423961" lon="30.0141441822"><ele>71.87</ele><time>2026-04-23T00:19:08Z</time></trkpt><trkpt lat="59.0995561425" lon="30.0142218824"><ele>72.84</ele><time>2026-04-23T00:19:22Z</time></trkpt><trkpt lat="59.0995670389" lon="30.0142765325"><ele>73.71</ele><time>2026-04-23T00:19:36Z</time></trkpt><trkpt lat="59.0995355230" lon="30.0143894367"><ele>74.01</ele><time>2026-04-23T00:19:50Z</time></trkpt><trkpt lat="59.0995047614" lon="30.0144792907"><ele>73.35</ele><time>2026-04-23T00:20:08Z</time></trkpt><trkpt lat="59.0995069407" lon="30.0145733356"><ele>74.75</ele><time>2026-04-23T00:20:26Z</time></trkpt><trkpt lat="59.0995254647" lon="30.0145587511"><ele>74.74</ele><time>2026-04-23T00:20:52Z</time></trkpt><trkpt lat="59.0995292366" lon="30.0144992396"><ele>75.99</ele><time>2026-04-23T00:21:23Z</time></trkpt><trkpt lat="59.0995208547" lon="30.0144920312"><ele>75.43</ele><time>2026-04-23T00:22:18Z</time></trkpt><trkpt lat="59.0995533764" lon="30.0144973956"><ele>78.77</ele><time>2026-04-23T00:22:55Z</time></trkpt><trkpt lat="59.0995274764" lon="30.0145426579"><ele>77.18</ele><time>2026-04-23T00:23:45Z</time></trkpt><trkpt lat="59.0995125566" lon="30.0145522971"><ele>77.35</ele><time>2026-04-23T00:24:10Z</time></trkpt><trkpt lat="59.0994961280" lon="30.0146144908"><ele>76.07</ele><time>2026-04-23T00:24:31Z</time></trkpt><trkpt lat="59.0994336829" lon="30.0146622676"><ele>76.66</ele><time>2026-04-23T00:24:47Z</time></trkpt><trkpt lat="59.0993854869" lon="30.0146471802"><ele>76.68</ele><time>2026-04-23T00:25:04Z</time></trkpt><trkpt lat="59.0993288253" lon="30.0146380439"><ele>75.38</ele><time>2026-04-23T00:25:21Z</time></trkpt><trkpt lat="59.0992942918" lon="30.0145837292"><ele>74.11</ele><time>2026-04-23T00:25:34Z</time></trkpt><trkpt lat="59.0992478561" lon="30.0145232957"><ele>74.21</ele><time>2026-04-23T00:25:50Z</time></trkpt><trkpt lat="59.0991959721" lon="30.0144872535"><ele>74.06</ele><time>2026-04-23T00:26:10Z</time></trkpt><trkpt lat="59.0991549846" lon="30.0144223776"><ele>73.92</ele><time>2026-04-23T00:26:24Z</time></trkpt><trkpt lat="59.0991604328" lon="30.0144066196"><ele>74.22</ele><time>2026-04-23T00:26:41Z</time></trkpt><trkpt lat="59.0991650429" lon="30.0144119840"><ele>73.95</ele><time>2026-04-23T00:27:02Z</time></trkpt><trkpt lat="59.0991691500" lon="30.0144024286"><ele>70.52</ele><time>2026-04-23T00:28:04Z</time></trkpt><trkpt lat="59.0991750173" lon="30.0144077931"><ele>70.96</ele><time>2026-04-23T00:28:56Z</time></trkpt><trkpt lat="59.0991589241" lon="30.0144003332"><ele>71.16</ele><time>2026-04-23T00:29:16Z</time></trkpt><trkpt lat="59.0990923718" lon="30.0143437553"><ele>70.66</ele><time>2026-04-23T00:29:32Z</time></trkpt><trkpt lat="59.0990478639" lon="30.0143887661"><ele>70.77</ele><time>2026-04-23T00:29:48Z</time></trkpt><trkpt lat="59.0990084689" lon="30.0144539773"><ele>71.25</ele><time>2026-04-23T00:30:01Z</time></trkpt><trkpt lat="59.0989742707" lon="30.0145128183"><ele>71.44</ele><time>2026-04-23T00:30:15Z</time></trkpt><trkpt lat="59.0989301819" lon="30.0145359524"><ele>70.81</ele><time>2026-04-23T00:30:32Z</time></trkpt><trkpt lat="59.0988850873" lon="30.0145513751"><ele>69.88</ele><time>2026-04-23T00:30:46Z</time></trkpt><trkpt lat="59.0988292638" lon="30.0145782810"><ele>70.60</ele><time>2026-04-23T00:31:00Z</time></trkpt><trkpt lat="59.0987754520" lon="30.0145721622"><ele>70.37</ele><time>2026-04-23T00:31:21Z</time></trkpt><trkpt lat="59.0987209696" lon="30.0145822205"><ele>71.01</ele><time>2026-04-23T00:31:34Z</time></trkpt><trkpt lat="59.0986842569" lon="30.0145994872"><ele>69.94</ele><time>2026-04-23T00:31:43Z</time></trkpt><trkpt lat="59.0986337978" lon="30.0145910215"><ele>68.96</ele><time>2026-04-23T00:31:58Z</time></trkpt><trkpt lat="59.0986262541" lon="30.0146649498"><ele>69.93</ele><time>2026-04-23T00:32:15Z</time></trkpt><trkpt lat="59.0986105800" lon="30.0146561489"><ele>69.36</ele><time>2026-04-23T00:32:37Z</time></trkpt><trkpt lat="59.0985639766" lon="30.0146478508"><ele>70.38</ele><time>2026-04-23T00:32:51Z</time></trkpt><trkpt lat="59.0985200554" lon="30.0146067794"><ele>69.50</ele><time>2026-04-23T00:33:06Z</time></trkpt><trkpt lat="59.0984938201" lon="30.0145845674"><ele>70.33</ele><time>2026-04-23T00:33:22Z</time></trkpt><trkpt lat="59.0984338894" lon="30.0146563165"><ele>70.27</ele><time>2026-04-23T00:33:38Z</time></trkpt><trkpt lat="59.0984117612" lon="30.0147041772"><ele>70.68</ele><time>2026-04-23T00:33:57Z</time></trkpt><trkpt lat="59.0983917285" lon="30.0146881677"><ele>70.09</ele><time>2026-04-23T00:34:41Z</time></trkpt><trkpt lat="59.0984047204" lon="30.0146920234"><ele>70.25</ele><time>2026-04-23T00:35:16Z</time></trkpt><trkpt lat="59.0984111745" lon="30.0146797858"><ele>71.20</ele><time>2026-04-23T00:36:00Z</time></trkpt><trkpt lat="59.0984111745" lon="30.0147243775"><ele>71.28</ele><time>2026-04-23T00:36:36Z</time></trkpt><trkpt lat="59.0984173771" lon="30.0147073623"><ele>71.69</ele><time>2026-04-23T00:36:58Z</time></trkpt><trkpt lat="59.0984071512" lon="30.0146263931"><ele>69.80</ele><time>2026-04-23T00:37:28Z</time></trkpt><trkpt lat="59.0983576979" lon="30.0147148222"><ele>68.68</ele><time>2026-04-23T00:37:53Z</time></trkpt><trkpt lat="59.0983478911" lon="30.0147130620"><ele>68.34</ele><time>2026-04-23T00:38:09Z</time></trkpt><trkpt lat="59.0983191412" lon="30.0147177558"><ele>67.69</ele><time>2026-04-23T00:38:26Z</time></trkpt><trkpt lat="59.0982834343" lon="30.0147151574"><ele>68.55</ele><time>2026-04-23T00:38:38Z</time></trkpt><trkpt lat="59.0982828476" lon="30.0147335976"><ele>66.31</ele><time>2026-04-23T00:39:05Z</time></trkpt><trkpt lat="59.0982400998" lon="30.0146979745"><ele>67.88</ele><time>2026-04-23T00:39:23Z</time></trkpt><trkpt lat="59.0982367471" lon="30.0146219507"><ele>68.09</ele><time>2026-04-23T00:39:42Z</time></trkpt><trkpt lat="59.0982362442" lon="30.0145908538"><ele>69.01</ele><time>2026-04-23T00:40:01Z</time></trkpt><trkpt lat="59.0981786605" lon="30.0145793706"><ele>70.02</ele><time>2026-04-23T00:40:14Z</time></trkpt><trkpt lat="59.0981489886" lon="30.0145869981"><ele>70.19</ele><time>2026-04-23T00:40:30Z</time></trkpt><trkpt lat="59.0981284529" lon="30.0146811269"><ele>71.58</ele><time>2026-04-23T00:40:44Z</time></trkpt><trkpt lat="59.0981173888" lon="30.0148161594"><ele>71.33</ele><time>2026-04-23T00:41:04Z</time></trkpt><trkpt lat="59.0980958473" lon="30.0148808677"><ele>70.27</ele><time>2026-04-23T00:41:17Z</time></trkpt><trkpt lat="59.0980873816" lon="30.0148634333"><ele>70.42</ele><time>2026-04-23T00:41:34Z</time></trkpt><trkpt lat="59.0980524290" lon="30.0149212684"><ele>70.19</ele><time>2026-04-23T00:41:50Z</time></trkpt><trkpt lat="59.0980448853" lon="30.0149944425"><ele>68.53</ele><time>2026-04-23T00:42:08Z</time></trkpt><trkpt lat="59.0980356652" lon="30.0150614977"><ele>69.12</ele><time>2026-04-23T00:42:23Z</time></trkpt><trkpt lat="59.0979941748" lon="30.0150806922"><ele>68.62</ele><time>2026-04-23T00:42:37Z</time></trkpt><trkpt lat="59.0979745612" lon="30.0150535349"><ele>68.29</ele><time>2026-04-23T00:42:51Z</time></trkpt><trkpt lat="59.0979272872" lon="30.0151126273"><ele>66.73</ele><time>2026-04-23T00:43:08Z</time></trkpt><trkpt lat="59.0978976991" lon="30.0151025690"><ele>67.93</ele><time>2026-04-23T00:43:24Z</time></trkpt><trkpt lat="59.0978489164" lon="30.0150932651"><ele>67.52</ele><time>2026-04-23T00:43:40Z</time></trkpt><trkpt lat="59.0977960266" lon="30.0150847994"><ele>67.59</ele><time>2026-04-23T00:43:57Z</time></trkpt><trkpt lat="59.0978014749" lon="30.0151473284"><ele>66.61</ele><time>2026-04-23T00:44:23Z</time></trkpt><trkpt lat="59.0977459867" lon="30.0151284691"><ele>66.31</ele><time>2026-04-23T00:44:35Z</time></trkpt><trkpt lat="59.0977299772" lon="30.0151980389"><ele>67.10</ele><time>2026-04-23T00:44:52Z</time></trkpt><trkpt lat="59.0977148898" lon="30.0151961949"><ele>66.51</ele><time>2026-04-23T00:45:05Z</time></trkpt><trkpt lat="59.0976996347" lon="30.0151537824"><ele>66.24</ele><time>2026-04-23T00:45:39Z</time></trkpt><trkpt lat="59.0976937674" lon="30.0151366834"><ele>65.80</ele><time>2026-04-23T00:46:22Z</time></trkpt><trkpt lat="59.0977211762" lon="30.0151954405"><ele>66.45</ele><time>2026-04-23T00:47:01Z</time></trkpt><trkpt lat="59.0976979584" lon="30.0151694566"><ele>66.03</ele><time>2026-04-23T00:47:25Z</time></trkpt><trkpt lat="59.0976207610" lon="30.0151823647"><ele>66.68</ele><time>2026-04-23T00:47:47Z</time></trkpt><trkpt lat="59.0975473356" lon="30.0151192490"><ele>66.45</ele><time>2026-04-23T00:48:02Z</time></trkpt><trkpt lat="59.0975241177" lon="30.0150981266"><ele>67.44</ele><time>2026-04-23T00:48:21Z</time></trkpt><trkpt lat="59.0975152329" lon="30.0150986295"><ele>66.90</ele><time>2026-04-23T00:48:38Z</time></trkpt><trkpt lat="59.0974876564" lon="30.0151574705"><ele>67.25</ele><time>2026-04-23T00:48:55Z</time></trkpt><trkpt lat="59.0974719822" lon="30.0151497591"><ele>66.84</ele><time>2026-04-23T00:49:14Z</time></trkpt><trkpt lat="59.0974147338" lon="30.0151857175"><ele>67.51</ele><time>2026-04-23T00:49:30Z</time></trkpt><trkpt lat="59.0973899234" lon="30.0151407905"><ele>66.95</ele><time>2026-04-23T00:49:46Z</time></trkpt><trkpt lat="59.0973650292" lon="30.0150474999"><ele>68.00</ele><time>2026-04-23T00:50:05Z</time></trkpt><trkpt lat="59.0973745845" lon="30.0149709731"><ele>68.98</ele><time>2026-04-23T00:50:19Z</time></trkpt><trkpt lat="59.0973755904" lon="30.0149026606"><ele>69.10</ele><time>2026-04-23T00:50:36Z</time></trkpt><trkpt lat="59.0973770991" lon="30.0148056820"><ele>68.88</ele><time>2026-04-23T00:50:50Z</time></trkpt><trkpt lat="59.0973650292" lon="30.0147217792"><ele>68.37</ele><time>2026-04-23T00:51:06Z</time></trkpt><trkpt lat="59.0973049309" lon="30.0146200228"><ele>67.96</ele><time>2026-04-23T00:51:21Z</time></trkpt><trkpt lat="59.0972871613" lon="30.0146103837"><ele>68.94</ele><time>2026-04-23T00:51:38Z</time></trkpt><trkpt lat="59.0972680505" lon="30.0146224536"><ele>68.71</ele><time>2026-04-23T00:52:03Z</time></trkpt><trkpt lat="59.0972490236" lon="30.0146793667"><ele>70.94</ele><time>2026-04-23T00:52:40Z</time></trkpt><trkpt lat="59.0972531307" lon="30.0146766845"><ele>72.05</ele><time>2026-04-23T00:53:14Z</time></trkpt><trkpt lat="59.0972418990" lon="30.0146671291"><ele>72.63</ele><time>2026-04-23T00:53:43Z</time></trkpt><trkpt lat="59.0972971357" lon="30.0146032590"><ele>72.56</ele><time>2026-04-23T00:54:05Z</time></trkpt><trkpt lat="59.0972954594" lon="30.0146178436"><ele>70.59</ele><time>2026-04-23T00:54:39Z</time></trkpt><trkpt lat="59.0972550586" lon="30.0146013312"><ele>70.29</ele><time>2026-04-23T00:55:02Z</time></trkpt><trkpt lat="59.0973139834" lon="30.0144520495"><ele>69.94</ele><time>2026-04-23T00:55:18Z</time></trkpt><trkpt lat="59.0973197669" lon="30.0143235549"><ele>68.98</ele><time>2026-04-23T00:55:36Z</time></trkpt><trkpt lat="59.0973056853" lon="30.0142194517"><ele>68.82</ele><time>2026-04-23T00:56:05Z</time></trkpt><trkpt lat="59.0972502809" lon="30.0140355527"><ele>67.30</ele><time>2026-04-23T00:56:19Z</time></trkpt><trkpt lat="59.0972082876" lon="30.0138989277"><ele>66.09</ele><time>2026-04-23T00:56:32Z</time></trkpt><trkpt lat="59.0971896797" lon="30.0137681700"><ele>66.97</ele><time>2026-04-23T00:56:48Z</time></trkpt><trkpt lat="59.0971466806" lon="30.0136312936"><ele>66.57</ele><time>2026-04-23T00:57:02Z</time></trkpt><trkpt lat="59.0971234627" lon="30.0134427845"><ele>67.45</ele><time>2026-04-23T00:57:19Z</time></trkpt><trkpt lat="59.0970935393" lon="30.0132970233"><ele>67.82</ele><time>2026-04-23T00:57:33Z</time></trkpt><trkpt lat="59.0970617719" lon="30.0132061634"><ele>67.21</ele><time>2026-04-23T00:57:45Z</time></trkpt><trkpt lat="59.0970385540" lon="30.0131607335"><ele>65.72</ele><time>2026-04-23T00:58:05Z</time></trkpt><trkpt lat="59.0970045235" lon="30.0132135395"><ele>64.58</ele><time>2026-04-23T00:58:26Z</time></trkpt><trkpt lat="59.0970019251" lon="30.0131908245"><ele>67.14</ele><time>2026-04-23T00:58:47Z</time></trkpt><trkpt lat="59.0970186889" lon="30.0131794252"><ele>68.44</ele><time>2026-04-23T00:59:09Z</time></trkpt><trkpt lat="59.0969825629" lon="30.0131881423"><ele>67.23</ele><time>2026-04-23T00:59:40Z</time></trkpt><trkpt lat="59.0969797969" lon="30.0131100230"><ele>66.86</ele><time>2026-04-23T01:00:05Z</time></trkpt><trkpt lat="59.0969649609" lon="30.0130678620"><ele>67.37</ele><time>2026-04-23T01:00:33Z</time></trkpt><trkpt lat="59.0969659667" lon="30.0130973663"><ele>66.68</ele><time>2026-04-23T01:01:05Z</time></trkpt><trkpt lat="59.0969552379" lon="30.0130820274"><ele>67.59</ele><time>2026-04-23T01:01:58Z</time></trkpt><trkpt lat="59.0969402343" lon="30.0130883977"><ele>69.00</ele><time>2026-04-23T01:02:23Z</time></trkpt><trkpt lat="59.0969205368" lon="30.0129543711"><ele>69.46</ele><time>2026-04-23T01:02:39Z</time></trkpt><trkpt lat="59.0969415754" lon="30.0129457377"><ele>69.12</ele><time>2026-04-23T01:03:07Z</time></trkpt><trkpt lat="59.0969544835" lon="30.0129406247"><ele>69.39</ele><time>2026-04-23T01:03:21Z</time></trkpt><trkpt lat="59.0970026795" lon="30.0129787624"><ele>69.88</ele><time>2026-04-23T01:03:31Z</time></trkpt><trkpt lat="59.0969391447" lon="30.0128714740"><ele>66.78</ele><time>2026-04-23T01:03:57Z</time></trkpt><trkpt lat="59.0968772862" lon="30.0125781912"><ele>66.70</ele><time>2026-04-23T01:04:12Z</time></trkpt><trkpt lat="59.0968448482" lon="30.0124345254"><ele>66.96</ele><time>2026-04-23T01:04:18Z</time></trkpt><trkpt lat="59.0968139190" lon="30.0122497883"><ele>67.34</ele><time>2026-04-23T01:04:31Z</time></trkpt><trkpt lat="59.0967618674" lon="30.0120377261"><ele>68.61</ele><time>2026-04-23T01:04:41Z</time></trkpt><trkpt lat="59.0967313573" lon="30.0117682479"><ele>69.44</ele><time>2026-04-23T01:04:58Z</time></trkpt><trkpt lat="59.0967017692" lon="30.0114712771"><ele>68.00</ele><time>2026-04-23T01:05:12Z</time></trkpt><trkpt lat="59.0966617875" lon="30.0112654176"><ele>67.80</ele><time>2026-04-23T01:05:24Z</time></trkpt><trkpt lat="59.0966298524" lon="30.0110619888"><ele>67.48</ele><time>2026-04-23T01:05:34Z</time></trkpt><trkpt lat="59.0966035333" lon="30.0108357612"><ele>67.78</ele><time>2026-04-23T01:05:47Z</time></trkpt><trkpt lat="59.0965480451" lon="30.0105833821"><ele>67.97</ele><time>2026-04-23T01:05:59Z</time></trkpt><trkpt lat="59.0964979213" lon="30.0103385467"><ele>67.92</ele><time>2026-04-23T01:06:12Z</time></trkpt><trkpt lat="59.0964685846" lon="30.0100311823"><ele>68.43</ele><time>2026-04-23T01:06:28Z</time></trkpt><trkpt lat="59.0963868611" lon="30.0097947288"><ele>69.32</ele><time>2026-04-23T01:06:41Z</time></trkpt><trkpt lat="59.0963630565" lon="30.0095583592"><ele>69.42</ele><time>2026-04-23T01:06:56Z</time></trkpt><trkpt lat="59.0963091608" lon="30.0092456304"><ele>69.22</ele><time>2026-04-23T01:07:09Z</time></trkpt><trkpt lat="59.0962359868" lon="30.0089513417"><ele>69.92</ele><time>2026-04-23T01:07:23Z</time></trkpt><trkpt lat="59.0961444564" lon="30.0085992180"><ele>69.89</ele><time>2026-04-23T01:07:40Z</time></trkpt><trkpt lat="59.0960710309" lon="30.0082771853"><ele>69.40</ele><time>2026-04-23T01:07:56Z</time></trkpt><trkpt lat="59.0960237570" lon="30.0079439208"><ele>73.09</ele><time>2026-04-23T01:08:17Z</time></trkpt><trkpt lat="59.0960047301" lon="30.0074872747"><ele>73.77</ele><time>2026-04-23T01:08:36Z</time></trkpt><trkpt lat="59.0958998725" lon="30.0071522500"><ele>75.66</ele><time>2026-04-23T01:08:54Z</time></trkpt><trkpt lat="59.0958566219" lon="30.0068662595"><ele>76.42</ele><time>2026-04-23T01:09:07Z</time></trkpt><trkpt lat="59.0958174784" lon="30.0066492520"><ele>76.79</ele><time>2026-04-23T01:09:20Z</time></trkpt><trkpt lat="59.0957356710" lon="30.0063509401"><ele>77.33</ele><time>2026-04-23T01:09:35Z</time></trkpt><trkpt lat="59.0957071725" lon="30.0060470961"><ele>76.64</ele><time>2026-04-23T01:09:49Z</time></trkpt><trkpt lat="59.0956651792" lon="30.0057723373"><ele>77.05</ele><time>2026-04-23T01:10:04Z</time></trkpt><trkpt lat="59.0956210904" lon="30.0055055413"><ele>76.30</ele><time>2026-04-23T01:10:19Z</time></trkpt><trkpt lat="59.0956209227" lon="30.0055820681"><ele>79.12</ele><time>2026-04-23T01:11:06Z</time></trkpt><trkpt lat="59.0955986269" lon="30.0055748597"><ele>72.10</ele><time>2026-04-23T01:11:57Z</time></trkpt><trkpt lat="59.0956262872" lon="30.0055324472"><ele>72.09</ele><time>2026-04-23T01:12:13Z</time></trkpt><trkpt lat="59.0956408717" lon="30.0055284239"><ele>69.34</ele><time>2026-04-23T01:12:38Z</time></trkpt><trkpt lat="59.0956340823" lon="30.0054950640"><ele>74.73</ele><time>2026-04-23T01:13:12Z</time></trkpt><trkpt lat="59.0956201684" lon="30.0055093970"><ele>74.99</ele><time>2026-04-23T01:14:26Z</time></trkpt><trkpt lat="59.0956215933" lon="30.0055131689"><ele>74.14</ele><time>2026-04-23T01:14:57Z</time></trkpt><trkpt lat="59.0956010576" lon="30.0054585189"><ele>73.23</ele><time>2026-04-23T01:15:36Z</time></trkpt><trkpt lat="59.0956198331" lon="30.0055295974"><ele>69.64</ele><time>2026-04-23T01:15:56Z</time></trkpt><trkpt lat="59.0956060868" lon="30.0055848341"><ele>71.00</ele><time>2026-04-23T01:16:30Z</time></trkpt><trkpt lat="59.0956107806" lon="30.0054043718"><ele>70.76</ele><time>2026-04-23T01:16:39Z</time></trkpt><trkpt lat="59.0955688711" lon="30.0051476341"><ele>70.61</ele><time>2026-04-23T01:16:52Z</time></trkpt><trkpt lat="59.0955263749" lon="30.0049896352"><ele>70.61</ele><time>2026-04-23T01:17:00Z</time></trkpt><trkpt lat="59.0954857226" lon="30.0047015492"><ele>70.53</ele><time>2026-04-23T01:17:14Z</time></trkpt><trkpt lat="59.0954379458" lon="30.0045469869"><ele>70.92</ele><time>2026-04-23T01:17:27Z</time></trkpt><trkpt lat="59.0954150632" lon="30.0042731501"><ele>72.04</ele><time>2026-04-23T01:17:39Z</time></trkpt><trkpt lat="59.0953792725" lon="30.0040737446"><ele>72.14</ele><time>2026-04-23T01:17:51Z</time></trkpt><trkpt lat="59.0953512769" lon="30.0038029253"><ele>72.50</ele><time>2026-04-23T01:18:07Z</time></trkpt><trkpt lat="59.0952893347" lon="30.0035920367"><ele>73.08</ele><time>2026-04-23T01:18:21Z</time></trkpt><trkpt lat="59.0952563938" lon="30.0033735204"><ele>72.36</ele><time>2026-04-23T01:18:33Z</time></trkpt><trkpt lat="59.0952053480" lon="30.0031419285"><ele>71.66</ele><time>2026-04-23T01:18:46Z</time></trkpt><trkpt lat="59.0951664560" lon="30.0028461311"><ele>71.89</ele><time>2026-04-23T01:19:01Z</time></trkpt><trkpt lat="59.0951205231" lon="30.0025606435"><ele>71.97</ele><time>2026-04-23T01:19:17Z</time></trkpt><trkpt lat="59.0950767696" lon="30.0023988727"><ele>73.00</ele><time>2026-04-23T01:19:31Z</time></trkpt><trkpt lat="59.0950403921" lon="30.0021026563"><ele>73.27</ele><time>2026-04-23T01:19:44Z</time></trkpt><trkpt lat="59.0949821379" lon="30.0018754229"><ele>73.02</ele><time>2026-04-23T01:19:58Z</time></trkpt><trkpt lat="59.0949396417" lon="30.0015907735"><ele>72.95</ele><time>2026-04-23T01:20:14Z</time></trkpt><trkpt lat="59.0948829800" lon="30.0012963172"><ele>73.38</ele><time>2026-04-23T01:20:30Z</time></trkpt><trkpt lat="59.0948756877" lon="30.0011228956"><ele>72.88</ele><time>2026-04-23T01:20:38Z</time></trkpt><trkpt lat="59.0948374663" lon="30.0008736178"><ele>72.75</ele><time>2026-04-23T01:20:52Z</time></trkpt><trkpt lat="59.0947841574" lon="30.0007030461"><ele>71.72</ele><time>2026-04-23T01:21:06Z</time></trkpt><trkpt lat="59.0947435889" lon="30.0004210789"><ele>71.55</ele><time>2026-04-23T01:21:21Z</time></trkpt><trkpt lat="59.0947053675" lon="30.0001733936"><ele>72.50</ele><time>2026-04-23T01:21:33Z</time></trkpt><trkpt lat="59.0946441796" lon="29.9998343457"><ele>73.85</ele><time>2026-04-23T01:21:49Z</time></trkpt><trkpt lat="59.0945936367" lon="29.9995540548"><ele>75.08</ele><time>2026-04-23T01:22:02Z</time></trkpt><trkpt lat="59.0945658926" lon="29.9992941320"><ele>75.73</ele><time>2026-04-23T01:22:16Z</time></trkpt><trkpt lat="59.0945238993" lon="29.9990085606"><ele>75.70</ele><time>2026-04-23T01:22:31Z</time></trkpt><trkpt lat="59.0944705904" lon="29.9987321254"><ele>75.64</ele><time>2026-04-23T01:22:47Z</time></trkpt><trkpt lat="59.0944098216" lon="29.9983941671"><ele>75.23</ele><time>2026-04-23T01:23:05Z</time></trkpt><trkpt lat="59.0943368990" lon="29.9981748965"><ele>74.80</ele><time>2026-04-23T01:23:17Z</time></trkpt><trkpt lat="59.0943019465" lon="29.9978451524"><ele>76.50</ele><time>2026-04-23T01:23:34Z</time></trkpt><trkpt lat="59.0942382440" lon="29.9975240417"><ele>77.91</ele><time>2026-04-23T01:23:49Z</time></trkpt><trkpt lat="59.0942024533" lon="29.9973690603"><ele>78.56</ele><time>2026-04-23T01:24:07Z</time></trkpt><trkpt lat="59.0941981785" lon="29.9972661305"><ele>79.13</ele><time>2026-04-23T01:24:28Z</time></trkpt><trkpt lat="59.0941548441" lon="29.9968789704"><ele>79.50</ele><time>2026-04-23T01:24:48Z</time></trkpt><trkpt lat="59.0941193886" lon="29.9966596998"><ele>79.15</ele><time>2026-04-23T01:24:58Z</time></trkpt><trkpt lat="59.0940289479" lon="29.9962746352"><ele>78.57</ele><time>2026-04-23T01:25:16Z</time></trkpt><trkpt lat="59.0940009523" lon="29.9960114434"><ele>77.98</ele><time>2026-04-23T01:25:37Z</time></trkpt><trkpt lat="59.0939467214" lon="29.9957519397"><ele>75.98</ele><time>2026-04-23T01:25:52Z</time></trkpt><trkpt lat="59.0938954242" lon="29.9956095312"><ele>75.95</ele><time>2026-04-23T01:26:05Z</time></trkpt><trkpt lat="59.0938659199" lon="29.9953287374"><ele>75.22</ele><time>2026-04-23T01:26:18Z</time></trkpt><trkpt lat="59.0938193165" lon="29.9951348640"><ele>75.70</ele><time>2026-04-23T01:26:29Z</time></trkpt><trkpt lat="59.0937725455" lon="29.9949096423"><ele>76.07</ele><time>2026-04-23T01:26:43Z</time></trkpt><trkpt lat="59.0937324800" lon="29.9946558382"><ele>76.20</ele><time>2026-04-23T01:26:57Z</time></trkpt><trkpt lat="59.0936961863" lon="29.9943976756"><ele>76.01</ele><time>2026-04-23T01:27:11Z</time></trkpt><trkpt lat="59.0936646704" lon="29.9941744655"><ele>75.84</ele><time>2026-04-23T01:27:24Z</time></trkpt><trkpt lat="59.0936269518" lon="29.9939238466"><ele>75.39</ele><time>2026-04-23T01:27:39Z</time></trkpt><trkpt lat="59.0935637522" lon="29.9937293865"><ele>75.95</ele><time>2026-04-23T01:27:51Z</time></trkpt><trkpt lat="59.0935379360" lon="29.9936664384"><ele>75.72</ele><time>2026-04-23T01:27:55Z</time></trkpt><trkpt lat="59.0935126226" lon="29.9934968725"><ele>75.17</ele><time>2026-04-23T01:28:03Z</time></trkpt><trkpt lat="59.0934897400" lon="29.9933809508"><ele>74.91</ele><time>2026-04-23T01:28:10Z</time></trkpt><trkpt lat="59.0934231877" lon="29.9931175914"><ele>73.57</ele><time>2026-04-23T01:28:24Z</time></trkpt><trkpt lat="59.0934064239" lon="29.9930710718"><ele>74.20</ele><time>2026-04-23T01:28:45Z</time></trkpt><trkpt lat="59.0933845472" lon="29.9930307548"><ele>71.24</ele><time>2026-04-23T01:29:12Z</time></trkpt><trkpt lat="59.0933905821" lon="29.9930342752"><ele>72.91</ele><time>2026-04-23T01:29:40Z</time></trkpt><trkpt lat="59.0933985449" lon="29.9929210357"><ele>73.28</ele><time>2026-04-23T01:29:55Z</time></trkpt><trkpt lat="59.0933859721" lon="29.9926515575"><ele>72.87</ele><time>2026-04-23T01:30:09Z</time></trkpt><trkpt lat="59.0933275502" lon="29.9923400860"><ele>72.58</ele><time>2026-04-23T01:30:26Z</time></trkpt><trkpt lat="59.0932861436" lon="29.9921259284"><ele>71.62</ele><time>2026-04-23T01:30:38Z</time></trkpt><trkpt lat="59.0932453237" lon="29.9919024669"><ele>71.99</ele><time>2026-04-23T01:30:50Z</time></trkpt><trkpt lat="59.0932055935" lon="29.9916730542"><ele>71.96</ele><time>2026-04-23T01:31:04Z</time></trkpt><trkpt lat="59.0931489319" lon="29.9914681166"><ele>71.78</ele><time>2026-04-23T01:31:15Z</time></trkpt><trkpt lat="59.0931203496" lon="29.9912341777"><ele>70.60</ele><time>2026-04-23T01:31:28Z</time></trkpt><trkpt lat="59.0930590779" lon="29.9909687229"><ele>70.06</ele><time>2026-04-23T01:31:42Z</time></trkpt><trkpt lat="59.0929942857" lon="29.9907242227"><ele>69.10</ele><time>2026-04-23T01:31:55Z</time></trkpt><trkpt lat="59.0929440781" lon="29.9904149305"><ele>69.90</ele><time>2026-04-23T01:32:09Z</time></trkpt><trkpt lat="59.0929101314" lon="29.9901483860"><ele>69.77</ele><time>2026-04-23T01:32:24Z</time></trkpt><trkpt lat="59.0928424895" lon="29.9898335617"><ele>69.58</ele><time>2026-04-23T01:32:40Z</time></trkpt><trkpt lat="59.0927901864" lon="29.9895868823"><ele>70.30</ele><time>2026-04-23T01:32:52Z</time></trkpt><trkpt lat="59.0927841514" lon="29.9894786719"><ele>70.72</ele><time>2026-04-23T01:32:56Z</time></trkpt><trkpt lat="59.0927573293" lon="29.9892639276"><ele>71.06</ele><time>2026-04-23T01:33:08Z</time></trkpt><trkpt lat="59.0927345306" lon="29.9890133925"><ele>71.80</ele><time>2026-04-23T01:33:19Z</time></trkpt><trkpt lat="59.0927276574" lon="29.9889728241"><ele>71.81</ele><time>2026-04-23T01:33:21Z</time></trkpt><trkpt lat="59.0926966444" lon="29.9888216984"><ele>72.14</ele><time>2026-04-23T01:33:36Z</time></trkpt><trkpt lat="59.0926451795" lon="29.9885740969"><ele>71.30</ele><time>2026-04-23T01:33:49Z</time></trkpt><trkpt lat="59.0925927926" lon="29.9883257411"><ele>71.59</ele><time>2026-04-23T01:34:01Z</time></trkpt><trkpt lat="59.0925718378" lon="29.9882839993"><ele>71.82</ele><time>2026-04-23T01:34:03Z</time></trkpt><trkpt lat="59.0925196186" lon="29.9880135991"><ele>72.01</ele><time>2026-04-23T01:34:16Z</time></trkpt><trkpt lat="59.0924636275" lon="29.9879118428"><ele>71.05</ele><time>2026-04-23T01:34:31Z</time></trkpt><trkpt lat="59.0924644656" lon="29.9878768902"><ele>71.22</ele><time>2026-04-23T01:35:00Z</time></trkpt><trkpt lat="59.0924708359" lon="29.9878992699"><ele>71.37</ele><time>2026-04-23T01:35:30Z</time></trkpt><trkpt lat="59.0924609452" lon="29.9878076557"><ele>73.00</ele><time>2026-04-23T01:35:50Z</time></trkpt><trkpt lat="59.0924557485" lon="29.9878280237"><ele>72.46</ele><time>2026-04-23T01:36:05Z</time></trkpt><trkpt lat="59.0924664773" lon="29.9878771417"><ele>73.14</ele><time>2026-04-23T01:36:27Z</time></trkpt><trkpt lat="59.0924594365" lon="29.9878680892"><ele>73.49</ele><time>2026-04-23T01:36:58Z</time></trkpt><trkpt lat="59.0924729314" lon="29.9878714420"><ele>72.56</ele><time>2026-04-23T01:37:29Z</time></trkpt><trkpt lat="59.0924566705" lon="29.9878793210"><ele>71.33</ele><time>2026-04-23T01:38:37Z</time></trkpt></trkseg><trkseg><trkpt lat="59.0924553294" lon="29.9878755491"><ele>71.20</ele><time>2026-04-23T01:38:51Z</time></trkpt><trkpt lat="59.0924499650" lon="29.9878834281"><ele>72.06</ele><time>2026-04-23T01:39:26Z</time></trkpt><trkpt lat="59.0924508870" lon="29.9878857750"><ele>73.48</ele><time>2026-04-23T01:40:56Z</time></trkpt><trkpt lat="59.0924430918" lon="29.9878129363"><ele>73.39</ele><time>2026-04-23T01:42:08Z</time></trkpt><trkpt lat="59.0924448520" lon="29.9878153671"><ele>73.40</ele><time>2026-04-23T01:42:09Z</time></trkpt><trkpt lat="59.0924564190" lon="29.9877918977"><ele>72.53</ele><time>2026-04-23T01:42:23Z</time></trkpt><trkpt lat="59.0924398229" lon="29.9876815919"><ele>72.50</ele><time>2026-04-23T01:42:37Z</time></trkpt><trkpt lat="59.0924860910" lon="29.9877009541"><ele>72.57</ele><time>2026-04-23T01:42:49Z</time></trkpt><trkpt lat="59.0924560837" lon="29.9876859505"><ele>73.12</ele><time>2026-04-23T01:43:11Z</time></trkpt><trkpt lat="59.0924512222" lon="29.9876666721"><ele>73.18</ele><time>2026-04-23T01:43:33Z</time></trkpt><trkpt lat="59.0924349613" lon="29.9876545183"><ele>73.45</ele><time>2026-04-23T01:43:51Z</time></trkpt><trkpt lat="59.0923213866" lon="29.9870081898"><ele>74.25</ele><time>2026-04-23T01:44:12Z</time></trkpt><trkpt lat="59.0922005195" lon="29.9861927982"><ele>75.53</ele><time>2026-04-23T01:44:37Z</time></trkpt><trkpt lat="59.0922332928" lon="29.9855590425"><ele>75.75</ele><time>2026-04-23T01:44:53Z</time></trkpt><trkpt lat="59.0923063830" lon="29.9848313257"><ele>75.87</ele><time>2026-04-23T01:45:14Z</time></trkpt><trkpt lat="59.0923521481" lon="29.9842203688"><ele>76.22</ele><time>2026-04-23T01:45:31Z</time></trkpt><trkpt lat="59.0924157668" lon="29.9835588690"><ele>76.89</ele><time>2026-04-23T01:45:47Z</time></trkpt><trkpt lat="59.0924782958" lon="29.9828606565"><ele>76.71</ele><time>2026-04-23T01:46:03Z</time></trkpt><trkpt lat="59.0925712511" lon="29.9820796307"><ele>77.59</ele><time>2026-04-23T01:46:21Z</time></trkpt><trkpt lat="59.0926224645" lon="29.9815037940"><ele>77.91</ele><time>2026-04-23T01:46:35Z</time></trkpt><trkpt lat="59.0926782880" lon="29.9808710441"><ele>77.94</ele><time>2026-04-23T01:46:53Z</time></trkpt><trkpt lat="59.0927305911" lon="29.9804122187"><ele>78.56</ele><time>2026-04-23T01:47:06Z</time></trkpt><trkpt lat="59.0927922819" lon="29.9797795527"><ele>79.36</ele><time>2026-04-23T01:47:22Z</time></trkpt><trkpt lat="59.0928612649" lon="29.9789822660"><ele>79.38</ele><time>2026-04-23T01:47:38Z</time></trkpt><trkpt lat="59.0929456707" lon="29.9781751726"><ele>79.14</ele><time>2026-04-23T01:47:53Z</time></trkpt><trkpt lat="59.0930494387" lon="29.9771835934"><ele>79.55</ele><time>2026-04-23T01:48:10Z</time></trkpt><trkpt lat="59.0931635164" lon="29.9759758450"><ele>81.12</ele><time>2026-04-23T01:48:30Z</time></trkpt><trkpt lat="59.0931684617" lon="29.9759256374"><ele>81.14</ele><time>2026-04-23T01:48:31Z</time></trkpt><trkpt lat="59.0932303201" lon="29.9758382980"><ele>80.88</ele><time>2026-04-23T01:48:35Z</time></trkpt><trkpt lat="59.0937276185" lon="29.9759101309"><ele>79.87</ele><time>2026-04-23T01:48:49Z</time></trkpt><trkpt lat="59.0944954846" lon="29.9760187604"><ele>80.53</ele><time>2026-04-23T01:49:10Z</time></trkpt><trkpt lat="59.0949986503" lon="29.9760000687"><ele>79.47</ele><time>2026-04-23T01:49:27Z</time></trkpt><trkpt lat="59.0953499358" lon="29.9759765994"><ele>79.88</ele><time>2026-04-23T01:49:39Z</time></trkpt><trkpt lat="59.0958998725" lon="29.9760055169"><ele>79.61</ele><time>2026-04-23T01:49:55Z</time></trkpt><trkpt lat="59.0964461211" lon="29.9762446526"><ele>77.42</ele><time>2026-04-23T01:50:13Z</time></trkpt><trkpt lat="59.0968391486" lon="29.9763538688"><ele>76.52</ele><time>2026-04-23T01:50:28Z</time></trkpt><trkpt lat="59.0974466689" lon="29.9765533581"><ele>76.81</ele><time>2026-04-23T01:50:46Z</time></trkpt><trkpt lat="59.0979331546" lon="29.9767139554"><ele>78.75</ele><time>2026-04-23T01:51:02Z</time></trkpt><trkpt lat="59.0982415248" lon="29.9768249318"><ele>79.02</ele><time>2026-04-23T01:51:15Z</time></trkpt><trkpt lat="59.0985524934" lon="29.9769252632"><ele>79.09</ele><time>2026-04-23T01:51:28Z</time></trkpt><trkpt lat="59.0988889430" lon="29.9770160392"><ele>78.52</ele><time>2026-04-23T01:51:41Z</time></trkpt><trkpt lat="59.0992181841" lon="29.9771272670"><ele>77.65</ele><time>2026-04-23T01:51:55Z</time></trkpt><trkpt lat="59.0995080303" lon="29.9772007763"><ele>76.35</ele><time>2026-04-23T01:52:09Z</time></trkpt><trkpt lat="59.0998347569" lon="29.9772891216"><ele>76.80</ele><time>2026-04-23T01:52:24Z</time></trkpt><trkpt lat="59.1001882218" lon="29.9774101563"><ele>75.67</ele><time>2026-04-23T01:52:39Z</time></trkpt><trkpt lat="59.1006867774" lon="29.9775870983"><ele>75.57</ele><time>2026-04-23T01:52:57Z</time></trkpt><trkpt lat="59.1010393202" lon="29.9776978232"><ele>75.27</ele><time>2026-04-23T01:53:12Z</time></trkpt><trkpt lat="59.1014319286" lon="29.9778269883"><ele>75.22</ele><time>2026-04-23T01:53:28Z</time></trkpt><trkpt lat="59.1018323321" lon="29.9779240508"><ele>75.64</ele><time>2026-04-23T01:53:43Z</time></trkpt><trkpt lat="59.1021317337" lon="29.9781125598"><ele>75.55</ele><time>2026-04-23T01:53:58Z</time></trkpt><trkpt lat="59.1022644192" lon="29.9782472569"><ele>76.20</ele><time>2026-04-23T01:54:12Z</time></trkpt><trkpt lat="59.1022672690" lon="29.9782433175"><ele>76.08</ele><time>2026-04-23T01:54:50Z</time></trkpt><trkpt lat="59.1022860445" lon="29.9781809561"><ele>75.53</ele><time>2026-04-23T01:55:12Z</time></trkpt><trkpt lat="59.1022323165" lon="29.9781950377"><ele>75.75</ele><time>2026-04-23T01:55:29Z</time></trkpt><trkpt lat="59.1022333223" lon="29.9782028329"><ele>74.86</ele><time>2026-04-23T01:56:04Z</time></trkpt><trkpt lat="59.1022232641" lon="29.9781965464"><ele>73.97</ele><time>2026-04-23T01:56:43Z</time></trkpt><trkpt lat="59.1022109427" lon="29.9781946186"><ele>73.70</ele><time>2026-04-23T01:57:19Z</time></trkpt><trkpt lat="59.1021566279" lon="29.9782267213"><ele>74.47</ele><time>2026-04-23T01:57:42Z</time></trkpt><trkpt lat="59.1020919196" lon="29.9782898370"><ele>73.56</ele><time>2026-04-23T01:57:58Z</time></trkpt><trkpt lat="59.1020833701" lon="29.9783182517"><ele>74.09</ele><time>2026-04-23T01:58:35Z</time></trkpt><trkpt lat="59.1020749882" lon="29.9782834668"><ele>73.58</ele><time>2026-04-23T01:58:52Z</time></trkpt><trkpt lat="59.1020640917" lon="29.9781943671"><ele>78.98</ele><time>2026-04-23T02:09:57Z</time></trkpt><trkpt lat="59.1020657681" lon="29.9782650266"><ele>77.78</ele><time>2026-04-23T02:10:00Z</time></trkpt><trkpt lat="59.1020794306" lon="29.9782855622"><ele>72.41</ele><time>2026-04-23T02:10:02Z</time></trkpt></trkseg><trkseg><trkpt lat="59.8400460742" lon="30.3890575748"><ele>37.31</ele><time>2026-04-23T13:06:47Z</time></trkpt><trkpt lat="59.8400799371" lon="30.3890990652"><ele>33.99</ele><time>2026-04-23T13:07:07Z</time></trkpt><trkpt lat="59.8400902469" lon="30.3891182598"><ele>32.99</ele><time>2026-04-23T13:07:33Z</time></trkpt><trkpt lat="59.8400331661" lon="30.3890579939"><ele>38.75</ele><time>2026-04-23T13:08:01Z</time></trkpt><trkpt lat="59.8400378600" lon="30.3890475165"><ele>41.47</ele><time>2026-04-23T13:08:33Z</time></trkpt><trkpt lat="59.8400404584" lon="30.3890676331"><ele>41.36</ele><time>2026-04-23T13:08:37Z</time></trkpt></trkseg><trkseg><trkpt lat="59.1135937348" lon="30.0707980525"><ele>63.87</ele><time>2026-04-23T16:05:48Z</time></trkpt><trkpt lat="59.1135179624" lon="30.0705929473"><ele>85.41</ele><time>2026-04-23T16:06:02Z</time></trkpt><trkpt lat="59.1135151964" lon="30.0705759320"><ele>82.35</ele><time>2026-04-23T16:06:19Z</time></trkpt><trkpt lat="59.1134018730" lon="30.0705763511"><ele>76.43</ele><time>2026-04-23T16:06:53Z</time></trkpt><trkpt lat="59.1134165414" lon="30.0705591682"><ele>75.04</ele><time>2026-04-23T16:07:25Z</time></trkpt><trkpt lat="59.1134317964" lon="30.0705866609"><ele>71.61</ele><time>2026-04-23T16:08:01Z</time></trkpt><trkpt lat="59.1134774778" lon="30.0706491899"><ele>76.92</ele><time>2026-04-23T16:08:35Z</time></trkpt><trkpt lat="59.1134549305" lon="30.0705955457"><ele>75.70</ele><time>2026-04-23T16:09:11Z</time></trkpt><trkpt lat="59.1134228278" lon="30.0705825537"><ele>76.05</ele><time>2026-04-23T16:09:58Z</time></trkpt><trkpt lat="59.1134393401" lon="30.0706067774"><ele>77.45</ele><time>2026-04-23T16:10:45Z</time></trkpt><trkpt lat="59.1134708561" lon="30.0706252176"><ele>75.07</ele><time>2026-04-23T16:11:24Z</time></trkpt><trkpt lat="59.1134634800" lon="30.0705794524"><ele>71.66</ele><time>2026-04-23T16:11:56Z</time></trkpt><trkpt lat="59.1134661622" lon="30.0705724955"><ele>70.93</ele><time>2026-04-23T16:12:34Z</time></trkpt><trkpt lat="59.1134745441" lon="30.0705602579"><ele>72.35</ele><time>2026-04-23T16:13:10Z</time></trkpt><trkpt lat="59.1134713590" lon="30.0705978926"><ele>77.92</ele><time>2026-04-23T16:13:53Z</time></trkpt><trkpt lat="59.1134906374" lon="30.0706472620"><ele>78.83</ele><time>2026-04-23T16:14:31Z</time></trkpt><trkpt lat="59.1134849377" lon="30.0706702285"><ele>81.72</ele><time>2026-04-23T16:15:10Z</time></trkpt><trkpt lat="59.1134663299" lon="30.0706369523"><ele>80.77</ele><time>2026-04-23T16:15:36Z</time></trkpt><trkpt lat="59.1135010310" lon="30.0706263911"><ele>79.90</ele><time>2026-04-23T16:16:04Z</time></trkpt><trkpt lat="59.1135014500" lon="30.0706331804"><ele>79.69</ele><time>2026-04-23T16:16:34Z</time></trkpt><trkpt lat="59.1134490632" lon="30.0706000719"><ele>80.36</ele><time>2026-04-23T16:17:12Z</time></trkpt><trkpt lat="59.1134418547" lon="30.0706283189"><ele>78.19</ele><time>2026-04-23T16:17:50Z</time></trkpt><trkpt lat="59.1134719457" lon="30.0706236251"><ele>73.84</ele><time>2026-04-23T16:18:22Z</time></trkpt><trkpt lat="59.1134932358" lon="30.0705734175"><ele>73.09</ele><time>2026-04-23T16:18:49Z</time></trkpt><trkpt lat="59.1134896316" lon="30.0706131477"><ele>72.00</ele><time>2026-04-23T16:19:20Z</time></trkpt><trkpt lat="59.1133690998" lon="30.0706230383"><ele>78.94</ele><time>2026-04-23T16:20:08Z</time></trkpt><trkpt lat="59.1134254262" lon="30.0705754291"><ele>76.54</ele><time>2026-04-23T16:20:48Z</time></trkpt><trkpt lat="59.1134399269" lon="30.0705860741"><ele>73.75</ele><time>2026-04-23T16:21:20Z</time></trkpt><trkpt lat="59.1134137753" lon="30.0705852360"><ele>72.45</ele><time>2026-04-23T16:21:43Z</time></trkpt><trkpt lat="59.1134418547" lon="30.0705868285"><ele>73.89</ele><time>2026-04-23T16:22:05Z</time></trkpt><trkpt lat="59.1134482250" lon="30.0705933664"><ele>72.97</ele><time>2026-04-23T16:22:24Z</time></trkpt><trkpt lat="59.1134323832" lon="30.0706571527"><ele>73.78</ele><time>2026-04-23T16:22:42Z</time></trkpt><trkpt lat="59.1134412680" lon="30.0706129801"><ele>72.36</ele><time>2026-04-23T16:23:03Z</time></trkpt><trkpt lat="59.1134079918" lon="30.0706746709"><ele>72.04</ele><time>2026-04-23T16:23:20Z</time></trkpt><trkpt lat="59.1134392563" lon="30.0706201885"><ele>70.14</ele><time>2026-04-23T16:23:40Z</time></trkpt><trkpt lat="59.1134384181" lon="30.0705783628"><ele>65.84</ele><time>2026-04-23T16:24:07Z</time></trkpt><trkpt lat="59.1133828461" lon="30.0707131438"><ele>66.73</ele><time>2026-04-23T16:24:18Z</time></trkpt><trkpt lat="59.1133605503" lon="30.0708435662"><ele>67.30</ele><time>2026-04-23T16:24:32Z</time></trkpt><trkpt lat="59.1133302916" lon="30.0709249545"><ele>67.22</ele><time>2026-04-23T16:24:37Z</time></trkpt><trkpt lat="59.1131759807" lon="30.0712164771"><ele>67.61</ele><time>2026-04-23T16:24:53Z</time></trkpt><trkpt lat="59.1130610649" lon="30.0714803394"><ele>66.99</ele><time>2026-04-23T16:25:07Z</time></trkpt><trkpt lat="59.1129578836" lon="30.0716934912"><ele>66.71</ele><time>2026-04-23T16:25:19Z</time></trkpt><trkpt lat="59.1128644254" lon="30.0718975905"><ele>65.43</ele><time>2026-04-23T16:25:32Z</time></trkpt><trkpt lat="59.1127543710" lon="30.0721241534"><ele>64.61</ele><time>2026-04-23T16:25:45Z</time></trkpt><trkpt lat="59.1126358509" lon="30.0724248961"><ele>63.92</ele><time>2026-04-23T16:25:59Z</time></trkpt><trkpt lat="59.1124852281" lon="30.0727257226"><ele>61.83</ele><time>2026-04-23T16:26:17Z</time></trkpt><trkpt lat="59.1123790294" lon="30.0729032513"><ele>63.73</ele><time>2026-04-23T16:26:27Z</time></trkpt><trkpt lat="59.1122332681" lon="30.0731719751"><ele>64.93</ele><time>2026-04-23T16:26:42Z</time></trkpt><trkpt lat="59.1121011693" lon="30.0734769925"><ele>65.18</ele><time>2026-04-23T16:26:58Z</time></trkpt><trkpt lat="59.1119933780" lon="30.0737103447"><ele>66.36</ele><time>2026-04-23T16:27:11Z</time></trkpt><trkpt lat="59.1118540708" lon="30.0739819184"><ele>65.81</ele><time>2026-04-23T16:27:26Z</time></trkpt><trkpt lat="59.1117234807" lon="30.0743081421"><ele>67.72</ele><time>2026-04-23T16:27:40Z</time></trkpt><trkpt lat="59.1116309445" lon="30.0744665600"><ele>68.53</ele><time>2026-04-23T16:27:51Z</time></trkpt><trkpt lat="59.1115196329" lon="30.0747130718"><ele>68.26</ele><time>2026-04-23T16:28:04Z</time></trkpt><trkpt lat="59.1114081535" lon="30.0750000682"><ele>67.42</ele><time>2026-04-23T16:28:20Z</time></trkpt><trkpt lat="59.1112844367" lon="30.0751700532"><ele>66.84</ele><time>2026-04-23T16:28:31Z</time></trkpt><trkpt lat="59.1111833509" lon="30.0754233543"><ele>66.96</ele><time>2026-04-23T16:28:47Z</time></trkpt><trkpt lat="59.1110839415" lon="30.0756994542"><ele>67.27</ele><time>2026-04-23T16:29:01Z</time></trkpt><trkpt lat="59.1109708697" lon="30.0758809224"><ele>64.73</ele><time>2026-04-23T16:29:14Z</time></trkpt><trkpt lat="59.1108257789" lon="30.0761956628"><ele>64.59</ele><time>2026-04-23T16:29:32Z</time></trkpt><trkpt lat="59.1107181553" lon="30.0764359720"><ele>64.17</ele><time>2026-04-23T16:29:45Z</time></trkpt><trkpt lat="59.1106092744" lon="30.0767166819"><ele>64.27</ele><time>2026-04-23T16:30:01Z</time></trkpt><trkpt lat="59.1105396207" lon="30.0768675562"><ele>63.55</ele><time>2026-04-23T16:30:14Z</time></trkpt><trkpt lat="59.1104336735" lon="30.0770744216"><ele>62.24</ele><time>2026-04-23T16:30:28Z</time></trkpt><trkpt lat="59.1102878284" lon="30.0773016550"><ele>62.50</ele><time>2026-04-23T16:30:41Z</time></trkpt><trkpt lat="59.1101620998" lon="30.0775677804"><ele>62.99</ele><time>2026-04-23T16:30:55Z</time></trkpt><trkpt lat="59.1100668814" lon="30.0777614862"><ele>65.12</ele><time>2026-04-23T16:31:05Z</time></trkpt><trkpt lat="59.1099443380" lon="30.0780029688"><ele>64.19</ele><time>2026-04-23T16:31:21Z</time></trkpt><trkpt lat="59.1097871773" lon="30.0782797392"><ele>65.20</ele><time>2026-04-23T16:31:36Z</time></trkpt><trkpt lat="59.1096790507" lon="30.0785236526"><ele>63.06</ele><time>2026-04-23T16:31:50Z</time></trkpt><trkpt lat="59.1095766239" lon="30.0786872674"><ele>63.91</ele><time>2026-04-23T16:32:02Z</time></trkpt><trkpt lat="59.1094259173" lon="30.0789454300"><ele>63.65</ele><time>2026-04-23T16:32:17Z</time></trkpt><trkpt lat="59.1092791501" lon="30.0792062748"><ele>65.01</ele><time>2026-04-23T16:32:33Z</time></trkpt><trkpt lat="59.1092565190" lon="30.0792419817"><ele>65.04</ele><time>2026-04-23T16:32:35Z</time></trkpt><trkpt lat="59.1091505717" lon="30.0794559717"><ele>64.31</ele><time>2026-04-23T16:32:46Z</time></trkpt><trkpt lat="59.1090687644" lon="30.0796395354"><ele>64.97</ele><time>2026-04-23T16:32:58Z</time></trkpt><trkpt lat="59.1089532617" lon="30.0798566267"><ele>62.72</ele><time>2026-04-23T16:33:12Z</time></trkpt><trkpt lat="59.1088182293" lon="30.0800815970"><ele>63.06</ele><time>2026-04-23T16:33:26Z</time></trkpt><trkpt lat="59.1087665968" lon="30.0801733788"><ele>63.53</ele><time>2026-04-23T16:33:32Z</time></trkpt><trkpt lat="59.1086574644" lon="30.0803967565"><ele>62.85</ele><time>2026-04-23T16:33:45Z</time></trkpt><trkpt lat="59.1085873917" lon="30.0806438550"><ele>63.24</ele><time>2026-04-23T16:34:00Z</time></trkpt><trkpt lat="59.1084649321" lon="30.0808209646"><ele>63.30</ele><time>2026-04-23T16:34:14Z</time></trkpt><trkpt lat="59.1083819512" lon="30.0809866749"><ele>63.14</ele><time>2026-04-23T16:34:24Z</time></trkpt><trkpt lat="59.1082335915" lon="30.0812176801"><ele>63.66</ele><time>2026-04-23T16:34:39Z</time></trkpt><trkpt lat="59.1081611719" lon="30.0812332705"><ele>63.61</ele><time>2026-04-23T16:34:45Z</time></trkpt><trkpt lat="59.1080287378" lon="30.0811001658"><ele>62.24</ele><time>2026-04-23T16:35:00Z</time></trkpt><trkpt lat="59.1079200245" lon="30.0810468569"><ele>61.31</ele><time>2026-04-23T16:35:09Z</time></trkpt><trkpt lat="59.1077711619" lon="30.0809622835"><ele>61.84</ele><time>2026-04-23T16:35:24Z</time></trkpt><trkpt lat="59.1077377182" lon="30.0809143391"><ele>61.79</ele><time>2026-04-23T16:35:34Z</time></trkpt><trkpt lat="59.1076426674" lon="30.0807605311"><ele>63.09</ele><time>2026-04-23T16:35:47Z</time></trkpt><trkpt lat="59.1076054517" lon="30.0806807354"><ele>63.45</ele><time>2026-04-23T16:36:02Z</time></trkpt><trkpt lat="59.1075854190" lon="30.0806540810"><ele>64.35</ele><time>2026-04-23T16:36:21Z</time></trkpt><trkpt lat="59.1075338703" lon="30.0804921426"><ele>64.27</ele><time>2026-04-23T16:36:48Z</time></trkpt><trkpt lat="59.1074375622" lon="30.0802851934"><ele>65.59</ele><time>2026-04-23T16:37:03Z</time></trkpt><trkpt lat="59.1073521506" lon="30.0800901465"><ele>65.22</ele><time>2026-04-23T16:37:18Z</time></trkpt><trkpt lat="59.1072850954" lon="30.0799416192"><ele>66.42</ele><time>2026-04-23T16:37:29Z</time></trkpt><trkpt lat="59.1071631387" lon="30.0797837880"><ele>64.60</ele><time>2026-04-23T16:37:46Z</time></trkpt><trkpt lat="59.1070383321" lon="30.0796627533"><ele>64.42</ele><time>2026-04-23T16:38:01Z</time></trkpt><trkpt lat="59.1069232486" lon="30.0795893278"><ele>64.24</ele><time>2026-04-23T16:38:12Z</time></trkpt><trkpt lat="59.1067687701" lon="30.0794883259"><ele>64.21</ele><time>2026-04-23T16:38:26Z</time></trkpt><trkpt lat="59.1066767368" lon="30.0793626811"><ele>63.76</ele><time>2026-04-23T16:38:37Z</time></trkpt><trkpt lat="59.1065850388" lon="30.0790337753"><ele>63.33</ele><time>2026-04-23T16:38:54Z</time></trkpt><trkpt lat="59.1065658443" lon="30.0790039357"><ele>63.13</ele><time>2026-04-23T16:39:09Z</time></trkpt><trkpt lat="59.1065677721" lon="30.0788636226"><ele>63.43</ele><time>2026-04-23T16:39:26Z</time></trkpt><trkpt lat="59.1065435484" lon="30.0786176976"><ele>63.03</ele><time>2026-04-23T16:39:41Z</time></trkpt><trkpt lat="59.1065262817" lon="30.0783732813"><ele>63.05</ele><time>2026-04-23T16:39:57Z</time></trkpt><trkpt lat="59.1065050755" lon="30.0781158730"><ele>64.45</ele><time>2026-04-23T16:40:19Z</time></trkpt><trkpt lat="59.1064870544" lon="30.0780112669"><ele>65.24</ele><time>2026-04-23T16:40:40Z</time></trkpt><trkpt lat="59.1064858809" lon="30.0779870432"><ele>66.08</ele><time>2026-04-23T16:41:15Z</time></trkpt><trkpt lat="59.1064831987" lon="30.0779548567"><ele>65.65</ele><time>2026-04-23T16:41:56Z</time></trkpt><trkpt lat="59.1064851265" lon="30.0779509172"><ele>66.08</ele><time>2026-04-23T16:42:18Z</time></trkpt><trkpt lat="59.1065305565" lon="30.0779608916"><ele>67.46</ele><time>2026-04-23T16:43:12Z</time></trkpt><trkpt lat="59.1064719670" lon="30.0777374301"><ele>67.03</ele><time>2026-04-23T16:43:31Z</time></trkpt><trkpt lat="59.1064789239" lon="30.0775234401"><ele>67.10</ele><time>2026-04-23T16:43:43Z</time></trkpt><trkpt lat="59.1064828634" lon="30.0774459913"><ele>66.48</ele><time>2026-04-23T16:43:47Z</time></trkpt><trkpt lat="59.1064824443" lon="30.0772787724"><ele>66.54</ele><time>2026-04-23T16:43:57Z</time></trkpt><trkpt lat="59.1064980347" lon="30.0770856533"><ele>66.79</ele><time>2026-04-23T16:44:11Z</time></trkpt><trkpt lat="59.1065209173" lon="30.0768968929"><ele>66.73</ele><time>2026-04-23T16:44:21Z</time></trkpt><trkpt lat="59.1065138765" lon="30.0768343639"><ele>66.99</ele><time>2026-04-23T16:44:26Z</time></trkpt><trkpt lat="59.1064571310" lon="30.0765885226"><ele>67.72</ele><time>2026-04-23T16:44:37Z</time></trkpt><trkpt lat="59.1064770799" lon="30.0764679909"><ele>67.22</ele><time>2026-04-23T16:44:47Z</time></trkpt><trkpt lat="59.1064978670" lon="30.0764082279"><ele>67.48</ele><time>2026-04-23T16:44:50Z</time></trkpt><trkpt lat="59.1065225936" lon="30.0763933919"><ele>67.53</ele><time>2026-04-23T16:44:52Z</time></trkpt><trkpt lat="59.1066151299" lon="30.0763467886"><ele>66.99</ele><time>2026-04-23T16:45:04Z</time></trkpt><trkpt lat="59.1066159680" lon="30.0763120875"><ele>67.38</ele><time>2026-04-23T16:45:33Z</time></trkpt><trkpt lat="59.1066200752" lon="30.0763098244"><ele>68.20</ele><time>2026-04-23T16:46:13Z</time></trkpt><trkpt lat="59.1065871343" lon="30.0763859320"><ele>68.09</ele><time>2026-04-23T16:46:30Z</time></trkpt><trkpt lat="59.1065120324" lon="30.0764324516"><ele>67.48</ele><time>2026-04-23T16:46:47Z</time></trkpt><trkpt lat="59.1064325720" lon="30.0764950644"><ele>69.55</ele><time>2026-04-23T16:47:10Z</time></trkpt><trkpt lat="59.1064246930" lon="30.0764845870"><ele>69.61</ele><time>2026-04-23T16:47:56Z</time></trkpt><trkpt lat="59.1063262895" lon="30.0762585271"><ele>69.17</ele><time>2026-04-23T16:48:10Z</time></trkpt><trkpt lat="59.1063035745" lon="30.0762002729"><ele>68.43</ele><time>2026-04-23T16:48:15Z</time></trkpt><trkpt lat="59.1062024888" lon="30.0759903900"><ele>66.24</ele><time>2026-04-23T16:48:32Z</time></trkpt><trkpt lat="59.1061335895" lon="30.0757819321"><ele>67.20</ele><time>2026-04-23T16:48:45Z</time></trkpt><trkpt lat="59.1061211843" lon="30.0757090934"><ele>67.35</ele><time>2026-04-23T16:48:51Z</time></trkpt><trkpt lat="59.1060700547" lon="30.0754857995"><ele>66.28</ele><time>2026-04-23T16:49:03Z</time></trkpt><trkpt lat="59.1059896722" lon="30.0752529502"><ele>66.61</ele><time>2026-04-23T16:49:16Z</time></trkpt><trkpt lat="59.1059211921" lon="30.0749823824"><ele>67.86</ele><time>2026-04-23T16:49:31Z</time></trkpt><trkpt lat="59.1058743373" lon="30.0747782830"><ele>67.84</ele><time>2026-04-23T16:49:42Z</time></trkpt><trkpt lat="59.1058244649" lon="30.0745750219"><ele>67.96</ele><time>2026-04-23T16:49:54Z</time></trkpt><trkpt lat="59.1057810467" lon="30.0744509697"><ele>67.42</ele><time>2026-04-23T16:50:01Z</time></trkpt><trkpt lat="59.1057112254" lon="30.0742938928"><ele>66.65</ele><time>2026-04-23T16:50:12Z</time></trkpt><trkpt lat="59.1056736745" lon="30.0741971657"><ele>65.35</ele><time>2026-04-23T16:50:24Z</time></trkpt><trkpt lat="59.1056848224" lon="30.0741478801"><ele>65.26</ele><time>2026-04-23T16:50:39Z</time></trkpt><trkpt lat="59.1056963895" lon="30.0741626322"><ele>67.33</ele><time>2026-04-23T16:50:57Z</time></trkpt><trkpt lat="59.1056612693" lon="30.0742226467"><ele>67.58</ele><time>2026-04-23T16:51:14Z</time></trkpt><trkpt lat="59.1056613531" lon="30.0741849281"><ele>67.01</ele><time>2026-04-23T16:51:28Z</time></trkpt><trkpt lat="59.1055944655" lon="30.0739913899"><ele>66.80</ele><time>2026-04-23T16:51:40Z</time></trkpt><trkpt lat="59.1055263206" lon="30.0737779867"><ele>66.20</ele><time>2026-04-23T16:51:54Z</time></trkpt><trkpt lat="59.1055061202" lon="30.0737459678"><ele>66.28</ele><time>2026-04-23T16:51:57Z</time></trkpt><trkpt lat="59.1054182779" lon="30.0734657608"><ele>66.61</ele><time>2026-04-23T16:52:11Z</time></trkpt><trkpt lat="59.1053669807" lon="30.0733382721"><ele>66.34</ele><time>2026-04-23T16:52:18Z</time></trkpt><trkpt lat="59.1052376479" lon="30.0732159801"><ele>66.25</ele><time>2026-04-23T16:52:33Z</time></trkpt><trkpt lat="59.1052428447" lon="30.0732384436"><ele>65.75</ele><time>2026-04-23T16:52:55Z</time></trkpt><trkpt lat="59.1052237339" lon="30.0733351707"><ele>65.31</ele><time>2026-04-23T16:53:09Z</time></trkpt><trkpt lat="59.1052530706" lon="30.0733208377"><ele>68.53</ele><time>2026-04-23T16:53:59Z</time></trkpt><trkpt lat="59.1051911283" lon="30.0732012279"><ele>67.96</ele><time>2026-04-23T16:54:21Z</time></trkpt><trkpt lat="59.1050785594" lon="30.0731359329"><ele>67.76</ele><time>2026-04-23T16:54:34Z</time></trkpt><trkpt lat="59.1050624661" lon="30.0731223542"><ele>68.28</ele><time>2026-04-23T16:54:36Z</time></trkpt><trkpt lat="59.1049447842" lon="30.0730505213"><ele>68.47</ele><time>2026-04-23T16:54:49Z</time></trkpt><trkpt lat="59.1049317922" lon="30.0730336737"><ele>67.45</ele><time>2026-04-23T16:54:52Z</time></trkpt><trkpt lat="59.1049512383" lon="30.0730414689"><ele>67.32</ele><time>2026-04-23T16:55:07Z</time></trkpt><trkpt lat="59.1049260926" lon="30.0730464980"><ele>67.18</ele><time>2026-04-23T16:55:10Z</time></trkpt><trkpt lat="59.1048009507" lon="30.0729966257"><ele>68.30</ele><time>2026-04-23T16:55:22Z</time></trkpt><trkpt lat="59.1047989391" lon="30.0729998946"><ele>68.60</ele><time>2026-04-23T16:55:39Z</time></trkpt><trkpt lat="59.1049008630" lon="30.0730132218"><ele>68.37</ele><time>2026-04-23T16:55:45Z</time></trkpt><trkpt lat="59.1049684212" lon="30.0729918480"><ele>68.36</ele><time>2026-04-23T16:55:50Z</time></trkpt><trkpt lat="59.1050019488" lon="30.0729056820"><ele>68.14</ele><time>2026-04-23T16:55:57Z</time></trkpt><trkpt lat="59.1050515696" lon="30.0728669576"><ele>68.29</ele><time>2026-04-23T16:56:04Z</time></trkpt><trkpt lat="59.1050819959" lon="30.0726584997"><ele>67.77</ele><time>2026-04-23T16:56:18Z</time></trkpt><trkpt lat="59.1051311977" lon="30.0725110620"><ele>67.37</ele><time>2026-04-23T16:56:33Z</time></trkpt><trkpt lat="59.1051455308" lon="30.0724580884"><ele>67.31</ele><time>2026-04-23T16:56:43Z</time></trkpt><trkpt lat="59.1051560920" lon="30.0724844914"><ele>67.84</ele><time>2026-04-23T16:56:45Z</time></trkpt><trkpt lat="59.1051647253" lon="30.0726090465"><ele>67.77</ele><time>2026-04-23T16:56:52Z</time></trkpt><trkpt lat="59.1052335408" lon="30.0728034228"><ele>66.69</ele><time>2026-04-23T16:57:06Z</time></trkpt><trkpt lat="59.1052927170" lon="30.0728143193"><ele>66.31</ele><time>2026-04-23T16:57:12Z</time></trkpt><trkpt lat="59.1053337883" lon="30.0727576576"><ele>66.37</ele><time>2026-04-23T16:57:26Z</time></trkpt><trkpt lat="59.1053416673" lon="30.0727522932"><ele>67.78</ele><time>2026-04-23T16:57:58Z</time></trkpt><trkpt lat="59.1054278333" lon="30.0725735910"><ele>66.51</ele><time>2026-04-23T16:58:15Z</time></trkpt><trkpt lat="59.1054285876" lon="30.0724851619"><ele>66.55</ele><time>2026-04-23T16:58:26Z</time></trkpt><trkpt lat="59.1054243967" lon="30.0724686496"><ele>70.00</ele><time>2026-04-23T16:59:18Z</time></trkpt><trkpt lat="59.1054548230" lon="30.0724037737"><ele>70.11</ele><time>2026-04-23T16:59:32Z</time></trkpt><trkpt lat="59.1055243928" lon="30.0722290948"><ele>69.57</ele><time>2026-04-23T16:59:44Z</time></trkpt><trkpt lat="59.1055549867" lon="30.0721586868"><ele>69.07</ele><time>2026-04-23T17:00:24Z</time></trkpt><trkpt lat="59.1055418272" lon="30.0720027834"><ele>69.20</ele><time>2026-04-23T17:00:38Z</time></trkpt><trkpt lat="59.1056332737" lon="30.0717706885"><ele>69.78</ele><time>2026-04-23T17:00:55Z</time></trkpt><trkpt lat="59.1056354530" lon="30.0717535894"><ele>69.74</ele><time>2026-04-23T17:00:56Z</time></trkpt><trkpt lat="59.1056775302" lon="30.0716238376"><ele>69.51</ele><time>2026-04-23T17:01:09Z</time></trkpt><trkpt lat="59.1057024244" lon="30.0715029705"><ele>68.89</ele><time>2026-04-23T17:01:21Z</time></trkpt><trkpt lat="59.1057524644" lon="30.0714143738"><ele>68.28</ele><time>2026-04-23T17:01:33Z</time></trkpt><trkpt lat="59.1057595890" lon="30.0713915750"><ele>68.26</ele><time>2026-04-23T17:01:35Z</time></trkpt><trkpt lat="59.1057476867" lon="30.0712202489"><ele>66.99</ele><time>2026-04-23T17:01:46Z</time></trkpt><trkpt lat="59.1058047675" lon="30.0710867252"><ele>64.97</ele><time>2026-04-23T17:02:01Z</time></trkpt><trkpt lat="59.1058035940" lon="30.0708258804"><ele>65.54</ele><time>2026-04-23T17:02:19Z</time></trkpt><trkpt lat="59.1057410650" lon="30.0706762634"><ele>66.64</ele><time>2026-04-23T17:02:32Z</time></trkpt><trkpt lat="59.1057185177" lon="30.0705803744"><ele>68.02</ele><time>2026-04-23T17:02:45Z</time></trkpt><trkpt lat="59.1057449207" lon="30.0705916900"><ele>68.04</ele><time>2026-04-23T17:03:10Z</time></trkpt><trkpt lat="59.1057234630" lon="30.0705733337"><ele>66.23</ele><time>2026-04-23T17:03:59Z</time></trkpt><trkpt lat="59.1057217866" lon="30.0704072881"><ele>66.54</ele><time>2026-04-23T17:04:28Z</time></trkpt><trkpt lat="59.1057738382" lon="30.0702471938"><ele>66.75</ele><time>2026-04-23T17:04:41Z</time></trkpt><trkpt lat="59.1058890894" lon="30.0702233892"><ele>67.07</ele><time>2026-04-23T17:04:55Z</time></trkpt><trkpt lat="59.1059429850" lon="30.0700460281"><ele>68.28</ele><time>2026-04-23T17:05:10Z</time></trkpt><trkpt lat="59.1059240419" lon="30.0698845927"><ele>68.41</ele><time>2026-04-23T17:05:24Z</time></trkpt><trkpt lat="59.1060135607" lon="30.0698637217"><ele>68.84</ele><time>2026-04-23T17:05:49Z</time></trkpt><trkpt lat="59.1060835496" lon="30.0696689263"><ele>66.77</ele><time>2026-04-23T17:06:04Z</time></trkpt><trkpt lat="59.1061676200" lon="30.0695670862"><ele>67.09</ele><time>2026-04-23T17:06:15Z</time></trkpt><trkpt lat="59.1062375251" lon="30.0695272721"><ele>68.50</ele><time>2026-04-23T17:06:25Z</time></trkpt><trkpt lat="59.1062431410" lon="30.0694450457"><ele>67.84</ele><time>2026-04-23T17:06:59Z</time></trkpt><trkpt lat="59.1062362678" lon="30.0694458839"><ele>67.73</ele><time>2026-04-23T17:07:26Z</time></trkpt><trkpt lat="59.1062589828" lon="30.0693573710"><ele>65.74</ele><time>2026-04-23T17:07:49Z</time></trkpt><trkpt lat="59.1062965337" lon="30.0692785811"><ele>66.05</ele><time>2026-04-23T17:08:01Z</time></trkpt><trkpt lat="59.1063849628" lon="30.0692209974"><ele>66.30</ele><time>2026-04-23T17:08:19Z</time></trkpt><trkpt lat="59.1064286325" lon="30.0691125356"><ele>66.76</ele><time>2026-04-23T17:08:34Z</time></trkpt><trkpt lat="59.1064478271" lon="30.0690892339"><ele>67.15</ele><time>2026-04-23T17:09:03Z</time></trkpt><trkpt lat="59.1065087635" lon="30.0689481664"><ele>67.27</ele><time>2026-04-23T17:09:21Z</time></trkpt><trkpt lat="59.1065658443" lon="30.0689593982"><ele>67.99</ele><time>2026-04-23T17:09:45Z</time></trkpt><trkpt lat="59.1066220868" lon="30.0687540416"><ele>68.86</ele><time>2026-04-23T17:10:06Z</time></trkpt><trkpt lat="59.1066529322" lon="30.0686953682"><ele>69.49</ele><time>2026-04-23T17:10:16Z</time></trkpt><trkpt lat="59.1066360846" lon="30.0685370341"><ele>69.60</ele><time>2026-04-23T17:10:32Z</time></trkpt><trkpt lat="59.1066671815" lon="30.0683305878"><ele>70.07</ele><time>2026-04-23T17:10:49Z</time></trkpt><trkpt lat="59.1066985298" lon="30.0681110658"><ele>69.68</ele><time>2026-04-23T17:11:06Z</time></trkpt><trkpt lat="59.1067590471" lon="30.0679697469"><ele>70.19</ele><time>2026-04-23T17:11:18Z</time></trkpt><trkpt lat="59.1067338176" lon="30.0678464491"><ele>71.74</ele><time>2026-04-23T17:11:42Z</time></trkpt><trkpt lat="59.1067498270" lon="30.0678481255"><ele>73.55</ele><time>2026-04-23T17:12:24Z</time></trkpt><trkpt lat="59.1067527607" lon="30.0676982570"><ele>74.35</ele><time>2026-04-23T17:12:40Z</time></trkpt><trkpt lat="59.1067847796" lon="30.0675293617"><ele>75.02</ele><time>2026-04-23T17:12:53Z</time></trkpt><trkpt lat="59.1068675928" lon="30.0673127733"><ele>73.59</ele><time>2026-04-23T17:13:10Z</time></trkpt><trkpt lat="59.1069353186" lon="30.0672093406"><ele>74.18</ele><time>2026-04-23T17:13:25Z</time></trkpt><trkpt lat="59.1068871226" lon="30.0671879668"><ele>74.79</ele><time>2026-04-23T17:13:44Z</time></trkpt><trkpt lat="59.1068184748" lon="30.0670741405"><ele>74.68</ele><time>2026-04-23T17:14:03Z</time></trkpt><trkpt lat="59.1068573669" lon="30.0668926723"><ele>74.83</ele><time>2026-04-23T17:14:16Z</time></trkpt><trkpt lat="59.1069216561" lon="30.0667897426"><ele>74.70</ele><time>2026-04-23T17:14:30Z</time></trkpt><trkpt lat="59.1069152858" lon="30.0666965358"><ele>73.99</ele><time>2026-04-23T17:14:41Z</time></trkpt><trkpt lat="59.1068897210" lon="30.0665717293"><ele>74.55</ele><time>2026-04-23T17:14:52Z</time></trkpt><trkpt lat="59.1068199836" lon="30.0665320829"><ele>73.08</ele><time>2026-04-23T17:15:05Z</time></trkpt><trkpt lat="59.1068216600" lon="30.0663364492"><ele>72.29</ele><time>2026-04-23T17:15:21Z</time></trkpt><trkpt lat="59.1067788284" lon="30.0661798753"><ele>72.04</ele><time>2026-04-23T17:15:44Z</time></trkpt><trkpt lat="59.1067579575" lon="30.0662014168"><ele>72.09</ele><time>2026-04-23T17:16:08Z</time></trkpt><trkpt lat="59.1067576222" lon="30.0661094673"><ele>70.52</ele><time>2026-04-23T17:16:35Z</time></trkpt><trkpt lat="59.1067750566" lon="30.0660003349"><ele>70.69</ele><time>2026-04-23T17:17:01Z</time></trkpt><trkpt lat="59.1067668423" lon="30.0659075473"><ele>70.75</ele><time>2026-04-23T17:17:13Z</time></trkpt><trkpt lat="59.1067404393" lon="30.0657614507"><ele>70.45</ele><time>2026-04-23T17:17:31Z</time></trkpt><trkpt lat="59.1066185664" lon="30.0656550843"><ele>71.13</ele><time>2026-04-23T17:17:47Z</time></trkpt><trkpt lat="59.1065362561" lon="30.0654567685"><ele>69.43</ele><time>2026-04-23T17:18:02Z</time></trkpt><trkpt lat="59.1064751521" lon="30.0653087441"><ele>70.83</ele><time>2026-04-23T17:18:14Z</time></trkpt><trkpt lat="59.1064691171" lon="30.0651436206"><ele>71.07</ele><time>2026-04-23T17:18:36Z</time></trkpt><trkpt lat="59.1064614896" lon="30.0648790877"><ele>70.46</ele><time>2026-04-23T17:18:51Z</time></trkpt><trkpt lat="59.1064568795" lon="30.0647147186"><ele>70.30</ele><time>2026-04-23T17:19:11Z</time></trkpt><trkpt lat="59.1064478271" lon="30.0647518504"><ele>69.38</ele><time>2026-04-23T17:19:52Z</time></trkpt><trkpt lat="59.1064572986" lon="30.0647454802"><ele>69.38</ele><time>2026-04-23T17:20:02Z</time></trkpt><trkpt lat="59.1065174807" lon="30.0646857172"><ele>70.41</ele><time>2026-04-23T17:20:20Z</time></trkpt><trkpt lat="59.1064605676" lon="30.0645606592"><ele>70.65</ele><time>2026-04-23T17:20:40Z</time></trkpt><trkpt lat="59.1064721346" lon="30.0643024966"><ele>71.28</ele><time>2026-04-23T17:20:58Z</time></trkpt><trkpt lat="59.1065328196" lon="30.0641554780"><ele>71.27</ele><time>2026-04-23T17:21:10Z</time></trkpt><trkpt lat="59.1065387707" lon="30.0641254708"><ele>71.28</ele><time>2026-04-23T17:21:12Z</time></trkpt><trkpt lat="59.1065668501" lon="30.0639066193"><ele>70.76</ele><time>2026-04-23T17:21:24Z</time></trkpt><trkpt lat="59.1065865476" lon="30.0638512988"><ele>70.45</ele><time>2026-04-23T17:21:29Z</time></trkpt><trkpt lat="59.1065557860" lon="30.0636241492"><ele>71.72</ele><time>2026-04-23T17:21:42Z</time></trkpt><trkpt lat="59.1065149661" lon="30.0635503884"><ele>71.85</ele><time>2026-04-23T17:21:55Z</time></trkpt><trkpt lat="59.1064207535" lon="30.0634420943"><ele>72.58</ele><time>2026-04-23T17:22:07Z</time></trkpt><trkpt lat="59.1063253675" lon="30.0634211395"><ele>72.36</ele><time>2026-04-23T17:22:20Z</time></trkpt><trkpt lat="59.1062123794" lon="30.0634135958"><ele>71.60</ele><time>2026-04-23T17:22:38Z</time></trkpt><trkpt lat="59.1060995590" lon="30.0633563474"><ele>72.00</ele><time>2026-04-23T17:22:54Z</time></trkpt><trkpt lat="59.1060798615" lon="30.0633418467"><ele>72.41</ele><time>2026-04-23T17:23:10Z</time></trkpt><trkpt lat="59.1060888302" lon="30.0633362308"><ele>72.76</ele><time>2026-04-23T17:23:44Z</time></trkpt><trkpt lat="59.1059939470" lon="30.0632937346"><ele>71.93</ele><time>2026-04-23T17:24:06Z</time></trkpt><trkpt lat="59.1060009878" lon="30.0631111767"><ele>71.29</ele><time>2026-04-23T17:24:27Z</time></trkpt><trkpt lat="59.1059212759" lon="30.0629295409"><ele>71.57</ele><time>2026-04-23T17:24:41Z</time></trkpt><trkpt lat="59.1058308352" lon="30.0628000405"><ele>70.82</ele><time>2026-04-23T17:24:54Z</time></trkpt><trkpt lat="59.1057865787" lon="30.0627273694"><ele>69.87</ele><time>2026-04-23T17:25:10Z</time></trkpt><trkpt lat="59.1057054419" lon="30.0626118667"><ele>69.70</ele><time>2026-04-23T17:25:22Z</time></trkpt><trkpt lat="59.1056402307" lon="30.0625300594"><ele>69.41</ele><time>2026-04-23T17:25:30Z</time></trkpt><trkpt lat="59.1055727564" lon="30.0625824463"><ele>69.79</ele><time>2026-04-23T17:25:47Z</time></trkpt><trkpt lat="59.1055211239" lon="30.0624737330"><ele>70.39</ele><time>2026-04-23T17:26:01Z</time></trkpt><trkpt lat="59.1054103989" lon="30.0623984635"><ele>67.97</ele><time>2026-04-23T17:26:14Z</time></trkpt><trkpt lat="59.1053860914" lon="30.0622944441"><ele>68.91</ele><time>2026-04-23T17:26:28Z</time></trkpt><trkpt lat="59.1052945610" lon="30.0621075276"><ele>69.72</ele><time>2026-04-23T17:26:53Z</time></trkpt><trkpt lat="59.1052991711" lon="30.0620385446"><ele>70.16</ele><time>2026-04-23T17:27:34Z</time></trkpt><trkpt lat="59.1052406654" lon="30.0619786978"><ele>70.06</ele><time>2026-04-23T17:27:57Z</time></trkpt><trkpt lat="59.1051468719" lon="30.0618353672"><ele>69.80</ele><time>2026-04-23T17:28:12Z</time></trkpt><trkpt lat="59.1050659865" lon="30.0617711619"><ele>70.45</ele><time>2026-04-23T17:28:26Z</time></trkpt><trkpt lat="59.1050329618" lon="30.0618541427"><ele>70.44</ele><time>2026-04-23T17:28:40Z</time></trkpt><trkpt lat="59.1049140226" lon="30.0618868321"><ele>70.78</ele><time>2026-04-23T17:28:54Z</time></trkpt><trkpt lat="59.1048968397" lon="30.0618896820"><ele>70.69</ele><time>2026-04-23T17:29:04Z</time></trkpt><trkpt lat="59.1048384178" lon="30.0617565773"><ele>70.62</ele><time>2026-04-23T17:29:17Z</time></trkpt><trkpt lat="59.1048426926" lon="30.0615802221"><ele>71.41</ele><time>2026-04-23T17:29:34Z</time></trkpt><trkpt lat="59.1048119310" lon="30.0614398252"><ele>71.73</ele><time>2026-04-23T17:29:44Z</time></trkpt><trkpt lat="59.1048183851" lon="30.0611596182"><ele>71.70</ele><time>2026-04-23T17:29:58Z</time></trkpt><trkpt lat="59.1048354842" lon="30.0609564409"><ele>71.14</ele><time>2026-04-23T17:30:10Z</time></trkpt><trkpt lat="59.1048179660" lon="30.0608764775"><ele>71.59</ele><time>2026-04-23T17:30:16Z</time></trkpt><trkpt lat="59.1048028786" lon="30.0606511720"><ele>71.59</ele><time>2026-04-23T17:30:32Z</time></trkpt><trkpt lat="59.1047443729" lon="30.0603699591"><ele>71.06</ele><time>2026-04-23T17:30:48Z</time></trkpt><trkpt lat="59.1047387570" lon="30.0603174884"><ele>71.88</ele><time>2026-04-23T17:31:29Z</time></trkpt><trkpt lat="59.1047022957" lon="30.0602536183"><ele>72.30</ele><time>2026-04-23T17:32:02Z</time></trkpt><trkpt lat="59.1046015453" lon="30.0601109583"><ele>71.90</ele><time>2026-04-23T17:32:17Z</time></trkpt><trkpt lat="59.1045700293" lon="30.0598963816"><ele>71.70</ele><time>2026-04-23T17:32:33Z</time></trkpt><trkpt lat="59.1045243479" lon="30.0596888456"><ele>71.69</ele><time>2026-04-23T17:32:45Z</time></trkpt><trkpt lat="59.1044980288" lon="30.0595032703"><ele>70.47</ele><time>2026-04-23T17:32:57Z</time></trkpt><trkpt lat="59.1045565344" lon="30.0593046192"><ele>70.40</ele><time>2026-04-23T17:33:15Z</time></trkpt><trkpt lat="59.1045735497" lon="30.0592171960"><ele>70.33</ele><time>2026-04-23T17:33:24Z</time></trkpt><trkpt lat="59.1046273615" lon="30.0590606220"><ele>70.11</ele><time>2026-04-23T17:33:36Z</time></trkpt><trkpt lat="59.1046299599" lon="30.0590560958"><ele>70.02</ele><time>2026-04-23T17:33:37Z</time></trkpt><trkpt lat="59.1046386771" lon="30.0588636473"><ele>71.65</ele><time>2026-04-23T17:33:50Z</time></trkpt><trkpt lat="59.1046508308" lon="30.0587312970"><ele>71.82</ele><time>2026-04-23T17:34:02Z</time></trkpt><trkpt lat="59.1046700254" lon="30.0586225837"><ele>71.71</ele><time>2026-04-23T17:34:13Z</time></trkpt><trkpt lat="59.1047175508" lon="30.0584390201"><ele>71.75</ele><time>2026-04-23T17:34:24Z</time></trkpt><trkpt lat="59.1046883818" lon="30.0583082624"><ele>72.27</ele><time>2026-04-23T17:34:38Z</time></trkpt><trkpt lat="59.1046945844" lon="30.0581385288"><ele>70.43</ele><time>2026-04-23T17:34:50Z</time></trkpt><trkpt lat="59.1046796646" lon="30.0580743235"><ele>71.85</ele><time>2026-04-23T17:35:17Z</time></trkpt><trkpt lat="59.1046910640" lon="30.0580171589"><ele>72.98</ele><time>2026-04-23T17:35:59Z</time></trkpt><trkpt lat="59.1047359910" lon="30.0579061825"><ele>72.53</ele><time>2026-04-23T17:36:11Z</time></trkpt><trkpt lat="59.1047405172" lon="30.0577492733"><ele>72.37</ele><time>2026-04-23T17:36:29Z</time></trkpt><trkpt lat="59.1047639865" lon="30.0575667992"><ele>72.51</ele><time>2026-04-23T17:36:41Z</time></trkpt><trkpt lat="59.1047232505" lon="30.0573929586"><ele>72.93</ele><time>2026-04-23T17:36:55Z</time></trkpt><trkpt lat="59.1047569457" lon="30.0571724307"><ele>71.64</ele><time>2026-04-23T17:37:20Z</time></trkpt><trkpt lat="59.1047688480" lon="30.0569610391"><ele>69.71</ele><time>2026-04-23T17:37:34Z</time></trkpt><trkpt lat="59.1047631484" lon="30.0567504857"><ele>71.16</ele><time>2026-04-23T17:37:50Z</time></trkpt><trkpt lat="59.1046846937" lon="30.0565782376"><ele>70.86</ele><time>2026-04-23T17:38:05Z</time></trkpt><trkpt lat="59.1046317201" lon="30.0563560333"><ele>71.88</ele><time>2026-04-23T17:38:21Z</time></trkpt><trkpt lat="59.1046232544" lon="30.0563190691"><ele>74.90</ele><time>2026-04-23T17:38:51Z</time></trkpt><trkpt lat="59.1045871284" lon="30.0562111940"><ele>74.51</ele><time>2026-04-23T17:39:23Z</time></trkpt><trkpt lat="59.1046480648" lon="30.0559315737"><ele>74.45</ele><time>2026-04-23T17:39:42Z</time></trkpt><trkpt lat="59.1047368292" lon="30.0558307394"><ele>73.87</ele><time>2026-04-23T17:39:59Z</time></trkpt><trkpt lat="59.1047619749" lon="30.0556048471"><ele>73.78</ele><time>2026-04-23T17:40:19Z</time></trkpt><trkpt lat="59.1047208197" lon="30.0554176793"><ele>72.89</ele><time>2026-04-23T17:40:40Z</time></trkpt><trkpt lat="59.1046378389" lon="30.0552438386"><ele>72.97</ele><time>2026-04-23T17:40:52Z</time></trkpt><trkpt lat="59.1047040559" lon="30.0549226440"><ele>71.34</ele><time>2026-04-23T17:41:13Z</time></trkpt><trkpt lat="59.1047899704" lon="30.0548793934"><ele>71.17</ele><time>2026-04-23T17:41:25Z</time></trkpt><trkpt lat="59.1048740409" lon="30.0548159424"><ele>70.70</ele><time>2026-04-23T17:41:37Z</time></trkpt><trkpt lat="59.1048816685" lon="30.0548006874"><ele>70.78</ele><time>2026-04-23T17:41:38Z</time></trkpt><trkpt lat="59.1049724445" lon="30.0548424292"><ele>71.96</ele><time>2026-04-23T17:41:50Z</time></trkpt><trkpt lat="59.1050418466" lon="30.0549014378"><ele>72.30</ele><time>2026-04-23T17:42:04Z</time></trkpt><trkpt lat="59.1051020287" lon="30.0548898708"><ele>69.74</ele><time>2026-04-23T17:42:37Z</time></trkpt><trkpt lat="59.1051348858" lon="30.0548696704"><ele>68.96</ele><time>2026-04-23T17:43:06Z</time></trkpt><trkpt lat="59.1051361430" lon="30.0548742805"><ele>69.68</ele><time>2026-04-23T17:43:45Z</time></trkpt><trkpt lat="59.1051434353" lon="30.0548715983"><ele>70.10</ele><time>2026-04-23T17:44:44Z</time></trkpt><trkpt lat="59.1051290184" lon="30.0548664853"><ele>69.58</ele><time>2026-04-23T17:45:25Z</time></trkpt><trkpt lat="59.1051420942" lon="30.0547269266"><ele>70.19</ele><time>2026-04-23T17:45:36Z</time></trkpt><trkpt lat="59.1052117478" lon="30.0545861945"><ele>70.25</ele><time>2026-04-23T17:45:51Z</time></trkpt><trkpt lat="59.1052836645" lon="30.0543996971"><ele>71.66</ele><time>2026-04-23T17:46:03Z</time></trkpt><trkpt lat="59.1052957345" lon="30.0543967634"><ele>71.35</ele><time>2026-04-23T17:46:32Z</time></trkpt><trkpt lat="59.1052979976" lon="30.0543913990"><ele>70.81</ele><time>2026-04-23T17:47:08Z</time></trkpt><trkpt lat="59.1053048708" lon="30.0543747190"><ele>70.71</ele><time>2026-04-23T17:47:10Z</time></trkpt><trkpt lat="59.1053258255" lon="30.0542769860"><ele>70.76</ele><time>2026-04-23T17:47:16Z</time></trkpt><trkpt lat="59.1053478699" lon="30.0542346574"><ele>70.96</ele><time>2026-04-23T17:47:20Z</time></trkpt><trkpt lat="59.1054339521" lon="30.0540025625"><ele>72.06</ele><time>2026-04-23T17:47:35Z</time></trkpt><trkpt lat="59.1055165976" lon="30.0538572203"><ele>70.53</ele><time>2026-04-23T17:47:48Z</time></trkpt><trkpt lat="59.1055265721" lon="30.0537985470"><ele>71.67</ele><time>2026-04-23T17:48:14Z</time></trkpt><trkpt lat="59.1055476945" lon="30.0537196733"><ele>71.03</ele><time>2026-04-23T17:48:44Z</time></trkpt><trkpt lat="59.1055848263" lon="30.0536025781"><ele>71.84</ele><time>2026-04-23T17:49:00Z</time></trkpt><trkpt lat="59.1056086309" lon="30.0534987263"><ele>72.44</ele><time>2026-04-23T17:49:13Z</time></trkpt><trkpt lat="59.1056492832" lon="30.0534089562"><ele>72.01</ele><time>2026-04-23T17:49:23Z</time></trkpt><trkpt lat="59.1057057772" lon="30.0532377977"><ele>71.91</ele><time>2026-04-23T17:49:36Z</time></trkpt><trkpt lat="59.1056992393" lon="30.0532606803"><ele>71.46</ele><time>2026-04-23T17:49:57Z</time></trkpt><trkpt lat="59.1056929529" lon="30.0532642845"><ele>71.61</ele><time>2026-04-23T17:50:27Z</time></trkpt><trkpt lat="59.1056685615" lon="30.0531322695"><ele>71.66</ele><time>2026-04-23T17:50:50Z</time></trkpt><trkpt lat="59.1056503728" lon="30.0529899448"><ele>71.55</ele><time>2026-04-23T17:51:00Z</time></trkpt><trkpt lat="59.1056707408" lon="30.0527696684"><ele>73.77</ele><time>2026-04-23T17:51:13Z</time></trkpt><trkpt lat="59.1056532227" lon="30.0525886193"><ele>73.24</ele><time>2026-04-23T17:51:27Z</time></trkpt><trkpt lat="59.1056349501" lon="30.0524428580"><ele>72.13</ele><time>2026-04-23T17:51:38Z</time></trkpt><trkpt lat="59.1056245565" lon="30.0522744656"><ele>70.44</ele><time>2026-04-23T17:51:52Z</time></trkpt><trkpt lat="59.1055644583" lon="30.0522584561"><ele>68.40</ele><time>2026-04-23T17:52:03Z</time></trkpt><trkpt lat="59.1055060364" lon="30.0521901436"><ele>68.76</ele><time>2026-04-23T17:52:12Z</time></trkpt><trkpt lat="59.1054831538" lon="30.0519870501"><ele>69.97</ele><time>2026-04-23T17:52:27Z</time></trkpt><trkpt lat="59.1054568347" lon="30.0517935958"><ele>70.30</ele><time>2026-04-23T17:52:41Z</time></trkpt><trkpt lat="59.1054101475" lon="30.0516962819"><ele>70.46</ele><time>2026-04-23T17:52:57Z</time></trkpt><trkpt lat="59.1054174397" lon="30.0516671967"><ele>72.72</ele><time>2026-04-23T17:53:41Z</time></trkpt><trkpt lat="59.1054310184" lon="30.0516386982"><ele>72.70</ele><time>2026-04-23T17:53:45Z</time></trkpt><trkpt lat="59.1054092254" lon="30.0514582358"><ele>72.00</ele><time>2026-04-23T17:53:57Z</time></trkpt><trkpt lat="59.1053566709" lon="30.0512482692"><ele>73.08</ele><time>2026-04-23T17:54:12Z</time></trkpt><trkpt lat="59.1053716745" lon="30.0511046872"><ele>72.74</ele><time>2026-04-23T17:54:21Z</time></trkpt><trkpt lat="59.1053780448" lon="30.0508998334"><ele>70.90</ele><time>2026-04-23T17:54:36Z</time></trkpt><trkpt lat="59.1053058766" lon="30.0507398229"><ele>71.05</ele><time>2026-04-23T17:54:50Z</time></trkpt><trkpt lat="59.1052969918" lon="30.0505108293"><ele>71.47</ele><time>2026-04-23T17:55:02Z</time></trkpt><trkpt lat="59.1052956507" lon="30.0504633877"><ele>71.03</ele><time>2026-04-23T17:55:17Z</time></trkpt><trkpt lat="59.1053000931" lon="30.0504271779"><ele>72.09</ele><time>2026-04-23T17:55:50Z</time></trkpt><trkpt lat="59.1053665616" lon="30.0502800755"><ele>72.95</ele><time>2026-04-23T17:56:17Z</time></trkpt><trkpt lat="59.1053888574" lon="30.0502529182"><ele>72.31</ele><time>2026-04-23T17:56:34Z</time></trkpt><trkpt lat="59.1053694952" lon="30.0503145251"><ele>71.28</ele><time>2026-04-23T17:56:58Z</time></trkpt><trkpt lat="59.1052703373" lon="30.0504337996"><ele>70.97</ele><time>2026-04-23T17:57:13Z</time></trkpt><trkpt lat="59.1052383184" lon="30.0504415948"><ele>71.38</ele><time>2026-04-23T17:57:16Z</time></trkpt><trkpt lat="59.1051168647" lon="30.0505608693"><ele>70.66</ele><time>2026-04-23T17:57:30Z</time></trkpt><trkpt lat="59.1049976740" lon="30.0506663974"><ele>70.38</ele><time>2026-04-23T17:57:44Z</time></trkpt><trkpt lat="59.1049277689" lon="30.0507395715"><ele>70.76</ele><time>2026-04-23T17:57:55Z</time></trkpt><trkpt lat="59.1048825905" lon="30.0507549942"><ele>71.04</ele><time>2026-04-23T17:58:07Z</time></trkpt><trkpt lat="59.1047601309" lon="30.0506935548"><ele>73.53</ele><time>2026-04-23T17:58:21Z</time></trkpt><trkpt lat="59.1047180537" lon="30.0506110769"><ele>71.82</ele><time>2026-04-23T17:58:36Z</time></trkpt><trkpt lat="59.1046395991" lon="30.0505107455"><ele>72.58</ele><time>2026-04-23T17:58:50Z</time></trkpt><trkpt lat="59.1045440454" lon="30.0503609609"><ele>73.22</ele><time>2026-04-23T17:59:05Z</time></trkpt><trkpt lat="59.1045466438" lon="30.0503031258"><ele>75.13</ele><time>2026-04-23T17:59:08Z</time></trkpt><trkpt lat="59.1045106854" lon="30.0501617230"><ele>75.07</ele><time>2026-04-23T17:59:21Z</time></trkpt><trkpt lat="59.1044965200" lon="30.0501353201"><ele>76.97</ele><time>2026-04-23T17:59:53Z</time></trkpt><trkpt lat="59.1045056563" lon="30.0501331408"><ele>77.53</ele><time>2026-04-23T18:00:40Z</time></trkpt><trkpt lat="59.1044866294" lon="30.0500627328"><ele>79.01</ele><time>2026-04-23T18:01:46Z</time></trkpt><trkpt lat="59.1044227593" lon="30.0500484835"><ele>78.11</ele><time>2026-04-23T18:01:55Z</time></trkpt><trkpt lat="59.1043554526" lon="30.0500512496"><ele>77.36</ele><time>2026-04-23T18:02:12Z</time></trkpt><trkpt lat="59.1042227671" lon="30.0499288738"><ele>75.34</ele><time>2026-04-23T18:02:24Z</time></trkpt><trkpt lat="59.1041300632" lon="30.0499033928"><ele>74.82</ele><time>2026-04-23T18:02:38Z</time></trkpt><trkpt lat="59.1040467471" lon="30.0498392712"><ele>74.65</ele><time>2026-04-23T18:02:52Z</time></trkpt><trkpt lat="59.1039577313" lon="30.0498283748"><ele>74.09</ele><time>2026-04-23T18:03:14Z</time></trkpt><trkpt lat="59.1039122175" lon="30.0498601422"><ele>73.68</ele><time>2026-04-23T18:03:28Z</time></trkpt><trkpt lat="59.1039217729" lon="30.0497778319"><ele>72.19</ele><time>2026-04-23T18:03:39Z</time></trkpt><trkpt lat="59.1038975492" lon="30.0496965274"><ele>71.49</ele><time>2026-04-23T18:04:12Z</time></trkpt><trkpt lat="59.1038621776" lon="30.0496379379"><ele>71.89</ele><time>2026-04-23T18:04:49Z</time></trkpt><trkpt lat="59.1038052645" lon="30.0495182443"><ele>74.40</ele><time>2026-04-23T18:04:59Z</time></trkpt><trkpt lat="59.1037394665" lon="30.0493411347"><ele>73.60</ele><time>2026-04-23T18:05:17Z</time></trkpt><trkpt lat="59.1036738362" lon="30.0491531286"><ele>73.58</ele><time>2026-04-23T18:05:30Z</time></trkpt><trkpt lat="59.1036026739" lon="30.0489770249"><ele>74.23</ele><time>2026-04-23T18:05:43Z</time></trkpt><trkpt lat="59.1035841499" lon="30.0488685630"><ele>74.46</ele><time>2026-04-23T18:05:56Z</time></trkpt><trkpt lat="59.1036046855" lon="30.0487301778"><ele>74.74</ele><time>2026-04-23T18:06:10Z</time></trkpt><trkpt lat="59.1035705712" lon="30.0485927984"><ele>74.05</ele><time>2026-04-23T18:06:24Z</time></trkpt><trkpt lat="59.1035690624" lon="30.0485792197"><ele>73.62</ele><time>2026-04-23T18:06:26Z</time></trkpt><trkpt lat="59.1035001632" lon="30.0484415889"><ele>75.16</ele><time>2026-04-23T18:06:38Z</time></trkpt><trkpt lat="59.1033987422" lon="30.0482855178"><ele>72.36</ele><time>2026-04-23T18:06:53Z</time></trkpt><trkpt lat="59.1033674777" lon="30.0481936522"><ele>72.57</ele><time>2026-04-23T18:07:09Z</time></trkpt><trkpt lat="59.1033414938" lon="30.0481456239"><ele>78.12</ele><time>2026-04-23T18:07:53Z</time></trkpt><trkpt lat="59.1033596825" lon="30.0480508246"><ele>79.87</ele><time>2026-04-23T18:08:08Z</time></trkpt><trkpt lat="59.1033381410" lon="30.0479547679"><ele>79.34</ele><time>2026-04-23T18:08:19Z</time></trkpt><trkpt lat="59.1032951418" lon="30.0477811787"><ele>77.20</ele><time>2026-04-23T18:08:39Z</time></trkpt><trkpt lat="59.1032684874" lon="30.0476501696"><ele>79.08</ele><time>2026-04-23T18:08:54Z</time></trkpt><trkpt lat="59.1032775398" lon="30.0473662745"><ele>79.20</ele><time>2026-04-23T18:09:07Z</time></trkpt><trkpt lat="59.1032122448" lon="30.0472097844"><ele>75.54</ele><time>2026-04-23T18:09:19Z</time></trkpt><trkpt lat="59.1032411624" lon="30.0471102912"><ele>78.38</ele><time>2026-04-23T18:09:39Z</time></trkpt><trkpt lat="59.1031863447" lon="30.0469849817"><ele>75.99</ele><time>2026-04-23T18:10:01Z</time></trkpt><trkpt lat="59.1031456925" lon="30.0468292460"><ele>76.88</ele><time>2026-04-23T18:10:14Z</time></trkpt><trkpt lat="59.1031632945" lon="30.0468362868"><ele>75.28</ele><time>2026-04-23T18:10:46Z</time></trkpt><trkpt lat="59.1031539906" lon="30.0467408169"><ele>75.12</ele><time>2026-04-23T18:11:02Z</time></trkpt><trkpt lat="59.1030415893" lon="30.0466851611"><ele>75.23</ele><time>2026-04-23T18:11:17Z</time></trkpt><trkpt lat="59.1029798985" lon="30.0465181936"><ele>72.86</ele><time>2026-04-23T18:11:32Z</time></trkpt><trkpt lat="59.1029741988" lon="30.0464518927"><ele>72.92</ele><time>2026-04-23T18:11:46Z</time></trkpt><trkpt lat="59.1029152740" lon="30.0462996773"><ele>73.02</ele><time>2026-04-23T18:11:58Z</time></trkpt><trkpt lat="59.1028279345" lon="30.0462692510"><ele>70.12</ele><time>2026-04-23T18:12:15Z</time></trkpt><trkpt lat="59.1028436925" lon="30.0462603662"><ele>72.69</ele><time>2026-04-23T18:12:57Z</time></trkpt><trkpt lat="59.1028406750" lon="30.0462500565"><ele>74.00</ele><time>2026-04-23T18:13:17Z</time></trkpt><trkpt lat="59.1028398369" lon="30.0462791417"><ele>69.85</ele><time>2026-04-23T18:13:31Z</time></trkpt><trkpt lat="59.1028527450" lon="30.0462459493"><ele>72.26</ele><time>2026-04-23T18:14:45Z</time></trkpt><trkpt lat="59.1028418485" lon="30.0462696701"><ele>72.12</ele><time>2026-04-23T18:15:08Z</time></trkpt><trkpt lat="59.1028261743" lon="30.0462817401"><ele>74.05</ele><time>2026-04-23T18:16:21Z</time></trkpt><trkpt lat="59.1028338857" lon="30.0462544989"><ele>74.41</ele><time>2026-04-23T18:17:39Z</time></trkpt><trkpt lat="59.1028172895" lon="30.0462643895"><ele>73.20</ele><time>2026-04-23T18:18:10Z</time></trkpt><trkpt lat="59.1027891263" lon="30.0462713465"><ele>73.20</ele><time>2026-04-23T18:18:12Z</time></trkpt><trkpt lat="59.1025983542" lon="30.0462876912"><ele>73.08</ele><time>2026-04-23T18:18:23Z</time></trkpt><trkpt lat="59.1024008766" lon="30.0460503995"><ele>73.14</ele><time>2026-04-23T18:18:39Z</time></trkpt><trkpt lat="59.1022733878" lon="30.0459895469"><ele>72.89</ele><time>2026-04-23T18:18:55Z</time></trkpt><trkpt lat="59.1021750681" lon="30.0459813327"><ele>72.35</ele><time>2026-04-23T18:19:12Z</time></trkpt><trkpt lat="59.1024009604" lon="30.0461054686"><ele>66.63</ele><time>2026-04-23T18:19:28Z</time></trkpt><trkpt lat="59.1028075665" lon="30.0461775530"><ele>72.07</ele><time>2026-04-23T18:20:07Z</time></trkpt><trkpt lat="59.1028721910" lon="30.0462744478"><ele>74.45</ele><time>2026-04-23T18:21:24Z</time></trkpt><trkpt lat="59.1028536670" lon="30.0462745316"><ele>74.17</ele><time>2026-04-23T18:22:08Z</time></trkpt><trkpt lat="59.1028304491" lon="30.0463383179"><ele>85.00</ele><time>2026-04-23T18:24:11Z</time></trkpt><trkpt lat="59.1028319579" lon="30.0462599471"><ele>83.45</ele><time>2026-04-23T18:24:26Z</time></trkpt><trkpt lat="59.1028556786" lon="30.0462649763"><ele>85.63</ele><time>2026-04-23T18:24:48Z</time></trkpt><trkpt lat="59.1028314549" lon="30.0462808181"><ele>88.00</ele><time>2026-04-23T18:25:08Z</time></trkpt><trkpt lat="59.1028274316" lon="30.0463287625"><ele>88.36</ele><time>2026-04-23T18:25:31Z</time></trkpt><trkpt lat="59.1028097458" lon="30.0462086499"><ele>84.37</ele><time>2026-04-23T18:25:47Z</time></trkpt><trkpt lat="59.1028370708" lon="30.0462195463"><ele>81.61</ele><time>2026-04-23T18:26:10Z</time></trkpt><trkpt lat="59.1028545890" lon="30.0462480448"><ele>78.18</ele><time>2026-04-23T18:26:30Z</time></trkpt><trkpt lat="59.1028608754" lon="30.0462673232"><ele>76.43</ele><time>2026-04-23T18:26:54Z</time></trkpt><trkpt lat="59.1028663237" lon="30.0462619588"><ele>72.91</ele><time>2026-04-23T18:27:10Z</time></trkpt><trkpt lat="59.1029005218" lon="30.0461692549"><ele>72.08</ele><time>2026-04-23T18:27:24Z</time></trkpt><trkpt lat="59.1029348876" lon="30.0460949913"><ele>71.55</ele><time>2026-04-23T18:27:34Z</time></trkpt><trkpt lat="59.1029591952" lon="30.0459668320"><ele>72.97</ele><time>2026-04-23T18:27:49Z</time></trkpt><trkpt lat="59.1030146834" lon="30.0459566899"><ele>70.84</ele><time>2026-04-23T18:28:02Z</time></trkpt><trkpt lat="59.1030984186" lon="30.0459896307"><ele>71.50</ele><time>2026-04-23T18:28:15Z</time></trkpt><trkpt lat="59.1031459440" lon="30.0460256729"><ele>72.00</ele><time>2026-04-23T18:28:26Z</time></trkpt><trkpt lat="59.1032180283" lon="30.0459971745"><ele>73.02</ele><time>2026-04-23T18:28:39Z</time></trkpt><trkpt lat="59.1033311840" lon="30.0460800715"><ele>72.88</ele><time>2026-04-23T18:29:01Z</time></trkpt><trkpt lat="59.1034695692" lon="30.0460975897"><ele>71.61</ele><time>2026-04-23T18:29:17Z</time></trkpt><trkpt lat="59.1035876703" lon="30.0461365655"><ele>72.40</ele><time>2026-04-23T18:29:32Z</time></trkpt><trkpt lat="59.1036806256" lon="30.0460900459"><ele>74.06</ele><time>2026-04-23T18:29:43Z</time></trkpt><trkpt lat="59.1037456691" lon="30.0460183807"><ele>73.45</ele><time>2026-04-23T18:29:57Z</time></trkpt><trkpt lat="59.1038300749" lon="30.0459188875"><ele>73.63</ele><time>2026-04-23T18:30:10Z</time></trkpt><trkpt lat="59.1038763430" lon="30.0458085816"><ele>72.65</ele><time>2026-04-23T18:30:22Z</time></trkpt><trkpt lat="59.1038857307" lon="30.0458572805"><ele>71.44</ele><time>2026-04-23T18:30:41Z</time></trkpt><trkpt lat="59.1038789414" lon="30.0457811728"><ele>71.52</ele><time>2026-04-23T18:31:12Z</time></trkpt><trkpt lat="59.1038778517" lon="30.0458427798"><ele>70.63</ele><time>2026-04-23T18:31:40Z</time></trkpt><trkpt lat="59.1039101221" lon="30.0457314681"><ele>70.66</ele><time>2026-04-23T18:32:10Z</time></trkpt><trkpt lat="59.1039325856" lon="30.0454868842"><ele>68.77</ele><time>2026-04-23T18:32:28Z</time></trkpt><trkpt lat="59.1039660294" lon="30.0454000477"><ele>68.59</ele><time>2026-04-23T18:32:49Z</time></trkpt><trkpt lat="59.1039893311" lon="30.0454160571"><ele>71.11</ele><time>2026-04-23T18:33:04Z</time></trkpt><trkpt lat="59.1040241998" lon="30.0454485789"><ele>70.31</ele><time>2026-04-23T18:33:17Z</time></trkpt><trkpt lat="59.1040197574" lon="30.0455319788"><ele>70.03</ele><time>2026-04-23T18:33:32Z</time></trkpt><trkpt lat="59.1040749941" lon="30.0457118545"><ele>69.24</ele><time>2026-04-23T18:33:46Z</time></trkpt><trkpt lat="59.1041053366" lon="30.0458192267"><ele>68.67</ele><time>2026-04-23T18:34:01Z</time></trkpt><trkpt lat="59.1041351762" lon="30.0460013654"><ele>70.37</ele><time>2026-04-23T18:34:17Z</time></trkpt><trkpt lat="59.1041829530" lon="30.0460910518"><ele>70.82</ele><time>2026-04-23T18:34:31Z</time></trkpt><trkpt lat="59.1042126250" lon="30.0460802391"><ele>70.49</ele><time>2026-04-23T18:34:46Z</time></trkpt><trkpt lat="59.1041530296" lon="30.0462228991"><ele>70.30</ele><time>2026-04-23T18:35:03Z</time></trkpt><trkpt lat="59.1040742397" lon="30.0462255813"><ele>69.19</ele><time>2026-04-23T18:35:20Z</time></trkpt><trkpt lat="59.1040390357" lon="30.0462718494"><ele>69.02</ele><time>2026-04-23T18:35:32Z</time></trkpt><trkpt lat="59.1040482558" lon="30.0464309379"><ele>68.41</ele><time>2026-04-23T18:35:49Z</time></trkpt><trkpt lat="59.1040923446" lon="30.0465457700"><ele>68.88</ele><time>2026-04-23T18:36:02Z</time></trkpt><trkpt lat="59.1041348409" lon="30.0465297606"><ele>68.02</ele><time>2026-04-23T18:36:18Z</time></trkpt><trkpt lat="59.1042013932" lon="30.0466185249"><ele>68.41</ele><time>2026-04-23T18:36:33Z</time></trkpt><trkpt lat="59.1042439733" lon="30.0466580875"><ele>69.53</ele><time>2026-04-23T18:37:03Z</time></trkpt><trkpt lat="59.1042304784" lon="30.0466717500"><ele>71.50</ele><time>2026-04-23T18:38:00Z</time></trkpt><trkpt lat="59.1042458173" lon="30.0467730872"><ele>73.56</ele><time>2026-04-23T18:38:23Z</time></trkpt><trkpt lat="59.1042483319" lon="30.0467824750"><ele>73.47</ele><time>2026-04-23T18:38:24Z</time></trkpt><trkpt lat="59.1043173987" lon="30.0467416551"><ele>75.81</ele><time>2026-04-23T18:38:36Z</time></trkpt><trkpt lat="59.1043688636" lon="30.0466268230"><ele>76.48</ele><time>2026-04-23T18:38:52Z</time></trkpt><trkpt lat="59.1043989547" lon="30.0465539843"><ele>74.60</ele><time>2026-04-23T18:39:08Z</time></trkpt><trkpt lat="59.1044441331" lon="30.0465369690"><ele>73.79</ele><time>2026-04-23T18:39:22Z</time></trkpt><trkpt lat="59.1045249347" lon="30.0464549940"><ele>71.63</ele><time>2026-04-23T18:39:35Z</time></trkpt><trkpt lat="59.1045421176" lon="30.0463153515"><ele>72.55</ele><time>2026-04-23T18:39:51Z</time></trkpt><trkpt lat="59.1045846976" lon="30.0462253299"><ele>72.14</ele><time>2026-04-23T18:40:05Z</time></trkpt><trkpt lat="59.1046015453" lon="30.0460689235"><ele>67.81</ele><time>2026-04-23T18:40:20Z</time></trkpt><trkpt lat="59.1046445444" lon="30.0462295208"><ele>68.55</ele><time>2026-04-23T18:40:34Z</time></trkpt><trkpt lat="59.1046896391" lon="30.0463270862"><ele>68.58</ele><time>2026-04-23T18:40:49Z</time></trkpt><trkpt lat="59.1047490668" lon="30.0463527348"><ele>69.18</ele><time>2026-04-23T18:41:04Z</time></trkpt><trkpt lat="59.1047821753" lon="30.0463289302"><ele>69.30</ele><time>2026-04-23T18:41:37Z</time></trkpt><trkpt lat="59.1048233304" lon="30.0463460293"><ele>70.77</ele><time>2026-04-23T18:42:09Z</time></trkpt><trkpt lat="59.1048988514" lon="30.0463084783"><ele>69.56</ele><time>2026-04-23T18:42:23Z</time></trkpt><trkpt lat="59.1049072333" lon="30.0461909641"><ele>67.78</ele><time>2026-04-23T18:42:37Z</time></trkpt><trkpt lat="59.1048925649" lon="30.0460246671"><ele>65.12</ele><time>2026-04-23T18:42:49Z</time></trkpt><trkpt lat="59.1049641464" lon="30.0459134392"><ele>65.51</ele><time>2026-04-23T18:43:03Z</time></trkpt><trkpt lat="59.1050467920" lon="30.0458359905"><ele>66.67</ele><time>2026-04-23T18:43:17Z</time></trkpt><trkpt lat="59.1050428525" lon="30.0457877945"><ele>65.94</ele><time>2026-04-23T18:43:22Z</time></trkpt><trkpt lat="59.1050422657" lon="30.0457608886"><ele>68.27</ele><time>2026-04-23T18:43:24Z</time></trkpt><trkpt lat="59.1050514858" lon="30.0456147920"><ele>71.48</ele><time>2026-04-23T18:43:36Z</time></trkpt><trkpt lat="59.1051046271" lon="30.0455833599"><ele>70.00</ele><time>2026-04-23T18:43:52Z</time></trkpt><trkpt lat="59.1051604506" lon="30.0455749780"><ele>70.30</ele><time>2026-04-23T18:44:04Z</time></trkpt><trkpt lat="59.1052071378" lon="30.0456186477"><ele>70.67</ele><time>2026-04-23T18:44:21Z</time></trkpt><trkpt lat="59.1052809823" lon="30.0455534365"><ele>71.53</ele><time>2026-04-23T18:44:33Z</time></trkpt><trkpt lat="59.1053444333" lon="30.0454895664"><ele>69.97</ele><time>2026-04-23T18:44:46Z</time></trkpt><trkpt lat="59.1053869296" lon="30.0454321504"><ele>69.67</ele><time>2026-04-23T18:45:03Z</time></trkpt><trkpt lat="59.1053851694" lon="30.0454646721"><ele>71.74</ele><time>2026-04-23T18:45:40Z</time></trkpt><trkpt lat="59.1053980775" lon="30.0454580504"><ele>69.28</ele><time>2026-04-23T18:46:10Z</time></trkpt><trkpt lat="59.1054126620" lon="30.0454329886"><ele>69.29</ele><time>2026-04-23T18:46:24Z</time></trkpt><trkpt lat="59.1054919548" lon="30.0454229303"><ele>70.54</ele><time>2026-04-23T18:46:36Z</time></trkpt><trkpt lat="59.1055141669" lon="30.0454988703"><ele>69.75</ele><time>2026-04-23T18:46:59Z</time></trkpt><trkpt lat="59.1055352893" lon="30.0455303863"><ele>70.53</ele><time>2026-04-23T18:47:39Z</time></trkpt><trkpt lat="59.1055655479" lon="30.0454845373"><ele>71.72</ele><time>2026-04-23T18:48:58Z</time></trkpt><trkpt lat="59.1055302601" lon="30.0454311445"><ele>71.74</ele><time>2026-04-23T18:49:08Z</time></trkpt><trkpt lat="59.1055210400" lon="30.0452635903"><ele>72.57</ele><time>2026-04-23T18:49:21Z</time></trkpt><trkpt lat="59.1056005843" lon="30.0452451501"><ele>72.71</ele><time>2026-04-23T18:49:35Z</time></trkpt><trkpt lat="59.1056199465" lon="30.0452948548"><ele>71.43</ele><time>2026-04-23T18:49:51Z</time></trkpt><trkpt lat="59.1056161746" lon="30.0452678651"><ele>69.25</ele><time>2026-04-23T18:50:09Z</time></trkpt><trkpt lat="59.1056720819" lon="30.0452410430"><ele>68.74</ele><time>2026-04-23T18:50:26Z</time></trkpt><trkpt lat="59.1056760214" lon="30.0452700444"><ele>67.57</ele><time>2026-04-23T18:50:55Z</time></trkpt><trkpt lat="59.1056727525" lon="30.0452531967"><ele>67.82</ele><time>2026-04-23T18:51:14Z</time></trkpt><trkpt lat="59.1057039332" lon="30.0451932661"><ele>66.96</ele><time>2026-04-23T18:51:36Z</time></trkpt><trkpt lat="59.1057959665" lon="30.0451933499"><ele>64.62</ele><time>2026-04-23T18:51:50Z</time></trkpt><trkpt lat="59.1058371216" lon="30.0450858939"><ele>65.21</ele><time>2026-04-23T18:52:06Z</time></trkpt><trkpt lat="59.1058882512" lon="30.0450228620"><ele>64.99</ele><time>2026-04-23T18:52:17Z</time></trkpt><trkpt lat="59.1059646942" lon="30.0448935293"><ele>67.75</ele><time>2026-04-23T18:52:32Z</time></trkpt><trkpt lat="59.1060266364" lon="30.0448236242"><ele>70.27</ele><time>2026-04-23T18:52:50Z</time></trkpt><trkpt lat="59.1060758382" lon="30.0448314194"><ele>72.03</ele><time>2026-04-23T18:53:12Z</time></trkpt><trkpt lat="59.1061513592" lon="30.0447951257"><ele>71.94</ele><time>2026-04-23T18:53:25Z</time></trkpt><trkpt lat="59.1061888263" lon="30.0447381288"><ele>71.03</ele><time>2026-04-23T18:53:34Z</time></trkpt><trkpt lat="59.1062582284" lon="30.0447067805"><ele>72.82</ele><time>2026-04-23T18:53:46Z</time></trkpt><trkpt lat="59.1063029878" lon="30.0446904358"><ele>75.49</ele><time>2026-04-23T18:54:20Z</time></trkpt><trkpt lat="59.1062739864" lon="30.0446343608"><ele>76.20</ele><time>2026-04-23T18:54:57Z</time></trkpt><trkpt lat="59.1063142195" lon="30.0445264857"><ele>76.07</ele><time>2026-04-23T18:55:11Z</time></trkpt><trkpt lat="59.1063868906" lon="30.0444689859"><ele>75.75</ele><time>2026-04-23T18:55:24Z</time></trkpt><trkpt lat="59.1064613219" lon="30.0443927944"><ele>76.92</ele><time>2026-04-23T18:55:36Z</time></trkpt><trkpt lat="59.1065586358" lon="30.0442872662"><ele>76.25</ele><time>2026-04-23T18:55:51Z</time></trkpt><trkpt lat="59.1066430416" lon="30.0442480389"><ele>75.16</ele><time>2026-04-23T18:56:03Z</time></trkpt><trkpt lat="59.1066937521" lon="30.0441677403"><ele>72.81</ele><time>2026-04-23T18:56:16Z</time></trkpt><trkpt lat="59.1067400202" lon="30.0440487172"><ele>75.28</ele><time>2026-04-23T18:56:25Z</time></trkpt><trkpt lat="59.1068004537" lon="30.0440215599"><ele>72.63</ele><time>2026-04-23T18:56:38Z</time></trkpt><trkpt lat="59.1068404354" lon="30.0438469648"><ele>69.43</ele><time>2026-04-23T18:56:56Z</time></trkpt><trkpt lat="59.1068865359" lon="30.0437806640"><ele>70.64</ele><time>2026-04-23T18:57:08Z</time></trkpt><trkpt lat="59.1069591232" lon="30.0437019579"><ele>71.67</ele><time>2026-04-23T18:57:19Z</time></trkpt><trkpt lat="59.1069741268" lon="30.0437876210"><ele>74.08</ele><time>2026-04-23T18:57:44Z</time></trkpt><trkpt lat="59.1069823410" lon="30.0437655766"><ele>73.73</ele><time>2026-04-23T18:58:14Z</time></trkpt><trkpt lat="59.1070193890" lon="30.0436338969"><ele>73.36</ele><time>2026-04-23T18:58:35Z</time></trkpt><trkpt lat="59.1070965864" lon="30.0435102638"><ele>73.43</ele><time>2026-04-23T18:58:49Z</time></trkpt><trkpt lat="59.1071506497" lon="30.0434452202"><ele>73.08</ele><time>2026-04-23T18:58:59Z</time></trkpt><trkpt lat="59.1071999352" lon="30.0433750637"><ele>70.08</ele><time>2026-04-23T18:59:09Z</time></trkpt><trkpt lat="59.1072664876" lon="30.0432696193"><ele>71.06</ele><time>2026-04-23T18:59:22Z</time></trkpt><trkpt lat="59.1073335428" lon="30.0430863909"><ele>70.24</ele><time>2026-04-23T18:59:40Z</time></trkpt><trkpt lat="59.1074223910" lon="30.0429631770"><ele>71.51</ele><time>2026-04-23T18:59:57Z</time></trkpt><trkpt lat="59.1074615344" lon="30.0428681262"><ele>70.99</ele><time>2026-04-23T19:00:09Z</time></trkpt><trkpt lat="59.1074785497" lon="30.0428536255"><ele>69.11</ele><time>2026-04-23T19:00:33Z</time></trkpt><trkpt lat="59.1074623726" lon="30.0428871531"><ele>69.07</ele><time>2026-04-23T19:01:25Z</time></trkpt><trkpt lat="59.1074622888" lon="30.0427767634"><ele>68.63</ele><time>2026-04-23T19:01:44Z</time></trkpt><trkpt lat="59.1074975766" lon="30.0427130610"><ele>68.03</ele><time>2026-04-23T19:02:02Z</time></trkpt><trkpt lat="59.1075466946" lon="30.0426142383"><ele>69.09</ele><time>2026-04-23T19:02:17Z</time></trkpt><trkpt lat="59.1075785458" lon="30.0424982328"><ele>69.35</ele><time>2026-04-23T19:02:29Z</time></trkpt><trkpt lat="59.1076511331" lon="30.0424104743"><ele>71.28</ele><time>2026-04-23T19:02:43Z</time></trkpt><trkpt lat="59.1077199485" lon="30.0424055289"><ele>68.64</ele><time>2026-04-23T19:03:00Z</time></trkpt><trkpt lat="59.1077757720" lon="30.0423434190"><ele>69.26</ele><time>2026-04-23T19:03:14Z</time></trkpt><trkpt lat="59.1077910271" lon="30.0422779564"><ele>67.22</ele><time>2026-04-23T19:03:26Z</time></trkpt><trkpt lat="59.1078020912" lon="30.0420849212"><ele>69.10</ele><time>2026-04-23T19:03:39Z</time></trkpt><trkpt lat="59.1077900212" lon="30.0420065504"><ele>67.22</ele><time>2026-04-23T19:03:51Z</time></trkpt><trkpt lat="59.1077695694" lon="30.0418568496"><ele>68.39</ele><time>2026-04-23T19:04:04Z</time></trkpt><trkpt lat="59.1077960562" lon="30.0418029539"><ele>70.16</ele><time>2026-04-23T19:04:21Z</time></trkpt><trkpt lat="59.1078363732" lon="30.0417574402"><ele>67.24</ele><time>2026-04-23T19:04:36Z</time></trkpt><trkpt lat="59.1079340223" lon="30.0416612998"><ele>73.19</ele><time>2026-04-23T19:04:49Z</time></trkpt><trkpt lat="59.1079818830" lon="30.0415095873"><ele>72.14</ele><time>2026-04-23T19:05:01Z</time></trkpt><trkpt lat="59.1080450825" lon="30.0415578671"><ele>71.26</ele><time>2026-04-23T19:05:16Z</time></trkpt><trkpt lat="59.1080860700" lon="30.0416872837"><ele>70.44</ele><time>2026-04-23T19:05:30Z</time></trkpt><trkpt lat="59.1080508661" lon="30.0416453741"><ele>75.55</ele><time>2026-04-23T19:05:59Z</time></trkpt><trkpt lat="59.1080678813" lon="30.0416631438"><ele>74.75</ele><time>2026-04-23T19:06:53Z</time></trkpt><trkpt lat="59.1080806218" lon="30.0416199770"><ele>71.94</ele><time>2026-04-23T19:07:50Z</time></trkpt><trkpt lat="59.1080628522" lon="30.0415891316"><ele>71.60</ele><time>2026-04-23T19:08:25Z</time></trkpt><trkpt lat="59.1080174223" lon="30.0414931588"><ele>70.89</ele><time>2026-04-23T19:08:55Z</time></trkpt><trkpt lat="59.1080215294" lon="30.0413131993"><ele>71.24</ele><time>2026-04-23T19:09:11Z</time></trkpt><trkpt lat="59.1080214456" lon="30.0412874669"><ele>71.59</ele><time>2026-04-23T19:09:13Z</time></trkpt><trkpt lat="59.1079864930" lon="30.0411856268"><ele>72.93</ele><time>2026-04-23T19:09:25Z</time></trkpt><trkpt lat="59.1079393867" lon="30.0411237683"><ele>72.47</ele><time>2026-04-23T19:09:38Z</time></trkpt><trkpt lat="59.1079666279" lon="30.0410274602"><ele>71.41</ele><time>2026-04-23T19:09:49Z</time></trkpt><trkpt lat="59.1079325974" lon="30.0411076751"><ele>71.49</ele><time>2026-04-23T19:10:10Z</time></trkpt><trkpt lat="59.1078883410" lon="30.0411548652"><ele>71.69</ele><time>2026-04-23T19:10:23Z</time></trkpt><trkpt lat="59.1078476887" lon="30.0412659254"><ele>69.14</ele><time>2026-04-23T19:10:40Z</time></trkpt><trkpt lat="59.1078343615" lon="30.0413434580"><ele>72.07</ele><time>2026-04-23T19:10:56Z</time></trkpt><trkpt lat="59.1078401450" lon="30.0413060747"><ele>72.75</ele><time>2026-04-23T19:11:32Z</time></trkpt><trkpt lat="59.1078202799" lon="30.0413214974"><ele>71.90</ele><time>2026-04-23T19:12:06Z</time></trkpt><trkpt lat="59.1078149993" lon="30.0413324777"><ele>71.83</ele><time>2026-04-23T19:12:33Z</time></trkpt><trkpt lat="59.1078055277" lon="30.0413108524"><ele>72.25</ele><time>2026-04-23T19:13:13Z</time></trkpt><trkpt lat="59.1077796277" lon="30.0412927475"><ele>73.56</ele><time>2026-04-23T19:14:14Z</time></trkpt><trkpt lat="59.1077847406" lon="30.0413032249"><ele>74.47</ele><time>2026-04-23T19:15:00Z</time></trkpt><trkpt lat="59.1077686474" lon="30.0412562862"><ele>75.25</ele><time>2026-04-23T19:15:41Z</time></trkpt><trkpt lat="59.1077832319" lon="30.0413353276"><ele>76.64</ele><time>2026-04-23T19:16:21Z</time></trkpt><trkpt lat="59.1077741794" lon="30.0413845293"><ele>76.85</ele><time>2026-04-23T19:16:54Z</time></trkpt><trkpt lat="59.1077632830" lon="30.0413836911"><ele>74.73</ele><time>2026-04-23T19:17:16Z</time></trkpt><trkpt lat="59.1077402327" lon="30.0415104255"><ele>74.15</ele><time>2026-04-23T19:17:30Z</time></trkpt><trkpt lat="59.1077026818" lon="30.0416077394"><ele>73.61</ele><time>2026-04-23T19:17:44Z</time></trkpt><trkpt lat="59.1076717526" lon="30.0416851882"><ele>74.98</ele><time>2026-04-23T19:17:57Z</time></trkpt><trkpt lat="59.1075771209" lon="30.0417339709"><ele>76.55</ele><time>2026-04-23T19:18:13Z</time></trkpt><trkpt lat="59.1075103171" lon="30.0418416783"><ele>76.74</ele><time>2026-04-23T19:18:27Z</time></trkpt><trkpt lat="59.1074564215" lon="30.0418566819"><ele>75.33</ele><time>2026-04-23T19:18:40Z</time></trkpt><trkpt lat="59.1073992569" lon="30.0418353919"><ele>74.48</ele><time>2026-04-23T19:18:53Z</time></trkpt><trkpt lat="59.1073871870" lon="30.0418216456"><ele>73.97</ele><time>2026-04-23T19:18:58Z</time></trkpt><trkpt lat="59.1073081456" lon="30.0417477172"><ele>74.45</ele><time>2026-04-23T19:19:13Z</time></trkpt><trkpt lat="59.1072560940" lon="30.0418005232"><ele>73.67</ele><time>2026-04-23T19:19:26Z</time></trkpt><trkpt lat="59.1072192974" lon="30.0418655667"><ele>71.77</ele><time>2026-04-23T19:19:38Z</time></trkpt><trkpt lat="59.1071694251" lon="30.0419386569"><ele>70.57</ele><time>2026-04-23T19:19:52Z</time></trkpt><trkpt lat="59.1071254201" lon="30.0420008507"><ele>70.07</ele><time>2026-04-23T19:19:58Z</time></trkpt><trkpt lat="59.1070933174" lon="30.0420306902"><ele>67.43</ele><time>2026-04-23T19:20:13Z</time></trkpt><trkpt lat="59.1070776433" lon="30.0419968273"><ele>68.58</ele><time>2026-04-23T19:21:03Z</time></trkpt><trkpt lat="59.1070542578" lon="30.0421107374"><ele>70.57</ele><time>2026-04-23T19:21:33Z</time></trkpt><trkpt lat="59.1070297826" lon="30.0420880225"><ele>69.80</ele><time>2026-04-23T19:21:51Z</time></trkpt><trkpt lat="59.1069614701" lon="30.0421459414"><ele>70.22</ele><time>2026-04-23T19:22:05Z</time></trkpt><trkpt lat="59.1069336422" lon="30.0423120707"><ele>72.38</ele><time>2026-04-23T19:22:19Z</time></trkpt><trkpt lat="59.1069618892" lon="30.0423778687"><ele>70.96</ele><time>2026-04-23T19:22:33Z</time></trkpt><trkpt lat="59.1069027968" lon="30.0423934590"><ele>71.69</ele><time>2026-04-23T19:22:45Z</time></trkpt><trkpt lat="59.1068889666" lon="30.0425806269"><ele>72.80</ele><time>2026-04-23T19:23:01Z</time></trkpt><trkpt lat="59.1068704426" lon="30.0427312497"><ele>73.42</ele><time>2026-04-23T19:23:16Z</time></trkpt><trkpt lat="59.1068399325" lon="30.0428894162"><ele>74.09</ele><time>2026-04-23T19:23:30Z</time></trkpt><trkpt lat="59.1068269406" lon="30.0429484248"><ele>71.20</ele><time>2026-04-23T19:23:45Z</time></trkpt><trkpt lat="59.1067731287" lon="30.0429357681"><ele>71.98</ele><time>2026-04-23T19:23:58Z</time></trkpt><trkpt lat="59.1066982783" lon="30.0430554617"><ele>70.92</ele><time>2026-04-23T19:24:11Z</time></trkpt><trkpt lat="59.1066187341" lon="30.0430797692"><ele>69.07</ele><time>2026-04-23T19:24:27Z</time></trkpt><trkpt lat="59.1065415367" lon="30.0431566313"><ele>69.87</ele><time>2026-04-23T19:24:40Z</time></trkpt><trkpt lat="59.1064577177" lon="30.0432524364"><ele>70.58</ele><time>2026-04-23T19:24:53Z</time></trkpt><trkpt lat="59.1064153891" lon="30.0431757420"><ele>70.49</ele><time>2026-04-23T19:25:02Z</time></trkpt><trkpt lat="59.1063690372" lon="30.0432001334"><ele>70.65</ele><time>2026-04-23T19:25:18Z</time></trkpt><trkpt lat="59.1063469928" lon="30.0431962777"><ele>72.02</ele><time>2026-04-23T19:25:50Z</time></trkpt><trkpt lat="59.1063392814" lon="30.0431873929"><ele>72.33</ele><time>2026-04-23T19:26:29Z</time></trkpt><trkpt lat="59.1062928457" lon="30.0432789233"><ele>72.18</ele><time>2026-04-23T19:26:42Z</time></trkpt><trkpt lat="59.1063048318" lon="30.0433776621"><ele>71.82</ele><time>2026-04-23T19:26:54Z</time></trkpt><trkpt lat="59.1063088551" lon="30.0433826912"><ele>71.77</ele><time>2026-04-23T19:26:55Z</time></trkpt><trkpt lat="59.1063115373" lon="30.0434930809"><ele>71.80</ele><time>2026-04-23T19:27:07Z</time></trkpt><trkpt lat="59.1063338332" lon="30.0436076615"><ele>73.18</ele><time>2026-04-23T19:27:21Z</time></trkpt><trkpt lat="59.1062990483" lon="30.0436570309"><ele>72.88</ele><time>2026-04-23T19:27:41Z</time></trkpt><trkpt lat="59.1062522773" lon="30.0437183864"><ele>72.79</ele><time>2026-04-23T19:27:52Z</time></trkpt><trkpt lat="59.1062019859" lon="30.0437496509"><ele>74.10</ele><time>2026-04-23T19:27:59Z</time></trkpt><trkpt lat="59.1061381996" lon="30.0438035466"><ele>73.06</ele><time>2026-04-23T19:28:09Z</time></trkpt><trkpt lat="59.1060498543" lon="30.0438501500"><ele>72.65</ele><time>2026-04-23T19:28:22Z</time></trkpt><trkpt lat="59.1059589945" lon="30.0439055543"><ele>72.73</ele><time>2026-04-23T19:28:36Z</time></trkpt><trkpt lat="59.1058707330" lon="30.0438983459"><ele>72.05</ele><time>2026-04-23T19:28:49Z</time></trkpt><trkpt lat="59.1058170889" lon="30.0438566878"><ele>72.65</ele><time>2026-04-23T19:29:04Z</time></trkpt><trkpt lat="59.1057808790" lon="30.0437304564"><ele>73.62</ele><time>2026-04-23T19:29:21Z</time></trkpt><trkpt lat="59.1057550628" lon="30.0437743776"><ele>73.41</ele><time>2026-04-23T19:29:33Z</time></trkpt><trkpt lat="59.1057059448" lon="30.0437650736"><ele>73.32</ele><time>2026-04-23T19:29:48Z</time></trkpt><trkpt lat="59.1056651250" lon="30.0437624753"><ele>72.46</ele><time>2026-04-23T19:30:03Z</time></trkpt><trkpt lat="59.1056647897" lon="30.0437049754"><ele>73.12</ele><time>2026-04-23T19:30:59Z</time></trkpt><trkpt lat="59.1056567430" lon="30.0437527522"><ele>73.17</ele><time>2026-04-23T19:31:27Z</time></trkpt><trkpt lat="59.1056002490" lon="30.0438393373"><ele>71.87</ele><time>2026-04-23T19:31:37Z</time></trkpt><trkpt lat="59.1055327747" lon="30.0439137686"><ele>71.70</ele><time>2026-04-23T19:31:58Z</time></trkpt><trkpt lat="59.1055175196" lon="30.0440683309"><ele>70.96</ele><time>2026-04-23T19:32:11Z</time></trkpt><trkpt lat="59.1054655518" lon="30.0441650581"><ele>71.53</ele><time>2026-04-23T19:32:26Z</time></trkpt><trkpt lat="59.1054274980" lon="30.0442178641"><ele>71.92</ele><time>2026-04-23T19:32:36Z</time></trkpt><trkpt lat="59.1053688247" lon="30.0443407428"><ele>71.50</ele><time>2026-04-23T19:32:49Z</time></trkpt><trkpt lat="59.1053665616" lon="30.0443645474"><ele>71.47</ele><time>2026-04-23T19:32:52Z</time></trkpt><trkpt lat="59.1053007636" lon="30.0443914533"><ele>71.31</ele><time>2026-04-23T19:33:04Z</time></trkpt><trkpt lat="59.1052732710" lon="30.0444643758"><ele>72.95</ele><time>2026-04-23T19:33:14Z</time></trkpt><trkpt lat="59.1051798966" lon="30.0445938762"><ele>72.67</ele><time>2026-04-23T19:33:27Z</time></trkpt><trkpt lat="59.1051254980" lon="30.0447082892"><ele>72.63</ele><time>2026-04-23T19:33:41Z</time></trkpt><trkpt lat="59.1050792299" lon="30.0447666273"><ele>71.72</ele><time>2026-04-23T19:33:56Z</time></trkpt><trkpt lat="59.1050548386" lon="30.0448038429"><ele>70.25</ele><time>2026-04-23T19:34:27Z</time></trkpt><trkpt lat="59.1050367337" lon="30.0447718240"><ele>70.54</ele><time>2026-04-23T19:35:03Z</time></trkpt><trkpt lat="59.1050217301" lon="30.0447893422"><ele>70.18</ele><time>2026-04-23T19:35:18Z</time></trkpt><trkpt lat="59.1049598716" lon="30.0448652823"><ele>71.05</ele><time>2026-04-23T19:35:34Z</time></trkpt><trkpt lat="59.1049226560" lon="30.0448928587"><ele>69.34</ele><time>2026-04-23T19:35:44Z</time></trkpt><trkpt lat="59.1049087420" lon="30.0448022503"><ele>67.34</ele><time>2026-04-23T19:36:00Z</time></trkpt><trkpt lat="59.1049056407" lon="30.0447995681"><ele>67.31</ele><time>2026-04-23T19:36:01Z</time></trkpt><trkpt lat="59.1048738733" lon="30.0446810480"><ele>67.89</ele><time>2026-04-23T19:36:11Z</time></trkpt><trkpt lat="59.1048310418" lon="30.0445679761"><ele>68.86</ele><time>2026-04-23T19:36:25Z</time></trkpt><trkpt lat="59.1047749668" lon="30.0446041860"><ele>69.65</ele><time>2026-04-23T19:36:38Z</time></trkpt><trkpt lat="59.1046961769" lon="30.0446498673"><ele>69.20</ele><time>2026-04-23T19:36:51Z</time></trkpt><trkpt lat="59.1046097595" lon="30.0446469337"><ele>68.53</ele><time>2026-04-23T19:37:07Z</time></trkpt><trkpt lat="59.1045642458" lon="30.0446746778"><ele>69.88</ele><time>2026-04-23T19:37:26Z</time></trkpt><trkpt lat="59.1045428719" lon="30.0447974727"><ele>69.19</ele><time>2026-04-23T19:37:36Z</time></trkpt><trkpt lat="59.1045250185" lon="30.0448209420"><ele>69.51</ele><time>2026-04-23T19:37:41Z</time></trkpt><trkpt lat="59.1044964362" lon="30.0449568965"><ele>71.79</ele><time>2026-04-23T19:37:55Z</time></trkpt><trkpt lat="59.1044824384" lon="30.0449948665"><ele>71.86</ele><time>2026-04-23T19:38:15Z</time></trkpt><trkpt lat="59.1044093482" lon="30.0450500194"><ele>70.55</ele><time>2026-04-23T19:38:32Z</time></trkpt><trkpt lat="59.1043584701" lon="30.0452013966"><ele>70.96</ele><time>2026-04-23T19:38:49Z</time></trkpt><trkpt lat="59.1043599788" lon="30.0453017280"><ele>71.79</ele><time>2026-04-23T19:39:04Z</time></trkpt><trkpt lat="59.1043395270" lon="30.0453339983"><ele>70.70</ele><time>2026-04-23T19:39:21Z</time></trkpt><trkpt lat="59.1043123696" lon="30.0454565417"><ele>69.51</ele><time>2026-04-23T19:39:38Z</time></trkpt><trkpt lat="59.1043043230" lon="30.0455477368"><ele>70.08</ele><time>2026-04-23T19:39:57Z</time></trkpt><trkpt lat="59.1043077596" lon="30.0455305539"><ele>71.19</ele><time>2026-04-23T19:40:43Z</time></trkpt><trkpt lat="59.1043085977" lon="30.0455428753"><ele>71.84</ele><time>2026-04-23T19:41:06Z</time></trkpt><trkpt lat="59.1042994615" lon="30.0455624890"><ele>73.13</ele><time>2026-04-23T19:41:27Z</time></trkpt><trkpt lat="59.1042370163" lon="30.0456613954"><ele>73.42</ele><time>2026-04-23T19:41:43Z</time></trkpt><trkpt lat="59.1042018961" lon="30.0457316358"><ele>72.64</ele><time>2026-04-23T19:41:57Z</time></trkpt><trkpt lat="59.1041237768" lon="30.0456139538"><ele>70.07</ele><time>2026-04-23T19:42:24Z</time></trkpt><trkpt lat="59.1040829569" lon="30.0455353316"><ele>70.38</ele><time>2026-04-23T19:42:38Z</time></trkpt><trkpt lat="59.1040207632" lon="30.0454974454"><ele>72.12</ele><time>2026-04-23T19:42:48Z</time></trkpt><trkpt lat="59.1039901692" lon="30.0453059189"><ele>72.40</ele><time>2026-04-23T19:43:12Z</time></trkpt><trkpt lat="59.1039129719" lon="30.0452005584"><ele>73.55</ele><time>2026-04-23T19:43:30Z</time></trkpt><trkpt lat="59.1038367804" lon="30.0451676175"><ele>75.21</ele><time>2026-04-23T19:43:51Z</time></trkpt><trkpt lat="59.1037223674" lon="30.0451369397"><ele>73.54</ele><time>2026-04-23T19:44:08Z</time></trkpt><trkpt lat="59.1036433261" lon="30.0452165678"><ele>72.22</ele><time>2026-04-23T19:44:22Z</time></trkpt><trkpt lat="59.1036001593" lon="30.0452385284"><ele>71.60</ele><time>2026-04-23T19:44:36Z</time></trkpt><trkpt lat="59.1034784541" lon="30.0452531967"><ele>73.07</ele><time>2026-04-23T19:44:48Z</time></trkpt><trkpt lat="59.1033664718" lon="30.0452077668"><ele>70.36</ele><time>2026-04-23T19:45:05Z</time></trkpt><trkpt lat="59.1033342853" lon="30.0452003907"><ele>71.28</ele><time>2026-04-23T19:45:23Z</time></trkpt><trkpt lat="59.1033390630" lon="30.0452295598"><ele>72.65</ele><time>2026-04-23T19:46:22Z</time></trkpt><trkpt lat="59.1032911185" lon="30.0451304857"><ele>72.39</ele><time>2026-04-23T19:46:55Z</time></trkpt><trkpt lat="59.1032921243" lon="30.0450565573"><ele>72.53</ele><time>2026-04-23T19:47:02Z</time></trkpt><trkpt lat="59.1033035237" lon="30.0449096225"><ele>71.62</ele><time>2026-04-23T19:47:13Z</time></trkpt><trkpt lat="59.1032519750" lon="30.0447683875"><ele>71.41</ele><time>2026-04-23T19:47:26Z</time></trkpt><trkpt lat="59.1032531485" lon="30.0447079539"><ele>72.03</ele><time>2026-04-23T19:47:32Z</time></trkpt><trkpt lat="59.1032554954" lon="30.0444956403"><ele>73.40</ele><time>2026-04-23T19:47:47Z</time></trkpt><trkpt lat="59.1032617819" lon="30.0443470292"><ele>73.76</ele><time>2026-04-23T19:48:00Z</time></trkpt><trkpt lat="59.1032445990" lon="30.0441502221"><ele>72.61</ele><time>2026-04-23T19:48:15Z</time></trkpt><trkpt lat="59.1032468621" lon="30.0439975876"><ele>73.21</ele><time>2026-04-23T19:48:28Z</time></trkpt><trkpt lat="59.1032429226" lon="30.0438332185"><ele>74.03</ele><time>2026-04-23T19:48:42Z</time></trkpt><trkpt lat="59.1031973250" lon="30.0437295344"><ele>74.46</ele><time>2026-04-23T19:48:55Z</time></trkpt><trkpt lat="59.1031999234" lon="30.0434968527"><ele>78.34</ele><time>2026-04-23T19:49:11Z</time></trkpt><trkpt lat="59.1032361332" lon="30.0435081683"><ele>74.45</ele><time>2026-04-23T19:49:43Z</time></trkpt><trkpt lat="59.1032413300" lon="30.0435369182"><ele>73.02</ele><time>2026-04-23T19:50:25Z</time></trkpt><trkpt lat="59.1032766178" lon="30.0435083359"><ele>72.97</ele><time>2026-04-23T19:51:02Z</time></trkpt><trkpt lat="59.1033401527" lon="30.0435146224"><ele>73.62</ele><time>2026-04-23T19:51:14Z</time></trkpt><trkpt lat="59.1033570841" lon="30.0434682705"><ele>73.03</ele><time>2026-04-23T19:51:18Z</time></trkpt><trkpt lat="59.1033759434" lon="30.0434991997"><ele>72.16</ele><time>2026-04-23T19:51:28Z</time></trkpt><trkpt lat="59.1034478601" lon="30.0434554461"><ele>71.18</ele><time>2026-04-23T19:51:44Z</time></trkpt><trkpt lat="59.1034991574" lon="30.0433608983"><ele>72.72</ele><time>2026-04-23T19:51:58Z</time></trkpt><trkpt lat="59.1035477724" lon="30.0433130376"><ele>71.55</ele><time>2026-04-23T19:52:11Z</time></trkpt><trkpt lat="59.1035821382" lon="30.0433275383"><ele>72.03</ele><time>2026-04-23T19:52:16Z</time></trkpt><trkpt lat="59.1036020871" lon="30.0433357526"><ele>71.08</ele><time>2026-04-23T19:52:26Z</time></trkpt><trkpt lat="59.1036036797" lon="30.0432076771"><ele>68.64</ele><time>2026-04-23T19:52:40Z</time></trkpt><trkpt lat="59.1036547255" lon="30.0431995466"><ele>69.56</ele><time>2026-04-23T19:52:53Z</time></trkpt><trkpt lat="59.1036520433" lon="30.0431859680"><ele>69.23</ele><time>2026-04-23T19:53:14Z</time></trkpt><trkpt lat="59.1036686394" lon="30.0431819446"><ele>70.04</ele><time>2026-04-23T19:53:43Z</time></trkpt><trkpt lat="59.1037028376" lon="30.0432602316"><ele>70.14</ele><time>2026-04-23T19:53:57Z</time></trkpt><trkpt lat="59.1037361976" lon="30.0433150493"><ele>70.59</ele><time>2026-04-23T19:54:11Z</time></trkpt><trkpt lat="59.1038036719" lon="30.0434057415"><ele>71.05</ele><time>2026-04-23T19:54:25Z</time></trkpt><trkpt lat="59.1038097907" lon="30.0434338208"><ele>71.42</ele><time>2026-04-23T19:54:27Z</time></trkpt><trkpt lat="59.1038580704" lon="30.0435567833"><ele>74.72</ele><time>2026-04-23T19:54:40Z</time></trkpt><trkpt lat="59.1038907599" lon="30.0435158797"><ele>72.65</ele><time>2026-04-23T19:54:56Z</time></trkpt><trkpt lat="59.1039153188" lon="30.0435764808"><ele>72.02</ele><time>2026-04-23T19:55:14Z</time></trkpt><trkpt lat="59.1039106250" lon="30.0435606390"><ele>71.87</ele><time>2026-04-23T19:55:46Z</time></trkpt><trkpt lat="59.1039087810" lon="30.0435679313"><ele>72.08</ele><time>2026-04-23T19:56:27Z</time></trkpt><trkpt lat="59.1039319988" lon="30.0435696915"><ele>72.48</ele><time>2026-04-23T19:56:57Z</time></trkpt><trkpt lat="59.1039835475" lon="30.0436257664"><ele>71.97</ele><time>2026-04-23T19:57:15Z</time></trkpt><trkpt lat="59.1040248703" lon="30.0435793307"><ele>70.54</ele><time>2026-04-23T19:57:29Z</time></trkpt><trkpt lat="59.1040647682" lon="30.0436393451"><ele>72.02</ele><time>2026-04-23T19:57:42Z</time></trkpt><trkpt lat="59.1041269619" lon="30.0436748844"><ele>73.42</ele><time>2026-04-23T19:57:55Z</time></trkpt><trkpt lat="59.1041947715" lon="30.0436670892"><ele>71.90</ele><time>2026-04-23T19:58:05Z</time></trkpt><trkpt lat="59.1041946877" lon="30.0436744653"><ele>72.08</ele><time>2026-04-23T19:58:07Z</time></trkpt><trkpt lat="59.1042110324" lon="30.0436977670"><ele>71.94</ele><time>2026-04-23T19:58:18Z</time></trkpt><trkpt lat="59.1042140499" lon="30.0437469687"><ele>72.42</ele><time>2026-04-23T19:58:30Z</time></trkpt><trkpt lat="59.1042763274" lon="30.0438399240"><ele>73.68</ele><time>2026-04-23T19:58:44Z</time></trkpt><trkpt lat="59.1043404490" lon="30.0437915605"><ele>73.93</ele><time>2026-04-23T19:59:00Z</time></trkpt><trkpt lat="59.1044122819" lon="30.0437245890"><ele>71.47</ele><time>2026-04-23T19:59:12Z</time></trkpt><trkpt lat="59.1044128686" lon="30.0436909776"><ele>71.44</ele><time>2026-04-23T19:59:33Z</time></trkpt><trkpt lat="59.1044110246" lon="30.0435793307"><ele>72.13</ele><time>2026-04-23T19:59:54Z</time></trkpt><trkpt lat="59.1044167243" lon="30.0435179751"><ele>72.58</ele><time>2026-04-23T20:00:16Z</time></trkpt><trkpt lat="59.1044254415" lon="30.0434670970"><ele>72.69</ele><time>2026-04-23T20:00:38Z</time></trkpt><trkpt lat="59.1044566222" lon="30.0433335733"><ele>71.84</ele><time>2026-04-23T20:01:00Z</time></trkpt><trkpt lat="59.1045196541" lon="30.0432277936"><ele>71.33</ele><time>2026-04-23T20:01:20Z</time></trkpt><trkpt lat="59.1045753937" lon="30.0431665219"><ele>72.72</ele><time>2026-04-23T20:01:53Z</time></trkpt><trkpt lat="59.1045966838" lon="30.0431490876"><ele>72.99</ele><time>2026-04-23T20:02:30Z</time></trkpt><trkpt lat="59.1046305466" lon="30.0431021489"><ele>75.79</ele><time>2026-04-23T20:02:58Z</time></trkpt><trkpt lat="59.1046768986" lon="30.0430492591"><ele>75.24</ele><time>2026-04-23T20:03:14Z</time></trkpt><trkpt lat="59.1047560237" lon="30.0429951958"><ele>74.91</ele><time>2026-04-23T20:03:30Z</time></trkpt><trkpt lat="59.1047733743" lon="30.0430092774"><ele>75.04</ele><time>2026-04-23T20:03:34Z</time></trkpt><trkpt lat="59.1048126854" lon="30.0429802760"><ele>74.30</ele><time>2026-04-23T20:03:46Z</time></trkpt><trkpt lat="59.1048444528" lon="30.0429673679"><ele>73.62</ele><time>2026-04-23T20:04:00Z</time></trkpt><trkpt lat="59.1048527509" lon="30.0429642666"><ele>72.89</ele><time>2026-04-23T20:04:04Z</time></trkpt><trkpt lat="59.1049141902" lon="30.0429370254"><ele>75.25</ele><time>2026-04-23T20:04:16Z</time></trkpt><trkpt lat="59.1049616318" lon="30.0428649411"><ele>73.41</ele><time>2026-04-23T20:04:29Z</time></trkpt><trkpt lat="59.1049904656" lon="30.0428022444"><ele>74.01</ele><time>2026-04-23T20:04:43Z</time></trkpt><trkpt lat="59.1050138511" lon="30.0427294895"><ele>74.18</ele><time>2026-04-23T20:04:56Z</time></trkpt><trkpt lat="59.1050674953" lon="30.0427214429"><ele>72.87</ele><time>2026-04-23T20:05:11Z</time></trkpt><trkpt lat="59.1051108297" lon="30.0426836405"><ele>73.37</ele><time>2026-04-23T20:05:22Z</time></trkpt><trkpt lat="59.1051854286" lon="30.0427196827"><ele>72.73</ele><time>2026-04-23T20:05:36Z</time></trkpt><trkpt lat="59.1052852571" lon="30.0427256338"><ele>71.39</ele><time>2026-04-23T20:05:52Z</time></trkpt><trkpt lat="59.1053936351" lon="30.0425667968"><ele>72.85</ele><time>2026-04-23T20:06:11Z</time></trkpt><trkpt lat="59.1054018494" lon="30.0424916949"><ele>72.38</ele><time>2026-04-23T20:06:29Z</time></trkpt><trkpt lat="59.1054141708" lon="30.0424384698"><ele>73.62</ele><time>2026-04-23T20:07:27Z</time></trkpt><trkpt lat="59.1054457705" lon="30.0424206164"><ele>71.86</ele><time>2026-04-23T20:07:46Z</time></trkpt><trkpt lat="59.1055303439" lon="30.0422279164"><ele>74.11</ele><time>2026-04-23T20:08:02Z</time></trkpt><trkpt lat="59.1056009196" lon="30.0421126653"><ele>73.30</ele><time>2026-04-23T20:08:17Z</time></trkpt><trkpt lat="59.1056981497" lon="30.0420668162"><ele>73.28</ele><time>2026-04-23T20:08:30Z</time></trkpt><trkpt lat="59.1057066992" lon="30.0420842506"><ele>72.62</ele><time>2026-04-23T20:08:56Z</time></trkpt><trkpt lat="59.1056890972" lon="30.0420678221"><ele>72.22</ele><time>2026-04-23T20:09:23Z</time></trkpt><trkpt lat="59.1056795418" lon="30.0420779642"><ele>71.12</ele><time>2026-04-23T20:09:52Z</time></trkpt><trkpt lat="59.1056934558" lon="30.0420947280"><ele>71.50</ele><time>2026-04-23T20:10:19Z</time></trkpt><trkpt lat="59.1057288274" lon="30.0420436822"><ele>71.00</ele><time>2026-04-23T20:10:38Z</time></trkpt><trkpt lat="59.1058093775" lon="30.0419657305"><ele>71.62</ele><time>2026-04-23T20:10:53Z</time></trkpt><trkpt lat="59.1058828868" lon="30.0418932270"><ele>71.11</ele><time>2026-04-23T20:11:10Z</time></trkpt><trkpt lat="59.1059981380" lon="30.0418904610"><ele>71.02</ele><time>2026-04-23T20:11:23Z</time></trkpt><trkpt lat="59.1060119681" lon="30.0418815762"><ele>71.22</ele><time>2026-04-23T20:11:26Z</time></trkpt><trkpt lat="59.1061249562" lon="30.0418721884"><ele>71.34</ele><time>2026-04-23T20:11:40Z</time></trkpt><trkpt lat="59.1061413847" lon="30.0418400858"><ele>72.14</ele><time>2026-04-23T20:12:09Z</time></trkpt><trkpt lat="59.1061599925" lon="30.0418292731"><ele>73.88</ele><time>2026-04-23T20:12:52Z</time></trkpt><trkpt lat="59.1061833780" lon="30.0418297760"><ele>74.16</ele><time>2026-04-23T20:13:07Z</time></trkpt><trkpt lat="59.1062221862" lon="30.0417883694"><ele>71.90</ele><time>2026-04-23T20:13:21Z</time></trkpt><trkpt lat="59.1062667780" lon="30.0416919775"><ele>68.60</ele><time>2026-04-23T20:13:40Z</time></trkpt><trkpt lat="59.1063140519" lon="30.0416014530"><ele>69.20</ele><time>2026-04-23T20:13:56Z</time></trkpt><trkpt lat="59.1063597333" lon="30.0415504910"><ele>71.12</ele><time>2026-04-23T20:14:08Z</time></trkpt><trkpt lat="59.1064508446" lon="30.0414895546"><ele>72.22</ele><time>2026-04-23T20:14:24Z</time></trkpt><trkpt lat="59.1064926703" lon="30.0414329767"><ele>71.42</ele><time>2026-04-23T20:14:38Z</time></trkpt><trkpt lat="59.1065194923" lon="30.0414572842"><ele>72.53</ele><time>2026-04-23T20:14:51Z</time></trkpt><trkpt lat="59.1065489966" lon="30.0415105931"><ele>71.16</ele><time>2026-04-23T20:15:09Z</time></trkpt><trkpt lat="59.1065891460" lon="30.0415350683"><ele>69.21</ele><time>2026-04-23T20:15:26Z</time></trkpt><trkpt lat="59.1066544410" lon="30.0413747225"><ele>68.87</ele><time>2026-04-23T20:15:39Z</time></trkpt><trkpt lat="59.1066773236" lon="30.0412573759"><ele>68.33</ele><time>2026-04-23T20:15:53Z</time></trkpt><trkpt lat="59.1066667624" lon="30.0410967786"><ele>69.41</ele><time>2026-04-23T20:16:10Z</time></trkpt><trkpt lat="59.1067047324" lon="30.0409628358"><ele>71.25</ele><time>2026-04-23T20:16:23Z</time></trkpt><trkpt lat="59.1067303810" lon="30.0408686232"><ele>72.24</ele><time>2026-04-23T20:16:38Z</time></trkpt><trkpt lat="59.1067412775" lon="30.0408510212"><ele>72.21</ele><time>2026-04-23T20:16:57Z</time></trkpt><trkpt lat="59.1067548562" lon="30.0408172421"><ele>72.95</ele><time>2026-04-23T20:17:14Z</time></trkpt><trkpt lat="59.1067702789" lon="30.0407790206"><ele>74.21</ele><time>2026-04-23T20:17:38Z</time></trkpt><trkpt lat="59.1067498270" lon="30.0407679565"><ele>76.45</ele><time>2026-04-23T20:18:09Z</time></trkpt><trkpt lat="59.1067434568" lon="30.0407377817"><ele>76.24</ele><time>2026-04-23T20:18:36Z</time></trkpt><trkpt lat="59.1067439597" lon="30.0407357700"><ele>76.51</ele><time>2026-04-23T20:18:37Z</time></trkpt><trkpt lat="59.1067710333" lon="30.0407564733"><ele>75.26</ele><time>2026-04-23T20:18:46Z</time></trkpt><trkpt lat="59.1068419442" lon="30.0407585688"><ele>73.60</ele><time>2026-04-23T20:19:00Z</time></trkpt><trkpt lat="59.1068743821" lon="30.0407782663"><ele>75.53</ele><time>2026-04-23T20:19:14Z</time></trkpt><trkpt lat="59.1068822611" lon="30.0407546293"><ele>75.77</ele><time>2026-04-23T20:19:32Z</time></trkpt><trkpt lat="59.1068862844" lon="30.0407093670"><ele>75.45</ele><time>2026-04-23T20:20:00Z</time></trkpt><trkpt lat="59.1068862844" lon="30.0406178366"><ele>76.14</ele><time>2026-04-23T20:20:15Z</time></trkpt><trkpt lat="59.1068528406" lon="30.0405438244"><ele>76.96</ele><time>2026-04-23T20:20:28Z</time></trkpt><trkpt lat="59.1068652458" lon="30.0405113865"><ele>77.22</ele><time>2026-04-23T20:20:44Z</time></trkpt><trkpt lat="59.1069149505" lon="30.0404871628"><ele>75.50</ele><time>2026-04-23T20:21:11Z</time></trkpt><trkpt lat="59.1069557704" lon="30.0404444989"><ele>76.78</ele><time>2026-04-23T20:21:27Z</time></trkpt><trkpt lat="59.1069651581" lon="30.0404022541"><ele>75.61</ele><time>2026-04-23T20:21:47Z</time></trkpt><trkpt lat="59.1070061456" lon="30.0403799582"><ele>75.28</ele><time>2026-04-23T20:22:07Z</time></trkpt><trkpt lat="59.1070862766" lon="30.0404619332"><ele>75.05</ele><time>2026-04-23T20:22:21Z</time></trkpt><trkpt lat="59.1071739513" lon="30.0403371267"><ele>75.63</ele><time>2026-04-23T20:22:39Z</time></trkpt><trkpt lat="59.1071749572" lon="30.0401869230"><ele>78.32</ele><time>2026-04-23T20:22:58Z</time></trkpt><trkpt lat="59.1071303654" lon="30.0400427543"><ele>76.75</ele><time>2026-04-23T20:23:15Z</time></trkpt><trkpt lat="59.1071480513" lon="30.0399202947"><ele>76.18</ele><time>2026-04-23T20:23:29Z</time></trkpt><trkpt lat="59.1071701795" lon="30.0397603679"><ele>76.57</ele><time>2026-04-23T20:23:46Z</time></trkpt><trkpt lat="59.1071703471" lon="30.0396158639"><ele>77.51</ele><time>2026-04-23T20:24:02Z</time></trkpt><trkpt lat="59.1072462872" lon="30.0394904707"><ele>76.82</ele><time>2026-04-23T20:24:17Z</time></trkpt><trkpt lat="59.1073045414" lon="30.0393525884"><ele>76.89</ele><time>2026-04-23T20:24:30Z</time></trkpt><trkpt lat="59.1074213851" lon="30.0393636525"><ele>76.92</ele><time>2026-04-23T20:24:49Z</time></trkpt><trkpt lat="59.1074445192" lon="30.0393526722"><ele>75.99</ele><time>2026-04-23T20:25:04Z</time></trkpt><trkpt lat="59.1074355505" lon="30.0393511634"><ele>78.17</ele><time>2026-04-23T20:25:39Z</time></trkpt><trkpt lat="59.1074617859" lon="30.0393863674"><ele>79.59</ele><time>2026-04-23T20:26:20Z</time></trkpt><trkpt lat="59.1074236482" lon="30.0392992795"><ele>77.89</ele><time>2026-04-23T20:26:39Z</time></trkpt><trkpt lat="59.1073361412" lon="30.0392836891"><ele>77.13</ele><time>2026-04-23T20:26:56Z</time></trkpt><trkpt lat="59.1073094867" lon="30.0392383430"><ele>77.95</ele><time>2026-04-23T20:27:10Z</time></trkpt><trkpt lat="59.1073218919" lon="30.0392634887"><ele>73.44</ele><time>2026-04-23T20:28:10Z</time></trkpt><trkpt lat="59.1073252447" lon="30.0392755587"><ele>72.66</ele><time>2026-04-23T20:29:12Z</time></trkpt><trkpt lat="59.1073122527" lon="30.0392650813"><ele>75.47</ele><time>2026-04-23T20:30:29Z</time></trkpt><trkpt lat="59.1073241550" lon="30.0392891373"><ele>75.54</ele><time>2026-04-23T20:31:51Z</time></trkpt><trkpt lat="59.1073262505" lon="30.0392964296"><ele>77.77</ele><time>2026-04-23T20:33:11Z</time></trkpt><trkpt lat="59.1073406674" lon="30.0392960943"><ele>79.05</ele><time>2026-04-23T20:34:10Z</time></trkpt><trkpt lat="59.1073358897" lon="30.0392686855"><ele>80.24</ele><time>2026-04-23T20:34:48Z</time></trkpt><trkpt lat="59.1073567607" lon="30.0392392650"><ele>78.52</ele><time>2026-04-23T20:35:55Z</time></trkpt><trkpt lat="59.1072971653" lon="30.0392933283"><ele>78.52</ele><time>2026-04-23T20:36:49Z</time></trkpt><trkpt lat="59.1073044576" lon="30.0393030513"><ele>76.65</ele><time>2026-04-23T20:37:26Z</time></trkpt><trkpt lat="59.1072924715" lon="30.0393545162"><ele>76.46</ele><time>2026-04-23T20:37:55Z</time></trkpt><trkpt lat="59.1072449461" lon="30.0394806638"><ele>75.62</ele><time>2026-04-23T20:38:10Z</time></trkpt><trkpt lat="59.1071737837" lon="30.0394709408"><ele>75.28</ele><time>2026-04-23T20:38:23Z</time></trkpt><trkpt lat="59.1071002744" lon="30.0394618884"><ele>74.93</ele><time>2026-04-23T20:38:36Z</time></trkpt><trkpt lat="59.1070050560" lon="30.0395737868"><ele>76.21</ele><time>2026-04-23T20:38:50Z</time></trkpt><trkpt lat="59.1069732886" lon="30.0397602841"><ele>74.57</ele><time>2026-04-23T20:39:06Z</time></trkpt><trkpt lat="59.1069635656" lon="30.0399467815"><ele>75.26</ele><time>2026-04-23T20:39:18Z</time></trkpt><trkpt lat="59.1069549322" lon="30.0401106477"><ele>75.81</ele><time>2026-04-23T20:39:32Z</time></trkpt><trkpt lat="59.1069093347" lon="30.0401697401"><ele>75.59</ele><time>2026-04-23T20:39:45Z</time></trkpt><trkpt lat="59.1068924870" lon="30.0401830673"><ele>73.62</ele><time>2026-04-23T20:39:59Z</time></trkpt><trkpt lat="59.1068514995" lon="30.0403098855"><ele>74.09</ele><time>2026-04-23T20:40:12Z</time></trkpt><trkpt lat="59.1068046447" lon="30.0403178483"><ele>74.12</ele><time>2026-04-23T20:40:24Z</time></trkpt><trkpt lat="59.1067656688" lon="30.0403481908"><ele>73.71</ele><time>2026-04-23T20:40:35Z</time></trkpt><trkpt lat="59.1067013796" lon="30.0404405594"><ele>72.70</ele><time>2026-04-23T20:40:53Z</time></trkpt><trkpt lat="59.1066565365" lon="30.0404417329"><ele>71.57</ele><time>2026-04-23T20:41:10Z</time></trkpt><trkpt lat="59.1066079214" lon="30.0404183473"><ele>73.47</ele><time>2026-04-23T20:41:37Z</time></trkpt><trkpt lat="59.1065981984" lon="30.0404096302"><ele>74.01</ele><time>2026-04-23T20:42:24Z</time></trkpt><trkpt lat="59.1065853741" lon="30.0404666271"><ele>72.96</ele><time>2026-04-23T20:42:52Z</time></trkpt><trkpt lat="59.1065538581" lon="30.0404684711"><ele>72.21</ele><time>2026-04-23T20:43:03Z</time></trkpt><trkpt lat="59.1065088473" lon="30.0404508691"><ele>71.96</ele><time>2026-04-23T20:43:15Z</time></trkpt><trkpt lat="59.1064945981" lon="30.0404022541"><ele>72.63</ele><time>2026-04-23T20:43:36Z</time></trkpt><trkpt lat="59.1064699553" lon="30.0403448381"><ele>73.05</ele><time>2026-04-23T20:43:53Z</time></trkpt><trkpt lat="59.1064374335" lon="30.0402896851"><ele>73.23</ele><time>2026-04-23T20:44:10Z</time></trkpt><trkpt lat="59.1063878965" lon="30.0402915291"><ele>74.32</ele><time>2026-04-23T20:44:33Z</time></trkpt><trkpt lat="59.1063295584" lon="30.0402538944"><ele>73.88</ele><time>2026-04-23T20:44:47Z</time></trkpt><trkpt lat="59.1062940191" lon="30.0402656291"><ele>71.64</ele><time>2026-04-23T20:45:02Z</time></trkpt><trkpt lat="59.1062902473" lon="30.0402523857"><ele>72.32</ele><time>2026-04-23T20:45:20Z</time></trkpt><trkpt lat="59.1062840447" lon="30.0403393898"><ele>70.91</ele><time>2026-04-23T20:45:59Z</time></trkpt><trkpt lat="59.1062597372" lon="30.0404439960"><ele>70.89</ele><time>2026-04-23T20:46:11Z</time></trkpt><trkpt lat="59.1062146425" lon="30.0405404717"><ele>70.68</ele><time>2026-04-23T20:46:20Z</time></trkpt><trkpt lat="59.1061893292" lon="30.0407052599"><ele>71.23</ele><time>2026-04-23T20:46:34Z</time></trkpt><trkpt lat="59.1061475873" lon="30.0407444872"><ele>72.91</ele><time>2026-04-23T20:46:44Z</time></trkpt><trkpt lat="59.1061066836" lon="30.0408226904"><ele>72.90</ele><time>2026-04-23T20:47:01Z</time></trkpt><trkpt lat="59.1060302407" lon="30.0409105327"><ele>72.81</ele><time>2026-04-23T20:47:16Z</time></trkpt><trkpt lat="59.1060239542" lon="30.0409402885"><ele>73.63</ele><time>2026-04-23T20:47:18Z</time></trkpt><trkpt lat="59.1059645265" lon="30.0410886481"><ele>75.05</ele><time>2026-04-23T20:47:29Z</time></trkpt><trkpt lat="59.1059067752" lon="30.0412113592"><ele>77.58</ele><time>2026-04-23T20:47:45Z</time></trkpt><trkpt lat="59.1059065238" lon="30.0412041508"><ele>77.43</ele><time>2026-04-23T20:47:46Z</time></trkpt><trkpt lat="59.1058605909" lon="30.0412110239"><ele>77.03</ele><time>2026-04-23T20:47:54Z</time></trkpt><trkpt lat="59.1058146581" lon="30.0411427952"><ele>75.63</ele><time>2026-04-23T20:48:09Z</time></trkpt><trkpt lat="59.1057552304" lon="30.0411656778"><ele>76.54</ele><time>2026-04-23T20:48:27Z</time></trkpt><trkpt lat="59.1057109740" lon="30.0412137900"><ele>77.57</ele><time>2026-04-23T20:48:42Z</time></trkpt><trkpt lat="59.1056205332" lon="30.0412059948"><ele>77.20</ele><time>2026-04-23T20:48:54Z</time></trkpt><trkpt lat="59.1055372171" lon="30.0412651710"><ele>77.37</ele><time>2026-04-23T20:49:08Z</time></trkpt><trkpt lat="59.1055458505" lon="30.0412348285"><ele>76.65</ele><time>2026-04-23T20:49:42Z</time></trkpt><trkpt lat="59.1055613570" lon="30.0412432943"><ele>76.30</ele><time>2026-04-23T20:50:36Z</time></trkpt><trkpt lat="59.1055225488" lon="30.0412793364"><ele>75.90</ele><time>2026-04-23T20:50:48Z</time></trkpt><trkpt lat="59.1054148413" lon="30.0413252693"><ele>75.40</ele><time>2026-04-23T20:51:05Z</time></trkpt><trkpt lat="59.1053430922" lon="30.0414692704"><ele>74.77</ele><time>2026-04-23T20:51:19Z</time></trkpt><trkpt lat="59.1053144261" lon="30.0415694341"><ele>75.91</ele><time>2026-04-23T20:51:34Z</time></trkpt><trkpt lat="59.1053161863" lon="30.0415938254"><ele>76.05</ele><time>2026-04-23T20:51:36Z</time></trkpt><trkpt lat="59.1052810661" lon="30.0417586975"><ele>78.20</ele><time>2026-04-23T20:51:49Z</time></trkpt><trkpt lat="59.1052524839" lon="30.0418241601"><ele>79.70</ele><time>2026-04-23T20:52:02Z</time></trkpt><trkpt lat="59.1051540803" lon="30.0418228190"><ele>79.95</ele><time>2026-04-23T20:52:19Z</time></trkpt><trkpt lat="59.1050967481" lon="30.0419234857"><ele>80.36</ele><time>2026-04-23T20:52:38Z</time></trkpt><trkpt lat="59.1050288547" lon="30.0420068856"><ele>80.26</ele><time>2026-04-23T20:52:53Z</time></trkpt><trkpt lat="59.1049387492" lon="30.0420611165"><ele>77.38</ele><time>2026-04-23T20:53:07Z</time></trkpt><trkpt lat="59.1048699338" lon="30.0421856716"><ele>76.97</ele><time>2026-04-23T20:53:20Z</time></trkpt><trkpt lat="59.1048016213" lon="30.0422664732"><ele>76.14</ele><time>2026-04-23T20:53:32Z</time></trkpt><trkpt lat="59.1047787387" lon="30.0422689877"><ele>76.70</ele><time>2026-04-23T20:53:45Z</time></trkpt><trkpt lat="59.1047666688" lon="30.0422672275"><ele>77.63</ele><time>2026-04-23T20:54:17Z</time></trkpt><trkpt lat="59.1047760565" lon="30.0423161779"><ele>77.52</ele><time>2026-04-23T20:55:04Z</time></trkpt><trkpt lat="59.1047814209" lon="30.0423935428"><ele>78.24</ele><time>2026-04-23T20:55:43Z</time></trkpt><trkpt lat="59.1047779843" lon="30.0423909444"><ele>78.34</ele><time>2026-04-23T20:56:16Z</time></trkpt><trkpt lat="59.1047838517" lon="30.0424048584"><ele>77.98</ele><time>2026-04-23T20:56:33Z</time></trkpt><trkpt lat="59.1047690995" lon="30.0423091371"><ele>76.56</ele><time>2026-04-23T20:56:49Z</time></trkpt><trkpt lat="59.1047295369" lon="30.0422800519"><ele>76.89</ele><time>2026-04-23T20:57:22Z</time></trkpt><trkpt lat="59.1046649963" lon="30.0423953868"><ele>76.47</ele><time>2026-04-23T20:57:35Z</time></trkpt><trkpt lat="59.1045871284" lon="30.0425114762"><ele>75.91</ele><time>2026-04-23T20:57:50Z</time></trkpt><trkpt lat="59.1045626532" lon="30.0425748434"><ele>75.40</ele><time>2026-04-23T20:58:07Z</time></trkpt><trkpt lat="59.1044804268" lon="30.0426614285"><ele>76.09</ele><time>2026-04-23T20:58:23Z</time></trkpt><trkpt lat="59.1044911556" lon="30.0428416394"><ele>75.12</ele><time>2026-04-23T20:58:36Z</time></trkpt><trkpt lat="59.1044408642" lon="30.0429598242"><ele>74.11</ele><time>2026-04-23T20:58:50Z</time></trkpt><trkpt lat="59.1044263635" lon="30.0430422183"><ele>73.66</ele><time>2026-04-23T20:59:06Z</time></trkpt><trkpt lat="59.1044331528" lon="30.0432176515"><ele>74.45</ele><time>2026-04-23T20:59:18Z</time></trkpt><trkpt lat="59.1043919977" lon="30.0432732236"><ele>74.50</ele><time>2026-04-23T20:59:33Z</time></trkpt><trkpt lat="59.1043663491" lon="30.0433123671"><ele>74.46</ele><time>2026-04-23T20:59:45Z</time></trkpt><trkpt lat="59.1043224279" lon="30.0434098486"><ele>74.38</ele><time>2026-04-23T21:00:03Z</time></trkpt><trkpt lat="59.1042627487" lon="30.0434263609"><ele>73.57</ele><time>2026-04-23T21:00:23Z</time></trkpt><trkpt lat="59.1041951906" lon="30.0434407778"><ele>73.51</ele><time>2026-04-23T21:00:38Z</time></trkpt><trkpt lat="59.1041921731" lon="30.0434013829"><ele>74.16</ele><time>2026-04-23T21:00:55Z</time></trkpt><trkpt lat="59.1041116230" lon="30.0432911608"><ele>74.14</ele><time>2026-04-23T21:01:09Z</time></trkpt><trkpt lat="59.1040051728" lon="30.0432666857"><ele>72.52</ele><time>2026-04-23T21:01:23Z</time></trkpt><trkpt lat="59.1039580666" lon="30.0432325713"><ele>72.72</ele><time>2026-04-23T21:01:38Z</time></trkpt><trkpt lat="59.1039333399" lon="30.0432170648"><ele>70.77</ele><time>2026-04-23T21:01:51Z</time></trkpt><trkpt lat="59.1039252933" lon="30.0432429649"><ele>70.87</ele><time>2026-04-23T21:02:08Z</time></trkpt><trkpt lat="59.1038971301" lon="30.0432358403"><ele>71.42</ele><time>2026-04-23T21:02:13Z</time></trkpt><trkpt lat="59.1038408875" lon="30.0431850459"><ele>74.69</ele><time>2026-04-23T21:02:28Z</time></trkpt><trkpt lat="59.1037779395" lon="30.0431606546"><ele>75.87</ele><time>2026-04-23T21:02:47Z</time></trkpt><trkpt lat="59.1037218645" lon="30.0431219302"><ele>77.03</ele><time>2026-04-23T21:03:00Z</time></trkpt><trkpt lat="59.1036772728" lon="30.0431337487"><ele>76.98</ele><time>2026-04-23T21:03:16Z</time></trkpt><trkpt lat="59.1036766861" lon="30.0431550387"><ele>77.91</ele><time>2026-04-23T21:03:54Z</time></trkpt><trkpt lat="59.1036349442" lon="30.0431553740"><ele>74.00</ele><time>2026-04-23T21:04:32Z</time></trkpt><trkpt lat="59.1035851557" lon="30.0431410410"><ele>72.57</ele><time>2026-04-23T21:04:46Z</time></trkpt><trkpt lat="59.1034983192" lon="30.0429093651"><ele>74.00</ele><time>2026-04-23T21:05:08Z</time></trkpt><trkpt lat="59.1034268215" lon="30.0428784359"><ele>74.95</ele><time>2026-04-23T21:05:21Z</time></trkpt><trkpt lat="59.1033516359" lon="30.0429320801"><ele>75.02</ele><time>2026-04-23T21:05:35Z</time></trkpt><trkpt lat="59.1032721754" lon="30.0429218542"><ele>74.37</ele><time>2026-04-23T21:05:53Z</time></trkpt><trkpt lat="59.1032235604" lon="30.0428179186"><ele>76.48</ele><time>2026-04-23T21:06:11Z</time></trkpt><trkpt lat="59.1031465307" lon="30.0426543877"><ele>76.20</ele><time>2026-04-23T21:06:28Z</time></trkpt><trkpt lat="59.1030773800" lon="30.0425392203"><ele>74.32</ele><time>2026-04-23T21:06:45Z</time></trkpt><trkpt lat="59.1030391585" lon="30.0425573252"><ele>77.61</ele><time>2026-04-23T21:07:10Z</time></trkpt><trkpt lat="59.1030731890" lon="30.0425977260"><ele>77.65</ele><time>2026-04-23T21:07:46Z</time></trkpt><trkpt lat="59.1030855943" lon="30.0425711554"><ele>78.61</ele><time>2026-04-23T21:08:48Z</time></trkpt><trkpt lat="59.1030862648" lon="30.0425526313"><ele>80.22</ele><time>2026-04-23T21:09:15Z</time></trkpt><trkpt lat="59.1030697525" lon="30.0425663777"><ele>79.45</ele><time>2026-04-23T21:09:34Z</time></trkpt><trkpt lat="59.1029818263" lon="30.0424200296"><ele>79.05</ele><time>2026-04-23T21:09:50Z</time></trkpt><trkpt lat="59.1029461194" lon="30.0422649644"><ele>78.76</ele><time>2026-04-23T21:10:02Z</time></trkpt><trkpt lat="59.1029518191" lon="30.0421269983"><ele>78.27</ele><time>2026-04-23T21:10:15Z</time></trkpt><trkpt lat="59.1028726939" lon="30.0420571771"><ele>76.80</ele><time>2026-04-23T21:10:31Z</time></trkpt><trkpt lat="59.1027769726" lon="30.0419375673"><ele>77.54</ele><time>2026-04-23T21:10:45Z</time></trkpt><trkpt lat="59.1027143598" lon="30.0418112520"><ele>80.09</ele><time>2026-04-23T21:10:57Z</time></trkpt><trkpt lat="59.1027212329" lon="30.0417356472"><ele>79.74</ele><time>2026-04-23T21:11:12Z</time></trkpt><trkpt lat="59.1027280223" lon="30.0416639820"><ele>79.76</ele><time>2026-04-23T21:11:50Z</time></trkpt><trkpt lat="59.1027796548" lon="30.0415844377"><ele>78.74</ele><time>2026-04-23T21:12:23Z</time></trkpt><trkpt lat="59.1028454527" lon="30.0414993614"><ele>78.85</ele><time>2026-04-23T21:12:39Z</time></trkpt><trkpt lat="59.1028492246" lon="30.0413567852"><ele>78.68</ele><time>2026-04-23T21:12:51Z</time></trkpt><trkpt lat="59.1028911341" lon="30.0412794203"><ele>79.25</ele><time>2026-04-23T21:13:07Z</time></trkpt><trkpt lat="59.1029644758" lon="30.0412281230"><ele>79.73</ele><time>2026-04-23T21:13:21Z</time></trkpt><trkpt lat="59.1030609515" lon="30.0413060747"><ele>79.57</ele><time>2026-04-23T21:13:34Z</time></trkpt><trkpt lat="59.1031742748" lon="30.0413055718"><ele>79.60</ele><time>2026-04-23T21:13:48Z</time></trkpt><trkpt lat="59.1032979917" lon="30.0413131993"><ele>79.57</ele><time>2026-04-23T21:14:05Z</time></trkpt><trkpt lat="59.1033897735" lon="30.0413466431"><ele>79.09</ele><time>2026-04-23T21:14:20Z</time></trkpt><trkpt lat="59.1034758557" lon="30.0412397739"><ele>80.36</ele><time>2026-04-23T21:14:41Z</time></trkpt><trkpt lat="59.1035942920" lon="30.0412440486"><ele>81.46</ele><time>2026-04-23T21:15:00Z</time></trkpt><trkpt lat="59.1036633588" lon="30.0413394347"><ele>77.88</ele><time>2026-04-23T21:15:14Z</time></trkpt><trkpt lat="59.1037200205" lon="30.0413221680"><ele>77.30</ele><time>2026-04-23T21:15:25Z</time></trkpt><trkpt lat="59.1037972178" lon="30.0412857905"><ele>77.65</ele><time>2026-04-23T21:15:36Z</time></trkpt><trkpt lat="59.1038086172" lon="30.0412936695"><ele>79.09</ele><time>2026-04-23T21:16:14Z</time></trkpt><trkpt lat="59.1038065217" lon="30.0412559509"><ele>81.06</ele><time>2026-04-23T21:16:44Z</time></trkpt><trkpt lat="59.1037750896" lon="30.0411464833"><ele>82.03</ele><time>2026-04-23T21:16:59Z</time></trkpt><trkpt lat="59.1038146522" lon="30.0409675296"><ele>81.90</ele><time>2026-04-23T21:17:19Z</time></trkpt><trkpt lat="59.1038755886" lon="30.0408594869"><ele>81.72</ele><time>2026-04-23T21:17:28Z</time></trkpt><trkpt lat="59.1039476730" lon="30.0409376901"><ele>81.46</ele><time>2026-04-23T21:17:41Z</time></trkpt><trkpt lat="59.1040315758" lon="30.0410115346"><ele>81.04</ele><time>2026-04-23T21:17:55Z</time></trkpt><trkpt lat="59.1041467432" lon="30.0409862213"><ele>82.23</ele><time>2026-04-23T21:18:11Z</time></trkpt><trkpt lat="59.1042595636" lon="30.0409517717"><ele>83.33</ele><time>2026-04-23T21:18:25Z</time></trkpt><trkpt lat="59.1043240204" lon="30.0408628397"><ele>82.62</ele><time>2026-04-23T21:18:40Z</time></trkpt><trkpt lat="59.1043617390" lon="30.0408583973"><ele>82.67</ele><time>2026-04-23T21:19:01Z</time></trkpt><trkpt lat="59.1044690274" lon="30.0407853909"><ele>82.13</ele><time>2026-04-23T21:19:17Z</time></trkpt><trkpt lat="59.1045335680" lon="30.0406740792"><ele>81.46</ele><time>2026-04-23T21:19:37Z</time></trkpt><trkpt lat="59.1046318877" lon="30.0405257195"><ele>81.53</ele><time>2026-04-23T21:19:51Z</time></trkpt><trkpt lat="59.1046639904" lon="30.0404230412"><ele>83.16</ele><time>2026-04-23T21:20:11Z</time></trkpt><trkpt lat="59.1047113482" lon="30.0404437445"><ele>83.27</ele><time>2026-04-23T21:20:27Z</time></trkpt><trkpt lat="59.1047338955" lon="30.0404871628"><ele>83.69</ele><time>2026-04-23T21:21:06Z</time></trkpt><trkpt lat="59.1047259327" lon="30.0404740870"><ele>80.94</ele><time>2026-04-23T21:21:30Z</time></trkpt><trkpt lat="59.1047684290" lon="30.0404733326"><ele>80.70</ele><time>2026-04-23T21:21:49Z</time></trkpt><trkpt lat="59.1048179660" lon="30.0404309202"><ele>81.95</ele><time>2026-04-23T21:22:00Z</time></trkpt><trkpt lat="59.1048615519" lon="30.0404200237"><ele>80.51</ele><time>2026-04-23T21:22:20Z</time></trkpt><trkpt lat="59.1048951633" lon="30.0404009968"><ele>79.84</ele><time>2026-04-23T21:22:31Z</time></trkpt><trkpt lat="59.1048963368" lon="30.0403144956"><ele>80.73</ele><time>2026-04-23T21:22:45Z</time></trkpt><trkpt lat="59.1049196385" lon="30.0402718317"><ele>80.63</ele><time>2026-04-23T21:22:58Z</time></trkpt><trkpt lat="59.1049742885" lon="30.0403427426"><ele>82.86</ele><time>2026-04-23T21:23:12Z</time></trkpt><trkpt lat="59.1050453670" lon="30.0404232927"><ele>83.28</ele><time>2026-04-23T21:23:29Z</time></trkpt><trkpt lat="59.1050919704" lon="30.0404458400"><ele>83.21</ele><time>2026-04-23T21:23:50Z</time></trkpt><trkpt lat="59.1051353887" lon="30.0403208658"><ele>82.10</ele><time>2026-04-23T21:24:15Z</time></trkpt><trkpt lat="59.1051846743" lon="30.0401944667"><ele>82.20</ele><time>2026-04-23T21:24:33Z</time></trkpt><trkpt lat="59.1052269191" lon="30.0400905311"><ele>83.52</ele><time>2026-04-23T21:24:46Z</time></trkpt><trkpt lat="59.1052454431" lon="30.0400311872"><ele>83.82</ele><time>2026-04-23T21:25:03Z</time></trkpt><trkpt lat="59.1052712593" lon="30.0399084762"><ele>84.36</ele><time>2026-04-23T21:25:17Z</time></trkpt><trkpt lat="59.1053458583" lon="30.0398720987"><ele>84.85</ele><time>2026-04-23T21:25:31Z</time></trkpt><trkpt lat="59.1053921264" lon="30.0397639722"><ele>84.75</ele><time>2026-04-23T21:25:46Z</time></trkpt><trkpt lat="59.1054485366" lon="30.0397273432"><ele>81.62</ele><time>2026-04-23T21:26:07Z</time></trkpt><trkpt lat="59.1054973193" lon="30.0397367310"><ele>80.77</ele><time>2026-04-23T21:26:24Z</time></trkpt><trkpt lat="59.1055405699" lon="30.0396911334"><ele>82.92</ele><time>2026-04-23T21:26:37Z</time></trkpt><trkpt lat="59.1056311782" lon="30.0396475475"><ele>83.24</ele><time>2026-04-23T21:26:51Z</time></trkpt><trkpt lat="59.1057026759" lon="30.0395732839"><ele>83.18</ele><time>2026-04-23T21:27:03Z</time></trkpt><trkpt lat="59.1057533864" lon="30.0394716952"><ele>82.72</ele><time>2026-04-23T21:27:18Z</time></trkpt><trkpt lat="59.1057490278" lon="30.0394227449"><ele>83.45</ele><time>2026-04-23T21:27:46Z</time></trkpt><trkpt lat="59.1057522967" lon="30.0394162908"><ele>84.58</ele><time>2026-04-23T21:28:25Z</time></trkpt><trkpt lat="59.1057742573" lon="30.0394303724"><ele>87.09</ele><time>2026-04-23T21:28:56Z</time></trkpt><trkpt lat="59.1057804599" lon="30.0394252595"><ele>86.28</ele><time>2026-04-23T21:29:20Z</time></trkpt><trkpt lat="59.1057939548" lon="30.0393415242"><ele>85.57</ele><time>2026-04-23T21:29:34Z</time></trkpt><trkpt lat="59.1058394685" lon="30.0392444618"><ele>82.92</ele><time>2026-04-23T21:29:48Z</time></trkpt><trkpt lat="59.1059191804" lon="30.0391410291"><ele>83.04</ele><time>2026-04-23T21:30:05Z</time></trkpt><trkpt lat="59.1059814580" lon="30.0391075853"><ele>82.40</ele><time>2026-04-23T21:30:16Z</time></trkpt><trkpt lat="59.1060876567" lon="30.0391428731"><ele>80.36</ele><time>2026-04-23T21:30:28Z</time></trkpt><trkpt lat="59.1061693802" lon="30.0390988681"><ele>79.85</ele><time>2026-04-23T21:30:41Z</time></trkpt><trkpt lat="59.1062382795" lon="30.0390814338"><ele>79.82</ele><time>2026-04-23T21:30:53Z</time></trkpt><trkpt lat="59.1063445620" lon="30.0390699506"><ele>79.66</ele><time>2026-04-23T21:31:08Z</time></trkpt><trkpt lat="59.1064626630" lon="30.0389849581"><ele>78.71</ele><time>2026-04-23T21:31:23Z</time></trkpt><trkpt lat="59.1065494996" lon="30.0389389414"><ele>77.51</ele><time>2026-04-23T21:31:37Z</time></trkpt><trkpt lat="59.1065621562" lon="30.0389527716"><ele>79.12</ele><time>2026-04-23T21:32:05Z</time></trkpt><trkpt lat="59.1065725498" lon="30.0389556214"><ele>79.57</ele><time>2026-04-23T21:32:37Z</time></trkpt><trkpt lat="59.1066028923" lon="30.0390042365"><ele>78.94</ele><time>2026-04-23T21:32:59Z</time></trkpt><trkpt lat="59.1066416167" lon="30.0390862953"><ele>78.62</ele><time>2026-04-23T21:33:12Z</time></trkpt><trkpt lat="59.1066859569" lon="30.0391149614"><ele>77.62</ele><time>2026-04-23T21:33:25Z</time></trkpt><trkpt lat="59.1067360807" lon="30.0390809309"><ele>77.79</ele><time>2026-04-23T21:33:34Z</time></trkpt><trkpt lat="59.1068104282" lon="30.0389867183"><ele>77.42</ele><time>2026-04-23T21:33:45Z</time></trkpt><trkpt lat="59.1068875417" lon="30.0388823636"><ele>77.06</ele><time>2026-04-23T21:33:58Z</time></trkpt><trkpt lat="59.1069511604" lon="30.0389084313"><ele>73.01</ele><time>2026-04-23T21:34:10Z</time></trkpt><trkpt lat="59.1069803294" lon="30.0387258735"><ele>72.89</ele><time>2026-04-23T21:34:23Z</time></trkpt><trkpt lat="59.1070073191" lon="30.0386480894"><ele>72.70</ele><time>2026-04-23T21:34:37Z</time></trkpt><trkpt lat="59.1070461273" lon="30.0385982171"><ele>72.38</ele><time>2026-04-23T21:34:55Z</time></trkpt><trkpt lat="59.1070626397" lon="30.0385171641"><ele>71.88</ele><time>2026-04-23T21:35:11Z</time></trkpt><trkpt lat="59.1070501506" lon="30.0384471752"><ele>67.51</ele><time>2026-04-23T21:35:30Z</time></trkpt><trkpt lat="59.1070335545" lon="30.0383801199"><ele>69.61</ele><time>2026-04-23T21:35:44Z</time></trkpt><trkpt lat="59.1070521623" lon="30.0382547267"><ele>70.28</ele><time>2026-04-23T21:36:02Z</time></trkpt><trkpt lat="59.1070871986" lon="30.0381905213"><ele>72.51</ele><time>2026-04-23T21:36:14Z</time></trkpt><trkpt lat="59.1071183793" lon="30.0381593406"><ele>72.30</ele><time>2026-04-23T21:36:33Z</time></trkpt><trkpt lat="59.1071847640" lon="30.0380906928"><ele>73.07</ele><time>2026-04-23T21:36:52Z</time></trkpt><trkpt lat="59.1072408389" lon="30.0380510464"><ele>72.91</ele><time>2026-04-23T21:37:05Z</time></trkpt><trkpt lat="59.1072835866" lon="30.0380182732"><ele>75.73</ele><time>2026-04-23T21:37:20Z</time></trkpt><trkpt lat="59.1072873585" lon="30.0380120706"><ele>75.81</ele><time>2026-04-23T21:37:25Z</time></trkpt><trkpt lat="59.1072863527" lon="30.0380159263"><ele>75.03</ele><time>2026-04-23T21:37:42Z</time></trkpt><trkpt lat="59.1072620451" lon="30.0380387250"><ele>75.04</ele><time>2026-04-23T21:38:09Z</time></trkpt><trkpt lat="59.1072416771" lon="30.0380583387"><ele>74.80</ele><time>2026-04-23T21:38:41Z</time></trkpt><trkpt lat="59.1072455328" lon="30.0380288344"><ele>74.38</ele><time>2026-04-23T21:39:05Z</time></trkpt><trkpt lat="59.1072458681" lon="30.0380196981"><ele>73.32</ele><time>2026-04-23T21:39:31Z</time></trkpt><trkpt lat="59.1072366480" lon="30.0380223803"><ele>72.99</ele><time>2026-04-23T21:39:43Z</time></trkpt><trkpt lat="59.1071882844" lon="30.0379605219"><ele>77.12</ele><time>2026-04-23T21:40:00Z</time></trkpt><trkpt lat="59.1071433574" lon="30.0379503798"><ele>74.86</ele><time>2026-04-23T21:40:13Z</time></trkpt><trkpt lat="59.1070958320" lon="30.0378854200"><ele>73.93</ele><time>2026-04-23T21:40:27Z</time></trkpt><trkpt lat="59.1070278548" lon="30.0377191231"><ele>74.72</ele><time>2026-04-23T21:40:44Z</time></trkpt><trkpt lat="59.1069600452" lon="30.0375511497"><ele>75.99</ele><time>2026-04-23T21:40:58Z</time></trkpt><trkpt lat="59.1068964265" lon="30.0374904647"><ele>75.28</ele><time>2026-04-23T21:41:10Z</time></trkpt><trkpt lat="59.1068653297" lon="30.0374717731"><ele>75.96</ele><time>2026-04-23T21:41:24Z</time></trkpt><trkpt lat="59.1068465542" lon="30.0374617986"><ele>76.13</ele><time>2026-04-23T21:41:46Z</time></trkpt><trkpt lat="59.1068476439" lon="30.0375011936"><ele>73.22</ele><time>2026-04-23T21:42:18Z</time></trkpt><trkpt lat="59.1068421956" lon="30.0375367329"><ele>71.71</ele><time>2026-04-23T21:42:58Z</time></trkpt><trkpt lat="59.1068362445" lon="30.0375109166"><ele>72.08</ele><time>2026-04-23T21:43:26Z</time></trkpt><trkpt lat="59.1067820974" lon="30.0374931470"><ele>70.84</ele><time>2026-04-23T21:43:39Z</time></trkpt><trkpt lat="59.1067035589" lon="30.0375644770"><ele>71.83</ele><time>2026-04-23T21:43:54Z</time></trkpt><trkpt lat="59.1066216677" lon="30.0375805702"><ele>73.97</ele><time>2026-04-23T21:44:06Z</time></trkpt><trkpt lat="59.1065378487" lon="30.0376300234"><ele>74.68</ele><time>2026-04-23T21:44:19Z</time></trkpt><trkpt lat="59.1064609867" lon="30.0376553368"><ele>74.71</ele><time>2026-04-23T21:44:34Z</time></trkpt><trkpt lat="59.1063845437" lon="30.0377483759"><ele>76.52</ele><time>2026-04-23T21:44:44Z</time></trkpt><trkpt lat="59.1063282173" lon="30.0378974900"><ele>78.20</ele><time>2026-04-23T21:44:59Z</time></trkpt><trkpt lat="59.1062865593" lon="30.0380360428"><ele>80.47</ele><time>2026-04-23T21:45:14Z</time></trkpt><trkpt lat="59.1062345915" lon="30.0381862465"><ele>80.98</ele><time>2026-04-23T21:45:26Z</time></trkpt><trkpt lat="59.1061844677" lon="30.0382801238"><ele>81.65</ele><time>2026-04-23T21:45:39Z</time></trkpt><trkpt lat="59.1061494313" lon="30.0383427367"><ele>80.11</ele><time>2026-04-23T21:45:52Z</time></trkpt><trkpt lat="59.1060910933" lon="30.0383683853"><ele>79.71</ele><time>2026-04-23T21:46:06Z</time></trkpt><trkpt lat="59.1060300730" lon="30.0383864902"><ele>79.93</ele><time>2026-04-23T21:46:17Z</time></trkpt><trkpt lat="59.1059330944" lon="30.0384284835"><ele>81.04</ele><time>2026-04-23T21:46:30Z</time></trkpt><trkpt lat="59.1058655363" lon="30.0385119673"><ele>81.22</ele><time>2026-04-23T21:46:43Z</time></trkpt><trkpt lat="59.1058366187" lon="30.0385220256"><ele>81.41</ele><time>2026-04-23T21:46:50Z</time></trkpt><trkpt lat="59.1057696473" lon="30.0386350974"><ele>79.69</ele><time>2026-04-23T21:47:03Z</time></trkpt><trkpt lat="59.1057322640" lon="30.0386427250"><ele>82.14</ele><time>2026-04-23T21:47:38Z</time></trkpt><trkpt lat="59.1057569906" lon="30.0386530347"><ele>85.05</ele><time>2026-04-23T21:48:18Z</time></trkpt><trkpt lat="59.1057638638" lon="30.0387837924"><ele>83.96</ele><time>2026-04-23T21:48:41Z</time></trkpt><trkpt lat="59.1056960542" lon="30.0388209242"><ele>83.22</ele><time>2026-04-23T21:48:52Z</time></trkpt><trkpt lat="59.1055640392" lon="30.0388351735"><ele>84.08</ele><time>2026-04-23T21:49:03Z</time></trkpt><trkpt lat="59.1055192798" lon="30.0388776697"><ele>84.41</ele><time>2026-04-23T21:49:18Z</time></trkpt><trkpt lat="59.1055158433" lon="30.0388761610"><ele>84.63</ele><time>2026-04-23T21:49:19Z</time></trkpt><trkpt lat="59.1054630373" lon="30.0388451479"><ele>82.64</ele><time>2026-04-23T21:49:29Z</time></trkpt><trkpt lat="59.1054111533" lon="30.0389131252"><ele>84.25</ele><time>2026-04-23T21:49:40Z</time></trkpt><trkpt lat="59.1053978261" lon="30.0389251951"><ele>84.00</ele><time>2026-04-23T21:49:42Z</time></trkpt><trkpt lat="59.1053744406" lon="30.0389708765"><ele>84.76</ele><time>2026-04-23T21:49:46Z</time></trkpt><trkpt lat="59.1052897833" lon="30.0390288793"><ele>87.02</ele><time>2026-04-23T21:50:02Z</time></trkpt><trkpt lat="59.1051926371" lon="30.0390483253"><ele>92.56</ele><time>2026-04-23T21:50:18Z</time></trkpt><trkpt lat="59.1051422618" lon="30.0392772350"><ele>91.60</ele><time>2026-04-23T21:50:32Z</time></trkpt><trkpt lat="59.1050897911" lon="30.0393321365"><ele>91.62</ele><time>2026-04-23T21:50:45Z</time></trkpt><trkpt lat="59.1050208919" lon="30.0393945817"><ele>91.07</ele><time>2026-04-23T21:50:58Z</time></trkpt><trkpt lat="59.1049507353" lon="30.0394606311"><ele>91.43</ele><time>2026-04-23T21:51:14Z</time></trkpt><trkpt lat="59.1048937384" lon="30.0395159516"><ele>88.73</ele><time>2026-04-23T21:51:29Z</time></trkpt><trkpt lat="59.1048961692" lon="30.0394798256"><ele>88.90</ele><time>2026-04-23T21:51:50Z</time></trkpt><trkpt lat="59.1048946604" lon="30.0394441187"><ele>88.79</ele><time>2026-04-23T21:52:26Z</time></trkpt><trkpt lat="59.1048700176" lon="30.0394300371"><ele>90.15</ele><time>2026-04-23T21:52:53Z</time></trkpt><trkpt lat="59.1048180498" lon="30.0395266805"><ele>90.63</ele><time>2026-04-23T21:53:06Z</time></trkpt><trkpt lat="59.1047647409" lon="30.0395843480"><ele>92.37</ele><time>2026-04-23T21:53:20Z</time></trkpt><trkpt lat="59.1046876274" lon="30.0396040455"><ele>91.33</ele><time>2026-04-23T21:53:33Z</time></trkpt><trkpt lat="59.1045975219" lon="30.0396847632"><ele>91.64</ele><time>2026-04-23T21:53:49Z</time></trkpt><trkpt lat="59.1045166366" lon="30.0397341326"><ele>91.26</ele><time>2026-04-23T21:54:03Z</time></trkpt><trkpt lat="59.1044311412" lon="30.0398095697"><ele>90.98</ele><time>2026-04-23T21:54:18Z</time></trkpt><trkpt lat="59.1043781675" lon="30.0398823246"><ele>90.95</ele><time>2026-04-23T21:54:25Z</time></trkpt><trkpt lat="59.1043136269" lon="30.0399139244"><ele>89.74</ele><time>2026-04-23T21:54:35Z</time></trkpt><trkpt lat="59.1042409558" lon="30.0399753638"><ele>89.68</ele><time>2026-04-23T21:54:49Z</time></trkpt><trkpt lat="59.1041747387" lon="30.0400246494"><ele>88.19</ele><time>2026-04-23T21:55:01Z</time></trkpt><trkpt lat="59.1041106172" lon="30.0400201231"><ele>84.12</ele><time>2026-04-23T21:55:15Z</time></trkpt><trkpt lat="59.1040454898" lon="30.0401203707"><ele>84.77</ele><time>2026-04-23T21:55:26Z</time></trkpt><trkpt lat="59.1040349286" lon="30.0401282497"><ele>84.74</ele><time>2026-04-23T21:55:27Z</time></trkpt><trkpt lat="59.1039902531" lon="30.0401216280"><ele>84.26</ele><time>2026-04-23T21:55:32Z</time></trkpt><trkpt lat="59.1039154865" lon="30.0401299261"><ele>84.22</ele><time>2026-04-23T21:55:44Z</time></trkpt><trkpt lat="59.1038990580" lon="30.0400395691"><ele>80.77</ele><time>2026-04-23T21:56:07Z</time></trkpt><trkpt lat="59.1039112955" lon="30.0400193688"><ele>81.92</ele><time>2026-04-23T21:56:56Z</time></trkpt><trkpt lat="59.1038606688" lon="30.0400397368"><ele>82.28</ele><time>2026-04-23T21:57:06Z</time></trkpt><trkpt lat="59.1037758440" lon="30.0400138367"><ele>79.75</ele><time>2026-04-23T21:57:19Z</time></trkpt><trkpt lat="59.1037084535" lon="30.0400130823"><ele>79.91</ele><time>2026-04-23T21:57:28Z</time></trkpt><trkpt lat="59.1036336869" lon="30.0401354581"><ele>78.09</ele><time>2026-04-23T21:57:42Z</time></trkpt><trkpt lat="59.1035739239" lon="30.0401796307"><ele>80.04</ele><time>2026-04-23T21:57:51Z</time></trkpt><trkpt lat="59.1035242192" lon="30.0402805489"><ele>83.10</ele><time>2026-04-23T21:58:05Z</time></trkpt><trkpt lat="59.1034869198" lon="30.0403614342"><ele>83.55</ele><time>2026-04-23T21:58:18Z</time></trkpt><trkpt lat="59.1034089681" lon="30.0403988175"><ele>85.37</ele><time>2026-04-23T21:58:32Z</time></trkpt><trkpt lat="59.1033675615" lon="30.0403983984"><ele>85.54</ele><time>2026-04-23T21:58:46Z</time></trkpt><trkpt lat="59.1033148393" lon="30.0402463507"><ele>87.04</ele><time>2026-04-23T21:59:08Z</time></trkpt><trkpt lat="59.1032947227" lon="30.0402438361"><ele>88.96</ele><time>2026-04-23T21:59:43Z</time></trkpt><trkpt lat="59.1032695770" lon="30.0402844884"><ele>90.00</ele><time>2026-04-23T22:00:24Z</time></trkpt><trkpt lat="59.1031946428" lon="30.0403128192"><ele>90.64</ele><time>2026-04-23T22:00:36Z</time></trkpt><trkpt lat="59.1031276714" lon="30.0402661320"><ele>90.39</ele><time>2026-04-23T22:00:51Z</time></trkpt><trkpt lat="59.1030477919" lon="30.0403239671"><ele>91.00</ele><time>2026-04-23T22:01:06Z</time></trkpt><trkpt lat="59.1029455326" lon="30.0403474364"><ele>90.71</ele><time>2026-04-23T22:01:24Z</time></trkpt><trkpt lat="59.1028253362" lon="30.0403808802"><ele>89.61</ele><time>2026-04-23T22:01:39Z</time></trkpt><trkpt lat="59.1027675848" lon="30.0404337700"><ele>90.33</ele><time>2026-04-23T22:01:47Z</time></trkpt><trkpt lat="59.1026730370" lon="30.0405342691"><ele>88.89</ele><time>2026-04-23T22:02:00Z</time></trkpt><trkpt lat="59.1025964264" lon="30.0404920243"><ele>88.91</ele><time>2026-04-23T22:02:11Z</time></trkpt><trkpt lat="59.1024969332" lon="30.0404450856"><ele>88.67</ele><time>2026-04-23T22:02:25Z</time></trkpt><trkpt lat="59.1024180595" lon="30.0404580776"><ele>85.84</ele><time>2026-04-23T22:02:39Z</time></trkpt><trkpt lat="59.1023244336" lon="30.0404961314"><ele>83.90</ele><time>2026-04-23T22:02:55Z</time></trkpt><trkpt lat="59.1022376809" lon="30.0403902680"><ele>83.72</ele><time>2026-04-23T22:03:09Z</time></trkpt><trkpt lat="59.1021941788" lon="30.0403971411"><ele>84.46</ele><time>2026-04-23T22:03:23Z</time></trkpt><trkpt lat="59.1021751519" lon="30.0403537229"><ele>86.12</ele><time>2026-04-23T22:03:50Z</time></trkpt><trkpt lat="59.1021542810" lon="30.0403648708"><ele>83.55</ele><time>2026-04-23T22:04:29Z</time></trkpt><trkpt lat="59.1021290515" lon="30.0403323490"><ele>82.96</ele><time>2026-04-23T22:04:44Z</time></trkpt><trkpt lat="59.1021179873" lon="30.0403546449"><ele>82.72</ele><time>2026-04-23T22:04:46Z</time></trkpt><trkpt lat="59.1020473279" lon="30.0404317584"><ele>83.05</ele><time>2026-04-23T22:04:57Z</time></trkpt><trkpt lat="59.1020415444" lon="30.0404483546"><ele>83.16</ele><time>2026-04-23T22:05:00Z</time></trkpt><trkpt lat="59.1019393690" lon="30.0405635219"><ele>83.91</ele><time>2026-04-23T22:05:12Z</time></trkpt><trkpt lat="59.1019289754" lon="30.0407357700"><ele>84.00</ele><time>2026-04-23T22:05:26Z</time></trkpt><trkpt lat="59.1019163188" lon="30.0409408752"><ele>84.36</ele><time>2026-04-23T22:05:41Z</time></trkpt><trkpt lat="59.1018787678" lon="30.0409437250"><ele>85.26</ele><time>2026-04-23T22:05:51Z</time></trkpt><trkpt lat="59.1019131336" lon="30.0410888996"><ele>83.14</ele><time>2026-04-23T22:06:19Z</time></trkpt><trkpt lat="59.1020156443" lon="30.0412085932"><ele>82.73</ele><time>2026-04-23T22:06:35Z</time></trkpt><trkpt lat="59.1020783409" lon="30.0413335674"><ele>85.60</ele><time>2026-04-23T22:06:53Z</time></trkpt><trkpt lat="59.1021203343" lon="30.0414357428"><ele>85.16</ele><time>2026-04-23T22:07:08Z</time></trkpt><trkpt lat="59.1021711286" lon="30.0415770616"><ele>84.96</ele><time>2026-04-23T22:07:23Z</time></trkpt><trkpt lat="59.1021997947" lon="30.0417494774"><ele>82.97</ele><time>2026-04-23T22:07:35Z</time></trkpt><trkpt lat="59.1021903232" lon="30.0419777166"><ele>87.00</ele><time>2026-04-23T22:07:48Z</time></trkpt><trkpt lat="59.1022196598" lon="30.0420122501"><ele>86.17</ele><time>2026-04-23T22:08:03Z</time></trkpt><trkpt lat="59.1022054944" lon="30.0420305226"><ele>88.16</ele><time>2026-04-23T22:08:43Z</time></trkpt><trkpt lat="59.1021646746" lon="30.0420883577"><ele>87.41</ele><time>2026-04-23T22:09:13Z</time></trkpt><trkpt lat="59.1021565441" lon="30.0421969872"><ele>85.27</ele><time>2026-04-23T22:09:25Z</time></trkpt><trkpt lat="59.1021919996" lon="30.0424440857"><ele>85.00</ele><time>2026-04-23T22:09:44Z</time></trkpt><trkpt lat="59.1021757387" lon="30.0425211992"><ele>82.41</ele><time>2026-04-23T22:10:01Z</time></trkpt><trkpt lat="59.1021909937" lon="30.0426375400"><ele>81.53</ele><time>2026-04-23T22:10:10Z</time></trkpt><trkpt lat="59.1022102721" lon="30.0428159907"><ele>80.46</ele><time>2026-04-23T22:10:27Z</time></trkpt><trkpt lat="59.1022200789" lon="30.0428623427"><ele>80.56</ele><time>2026-04-23T22:10:32Z</time></trkpt><trkpt lat="59.1022585519" lon="30.0429632608"><ele>80.04</ele><time>2026-04-23T22:10:43Z</time></trkpt><trkpt lat="59.1022555344" lon="30.0429687928"><ele>79.95</ele><time>2026-04-23T22:10:44Z</time></trkpt><trkpt lat="59.1022480745" lon="30.0430309866"><ele>78.60</ele><time>2026-04-23T22:10:56Z</time></trkpt><trkpt lat="59.1023062449" lon="30.0431167334"><ele>77.95</ele><time>2026-04-23T22:11:13Z</time></trkpt><trkpt lat="59.1023436282" lon="30.0431918353"><ele>77.94</ele><time>2026-04-23T22:11:26Z</time></trkpt><trkpt lat="59.1022732202" lon="30.0432641711"><ele>77.43</ele><time>2026-04-23T22:11:39Z</time></trkpt><trkpt lat="59.1022522654" lon="30.0432797614"><ele>77.57</ele><time>2026-04-23T22:11:43Z</time></trkpt><trkpt lat="59.1022737231" lon="30.0433904864"><ele>77.30</ele><time>2026-04-23T22:11:53Z</time></trkpt><trkpt lat="59.1022908222" lon="30.0434567872"><ele>77.78</ele><time>2026-04-23T22:11:59Z</time></trkpt><trkpt lat="59.1022625752" lon="30.0434228405"><ele>76.21</ele><time>2026-04-23T22:12:14Z</time></trkpt><trkpt lat="59.1022453923" lon="30.0433925819"><ele>76.86</ele><time>2026-04-23T22:12:23Z</time></trkpt><trkpt lat="59.1022175644" lon="30.0435474794"><ele>75.99</ele><time>2026-04-23T22:12:38Z</time></trkpt><trkpt lat="59.1022354178" lon="30.0437342282"><ele>76.05</ele><time>2026-04-23T22:12:49Z</time></trkpt><trkpt lat="59.1022817697" lon="30.0438990165"><ele>76.30</ele><time>2026-04-23T22:13:00Z</time></trkpt><trkpt lat="59.1023117770" lon="30.0441259984"><ele>76.33</ele><time>2026-04-23T22:13:14Z</time></trkpt><trkpt lat="59.1023463942" lon="30.0442602765"><ele>77.37</ele><time>2026-04-23T22:13:32Z</time></trkpt><trkpt lat="59.1023133695" lon="30.0442603603"><ele>78.82</ele><time>2026-04-23T22:13:47Z</time></trkpt><trkpt lat="59.1023385990" lon="30.0442868471"><ele>78.90</ele><time>2026-04-23T22:14:09Z</time></trkpt><trkpt lat="59.1023367550" lon="30.0443689898"><ele>78.77</ele><time>2026-04-23T22:14:30Z</time></trkpt><trkpt lat="59.1023470648" lon="30.0445225462"><ele>77.45</ele><time>2026-04-23T22:14:42Z</time></trkpt><trkpt lat="59.1023850348" lon="30.0446726661"><ele>76.09</ele><time>2026-04-23T22:14:54Z</time></trkpt><trkpt lat="59.1023845319" lon="30.0447137374"><ele>75.94</ele><time>2026-04-23T22:14:56Z</time></trkpt><trkpt lat="59.1023865435" lon="30.0448681321"><ele>75.90</ele><time>2026-04-23T22:15:08Z</time></trkpt><trkpt lat="59.1024412774" lon="30.0449399650"><ele>76.07</ele><time>2026-04-23T22:15:20Z</time></trkpt><trkpt lat="59.1024391819" lon="30.0449680444"><ele>75.03</ele><time>2026-04-23T22:15:30Z</time></trkpt><trkpt lat="59.1024661716" lon="30.0451497640"><ele>74.76</ele><time>2026-04-23T22:15:43Z</time></trkpt><trkpt lat="59.1025266889" lon="30.0452850480"><ele>73.92</ele><time>2026-04-23T22:15:57Z</time></trkpt><trkpt lat="59.1025469732" lon="30.0454790890"><ele>74.45</ele><time>2026-04-23T22:16:09Z</time></trkpt><trkpt lat="59.1025506612" lon="30.0454963557"><ele>74.46</ele><time>2026-04-23T22:16:10Z</time></trkpt><trkpt lat="59.1025957558" lon="30.0456371717"><ele>74.42</ele><time>2026-04-23T22:16:21Z</time></trkpt><trkpt lat="59.1025914811" lon="30.0456551928"><ele>74.46</ele><time>2026-04-23T22:16:22Z</time></trkpt><trkpt lat="59.1026231647" lon="30.0458227471"><ele>74.17</ele><time>2026-04-23T22:16:35Z</time></trkpt><trkpt lat="59.1026297864" lon="30.0458128564"><ele>73.74</ele><time>2026-04-23T22:17:10Z</time></trkpt><trkpt lat="59.1025981866" lon="30.0458743796"><ele>74.03</ele><time>2026-04-23T22:17:38Z</time></trkpt><trkpt lat="59.1026493162" lon="30.0460536685"><ele>74.32</ele><time>2026-04-23T22:17:51Z</time></trkpt><trkpt lat="59.1027198918" lon="30.0461706799"><ele>75.33</ele><time>2026-04-23T22:18:03Z</time></trkpt><trkpt lat="59.1027475521" lon="30.0464184489"><ele>76.46</ele><time>2026-04-23T22:18:16Z</time></trkpt><trkpt lat="59.1027568560" lon="30.0466300920"><ele>76.73</ele><time>2026-04-23T22:18:28Z</time></trkpt><trkpt lat="59.1027653217" lon="30.0466341991"><ele>77.56</ele><time>2026-04-23T22:18:44Z</time></trkpt><trkpt lat="59.1027884558" lon="30.0468259770"><ele>77.23</ele><time>2026-04-23T22:19:00Z</time></trkpt><trkpt lat="59.1028093267" lon="30.0468960498"><ele>77.49</ele><time>2026-04-23T22:19:05Z</time></trkpt><trkpt lat="59.1028498951" lon="30.0471252948"><ele>78.65</ele><time>2026-04-23T22:19:17Z</time></trkpt><trkpt lat="59.1028805729" lon="30.0473144744"><ele>79.02</ele><time>2026-04-23T22:19:32Z</time></trkpt><trkpt lat="59.1028712690" lon="30.0475426298"><ele>77.31</ele><time>2026-04-23T22:19:46Z</time></trkpt><trkpt lat="59.1029160284" lon="30.0476487447"><ele>76.75</ele><time>2026-04-23T22:20:02Z</time></trkpt><trkpt lat="59.1029176209" lon="30.0477003772"><ele>77.48</ele><time>2026-04-23T22:20:46Z</time></trkpt><trkpt lat="59.1029214766" lon="30.0477490760"><ele>79.77</ele><time>2026-04-23T22:21:10Z</time></trkpt><trkpt lat="59.1029110830" lon="30.0478947535"><ele>79.04</ele><time>2026-04-23T22:21:22Z</time></trkpt><trkpt lat="59.1028808244" lon="30.0480110943"><ele>80.13</ele><time>2026-04-23T22:21:33Z</time></trkpt><trkpt lat="59.1028273478" lon="30.0481503177"><ele>79.82</ele><time>2026-04-23T22:21:45Z</time></trkpt><trkpt lat="59.1027431935" lon="30.0482698437"><ele>79.75</ele><time>2026-04-23T22:21:57Z</time></trkpt><trkpt lat="59.1026569437" lon="30.0483623799"><ele>78.47</ele><time>2026-04-23T22:22:10Z</time></trkpt><trkpt lat="59.1025584564" lon="30.0485052913"><ele>78.92</ele><time>2026-04-23T22:22:24Z</time></trkpt><trkpt lat="59.1024744697" lon="30.0486182794"><ele>78.06</ele><time>2026-04-23T22:22:38Z</time></trkpt><trkpt lat="59.1023904830" lon="30.0487663876"><ele>78.44</ele><time>2026-04-23T22:22:52Z</time></trkpt><trkpt lat="59.1023529321" lon="30.0487856660"><ele>78.26</ele><time>2026-04-23T22:23:00Z</time></trkpt><trkpt lat="59.1022620723" lon="30.0488922000"><ele>77.27</ele><time>2026-04-23T22:23:12Z</time></trkpt><trkpt lat="59.1022233479" lon="30.0489206985"><ele>75.99</ele><time>2026-04-23T22:23:27Z</time></trkpt><trkpt lat="59.1021828633" lon="30.0489281584"><ele>75.01</ele><time>2026-04-23T22:23:44Z</time></trkpt><trkpt lat="59.1021618247" lon="30.0489955489"><ele>75.70</ele><time>2026-04-23T22:24:12Z</time></trkpt><trkpt lat="59.1021310631" lon="30.0490346923"><ele>75.71</ele><time>2026-04-23T22:24:37Z</time></trkpt><trkpt lat="59.1020737309" lon="30.0490970537"><ele>75.08</ele><time>2026-04-23T22:24:49Z</time></trkpt><trkpt lat="59.1020207573" lon="30.0491113868"><ele>77.86</ele><time>2026-04-23T22:24:59Z</time></trkpt><trkpt lat="59.1020227689" lon="30.0491038430"><ele>77.01</ele><time>2026-04-23T22:25:14Z</time></trkpt><trkpt lat="59.1019804403" lon="30.0491728261"><ele>77.37</ele><time>2026-04-23T22:25:35Z</time></trkpt><trkpt lat="59.1019670293" lon="30.0491685513"><ele>77.76</ele><time>2026-04-23T22:25:48Z</time></trkpt><trkpt lat="59.1019287240" lon="30.0492274761"><ele>77.30</ele><time>2026-04-23T22:26:03Z</time></trkpt><trkpt lat="59.1018822882" lon="30.0493434817"><ele>78.12</ele><time>2026-04-23T22:26:16Z</time></trkpt><trkpt lat="59.1018511914" lon="30.0494242832"><ele>77.78</ele><time>2026-04-23T22:26:32Z</time></trkpt><trkpt lat="59.1018460784" lon="30.0494611636"><ele>78.50</ele><time>2026-04-23T22:26:44Z</time></trkpt><trkpt lat="59.1017915960" lon="30.0494984630"><ele>78.07</ele><time>2026-04-23T22:26:56Z</time></trkpt><trkpt lat="59.1017495189" lon="30.0495568849"><ele>78.16</ele><time>2026-04-23T22:27:09Z</time></trkpt><trkpt lat="59.1017233673" lon="30.0496772490"><ele>78.47</ele><time>2026-04-23T22:27:25Z</time></trkpt><trkpt lat="59.1016724892" lon="30.0496847928"><ele>78.24</ele><time>2026-04-23T22:27:38Z</time></trkpt><trkpt lat="59.1016305797" lon="30.0497445557"><ele>78.28</ele><time>2026-04-23T22:27:53Z</time></trkpt><trkpt lat="59.1016218625" lon="30.0497850403"><ele>79.42</ele><time>2026-04-23T22:28:24Z</time></trkpt><trkpt lat="59.1016334295" lon="30.0498150475"><ele>80.20</ele><time>2026-04-23T22:28:38Z</time></trkpt><trkpt lat="59.1015670449" lon="30.0498403609"><ele>80.78</ele><time>2026-04-23T22:28:57Z</time></trkpt><trkpt lat="59.1015105508" lon="30.0499767344"><ele>81.41</ele><time>2026-04-23T22:29:12Z</time></trkpt><trkpt lat="59.1014266480" lon="30.0500902254"><ele>81.88</ele><time>2026-04-23T22:29:27Z</time></trkpt><trkpt lat="59.1013592575" lon="30.0502488948"><ele>82.23</ele><time>2026-04-23T22:29:44Z</time></trkpt><trkpt lat="59.1013461817" lon="30.0502103381"><ele>81.41</ele><time>2026-04-23T22:29:51Z</time></trkpt><trkpt lat="59.1013022605" lon="30.0502122659"><ele>80.68</ele><time>2026-04-23T22:30:04Z</time></trkpt><trkpt lat="59.1012182739" lon="30.0503529981"><ele>80.80</ele><time>2026-04-23T22:30:17Z</time></trkpt><trkpt lat="59.1011453513" lon="30.0504612923"><ele>80.97</ele><time>2026-04-23T22:30:30Z</time></trkpt><trkpt lat="59.1010852531" lon="30.0505586900"><ele>81.57</ele><time>2026-04-23T22:30:42Z</time></trkpt><trkpt lat="59.1010233946" lon="30.0506444369"><ele>81.80</ele><time>2026-04-23T22:30:55Z</time></trkpt><trkpt lat="59.1009911243" lon="30.0506782997"><ele>81.82</ele><time>2026-04-23T22:31:05Z</time></trkpt><trkpt lat="59.1009647213" lon="30.0507499650"><ele>81.69</ele><time>2026-04-23T22:31:10Z</time></trkpt><trkpt lat="59.1008548345" lon="30.0508708321"><ele>82.45</ele><time>2026-04-23T22:31:21Z</time></trkpt><trkpt lat="59.1008267552" lon="30.0509150885"><ele>82.28</ele><time>2026-04-23T22:31:30Z</time></trkpt><trkpt lat="59.1008178703" lon="30.0509276614"><ele>83.04</ele><time>2026-04-23T22:31:33Z</time></trkpt><trkpt lat="59.1007686686" lon="30.0510309264"><ele>82.89</ele><time>2026-04-23T22:31:45Z</time></trkpt><trkpt lat="59.1007368173" lon="30.0510521326"><ele>81.55</ele><time>2026-04-23T22:31:57Z</time></trkpt><trkpt lat="59.1007377394" lon="30.0510534737"><ele>78.67</ele><time>2026-04-23T22:32:16Z</time></trkpt><trkpt lat="59.1007449478" lon="30.0510595925"><ele>76.95</ele><time>2026-04-23T22:32:46Z</time></trkpt><trkpt lat="59.1007244959" lon="30.0510659628"><ele>75.75</ele><time>2026-04-23T22:32:54Z</time></trkpt><trkpt lat="59.1006768867" lon="30.0511126500"><ele>75.05</ele><time>2026-04-23T22:33:05Z</time></trkpt><trkpt lat="59.1006755456" lon="30.0511371251"><ele>75.19</ele><time>2026-04-23T22:33:07Z</time></trkpt><trkpt lat="59.1006033774" lon="30.0512666255"><ele>75.34</ele><time>2026-04-23T22:33:19Z</time></trkpt><trkpt lat="59.1005878709" lon="30.0512753427"><ele>75.35</ele><time>2026-04-23T22:33:21Z</time></trkpt><trkpt lat="59.1005808301" lon="30.0512784440"><ele>75.62</ele><time>2026-04-23T22:33:22Z</time></trkpt><trkpt lat="59.1005566902" lon="30.0513118878"><ele>76.66</ele><time>2026-04-23T22:33:25Z</time></trkpt><trkpt lat="59.1004866175" lon="30.0514239538"><ele>76.11</ele><time>2026-04-23T22:33:37Z</time></trkpt><trkpt lat="59.1004285309" lon="30.0514632650"><ele>75.41</ele><time>2026-04-23T22:33:49Z</time></trkpt><trkpt lat="59.1003731266" lon="30.0515723974"><ele>76.29</ele><time>2026-04-23T22:34:00Z</time></trkpt><trkpt lat="59.1003621463" lon="30.0515894964"><ele>75.62</ele><time>2026-04-23T22:34:01Z</time></trkpt><trkpt lat="59.1002839431" lon="30.0516965333"><ele>76.50</ele><time>2026-04-23T22:34:12Z</time></trkpt><trkpt lat="59.1002381779" lon="30.0517896563"><ele>76.38</ele><time>2026-04-23T22:34:18Z</time></trkpt><trkpt lat="59.1002020519" lon="30.0518422946"><ele>76.81</ele><time>2026-04-23T22:34:30Z</time></trkpt><trkpt lat="59.1001618188" lon="30.0519293826"><ele>76.99</ele><time>2026-04-23T22:34:38Z</time></trkpt><trkpt lat="59.1001021396" lon="30.0519484933"><ele>77.54</ele><time>2026-04-23T22:34:49Z</time></trkpt><trkpt lat="59.1000649240" lon="30.0520049874"><ele>77.37</ele><time>2026-04-23T22:34:56Z</time></trkpt><trkpt lat="59.1000218410" lon="30.0520806760"><ele>76.01</ele><time>2026-04-23T22:35:07Z</time></trkpt><trkpt lat="59.0999781713" lon="30.0521625672"><ele>76.41</ele><time>2026-04-23T22:35:13Z</time></trkpt><trkpt lat="59.0999729745" lon="30.0521601364"><ele>76.49</ele><time>2026-04-23T22:35:16Z</time></trkpt><trkpt lat="59.0999527741" lon="30.0522045605"><ele>75.69</ele><time>2026-04-23T22:35:29Z</time></trkpt><trkpt lat="59.0999681968" lon="30.0522614736"><ele>77.61</ele><time>2026-04-23T22:35:46Z</time></trkpt><trkpt lat="59.0999763273" lon="30.0523057301"><ele>79.22</ele><time>2026-04-23T22:36:20Z</time></trkpt><trkpt lat="59.0999362618" lon="30.0523271877"><ele>79.33</ele><time>2026-04-23T22:36:51Z</time></trkpt><trkpt lat="59.0999617428" lon="30.0522366632"><ele>76.69</ele><time>2026-04-23T22:37:11Z</time></trkpt><trkpt lat="59.0999858826" lon="30.0522472244"><ele>76.77</ele><time>2026-04-23T22:37:26Z</time></trkpt><trkpt lat="59.0999872237" lon="30.0522485655"><ele>76.79</ele><time>2026-04-23T22:37:31Z</time></trkpt><trkpt lat="59.0999600664" lon="30.0522073265"><ele>77.48</ele><time>2026-04-23T22:37:49Z</time></trkpt><trkpt lat="59.0999433864" lon="30.0521955919"><ele>79.96</ele><time>2026-04-23T22:38:26Z</time></trkpt><trkpt lat="59.0999281313" lon="30.0521952566"><ele>77.38</ele><time>2026-04-23T22:39:11Z</time></trkpt><trkpt lat="59.0999390278" lon="30.0521852821"><ele>77.35</ele><time>2026-04-23T22:39:58Z</time></trkpt><trkpt lat="59.0999546181" lon="30.0522006210"><ele>79.57</ele><time>2026-04-23T22:40:31Z</time></trkpt><trkpt lat="59.0999662690" lon="30.0521588791"><ele>80.39</ele><time>2026-04-23T22:41:01Z</time></trkpt><trkpt lat="59.0999446437" lon="30.0521350745"><ele>80.19</ele><time>2026-04-23T22:41:38Z</time></trkpt><trkpt lat="59.0999662690" lon="30.0522761419"><ele>79.65</ele><time>2026-04-23T22:42:11Z</time></trkpt><trkpt lat="59.0999636706" lon="30.0522893853"><ele>78.41</ele><time>2026-04-23T22:42:27Z</time></trkpt><trkpt lat="59.0999549534" lon="30.0523479749"><ele>79.40</ele><time>2026-04-23T22:42:44Z</time></trkpt><trkpt lat="59.0999792609" lon="30.0524111744"><ele>78.98</ele><time>2026-04-23T22:42:57Z</time></trkpt><trkpt lat="59.0999963600" lon="30.0524528325"><ele>76.47</ele><time>2026-04-23T22:43:12Z</time></trkpt><trkpt lat="59.0999749862" lon="30.0525367353"><ele>77.27</ele><time>2026-04-23T22:43:30Z</time></trkpt><trkpt lat="59.0999358427" lon="30.0526303612"><ele>74.85</ele><time>2026-04-23T22:43:45Z</time></trkpt><trkpt lat="59.0999391954" lon="30.0526854303"><ele>75.43</ele><time>2026-04-23T22:43:48Z</time></trkpt><trkpt lat="59.0999260359" lon="30.0527798943"><ele>75.13</ele><time>2026-04-23T22:43:57Z</time></trkpt><trkpt lat="59.0998979565" lon="30.0527705904"><ele>75.06</ele><time>2026-04-23T22:44:12Z</time></trkpt><trkpt lat="59.0998430550" lon="30.0529718399"><ele>75.09</ele><time>2026-04-23T22:44:30Z</time></trkpt><trkpt lat="59.0998727269" lon="30.0530686509"><ele>75.19</ele><time>2026-04-23T22:44:44Z</time></trkpt><trkpt lat="59.0998865571" lon="30.0530723389"><ele>74.36</ele><time>2026-04-23T22:44:56Z</time></trkpt><trkpt lat="59.0999019798" lon="30.0530832354"><ele>74.64</ele><time>2026-04-23T22:45:36Z</time></trkpt><trkpt lat="59.0999061707" lon="30.0530025177"><ele>74.23</ele><time>2026-04-23T22:46:13Z</time></trkpt><trkpt lat="59.0999271255" lon="30.0530269928"><ele>73.07</ele><time>2026-04-23T22:46:34Z</time></trkpt><trkpt lat="59.0999033209" lon="30.0530843250"><ele>72.40</ele><time>2026-04-23T22:46:51Z</time></trkpt><trkpt lat="59.0998777561" lon="30.0532250572"><ele>71.94</ele><time>2026-04-23T22:47:04Z</time></trkpt><trkpt lat="59.0998825338" lon="30.0534011610"><ele>74.53</ele><time>2026-04-23T22:47:16Z</time></trkpt><trkpt lat="59.0999092720" lon="30.0535314996"><ele>74.88</ele><time>2026-04-23T22:47:28Z</time></trkpt><trkpt lat="59.0999423806" lon="30.0536681246"><ele>75.52</ele><time>2026-04-23T22:47:42Z</time></trkpt><trkpt lat="59.0999895707" lon="30.0538144726"><ele>76.21</ele><time>2026-04-23T22:47:58Z</time></trkpt><trkpt lat="59.1000093520" lon="30.0538368523"><ele>75.56</ele><time>2026-04-23T22:48:13Z</time></trkpt><trkpt lat="59.0999982879" lon="30.0538590644"><ele>74.74</ele><time>2026-04-23T22:48:44Z</time></trkpt><trkpt lat="59.1000252776" lon="30.0539314840"><ele>73.77</ele><time>2026-04-23T22:49:13Z</time></trkpt><trkpt lat="59.1000600625" lon="30.0540461484"><ele>74.05</ele><time>2026-04-23T22:49:24Z</time></trkpt><trkpt lat="59.1000472382" lon="30.0542113557"><ele>77.13</ele><time>2026-04-23T22:49:36Z</time></trkpt><trkpt lat="59.1000423767" lon="30.0543511659"><ele>77.26</ele><time>2026-04-23T22:49:47Z</time></trkpt><trkpt lat="59.1001165565" lon="30.0545161217"><ele>77.27</ele><time>2026-04-23T22:50:02Z</time></trkpt><trkpt lat="59.1001337394" lon="30.0546922255"><ele>77.01</ele><time>2026-04-23T22:50:15Z</time></trkpt><trkpt lat="59.1001772415" lon="30.0548320357"><ele>77.58</ele><time>2026-04-23T22:50:26Z</time></trkpt><trkpt lat="59.1002628207" lon="30.0549615361"><ele>77.17</ele><time>2026-04-23T22:50:40Z</time></trkpt><trkpt lat="59.1002410278" lon="30.0550626218"><ele>73.27</ele><time>2026-04-23T22:50:52Z</time></trkpt><trkpt lat="59.1002335679" lon="30.0550554972"><ele>73.53</ele><time>2026-04-23T22:51:03Z</time></trkpt><trkpt lat="59.1002192348" lon="30.0550651364"><ele>76.35</ele><time>2026-04-23T22:51:30Z</time></trkpt><trkpt lat="59.1002291255" lon="30.0550726801"><ele>76.28</ele><time>2026-04-23T22:51:57Z</time></trkpt><trkpt lat="59.1002414469" lon="30.0551337842"><ele>76.27</ele><time>2026-04-23T22:52:23Z</time></trkpt><trkpt lat="59.1002538521" lon="30.0552479457"><ele>75.87</ele><time>2026-04-23T22:52:36Z</time></trkpt><trkpt lat="59.1002581269" lon="30.0554125663"><ele>75.46</ele><time>2026-04-23T22:52:50Z</time></trkpt><trkpt lat="59.1002731305" lon="30.0555294938"><ele>75.98</ele><time>2026-04-23T22:53:04Z</time></trkpt><trkpt lat="59.1002612282" lon="30.0555169210"><ele>76.16</ele><time>2026-04-23T22:53:08Z</time></trkpt><trkpt lat="59.1002731305" lon="30.0555550586"><ele>76.54</ele><time>2026-04-23T22:53:20Z</time></trkpt><trkpt lat="59.1002694424" lon="30.0556940306"><ele>77.33</ele><time>2026-04-23T22:53:33Z</time></trkpt><trkpt lat="59.1002975218" lon="30.0558093656"><ele>76.64</ele><time>2026-04-23T22:53:47Z</time></trkpt><trkpt lat="59.1003025509" lon="30.0558155682"><ele>76.55</ele><time>2026-04-23T22:54:29Z</time></trkpt><trkpt lat="59.1003034730" lon="30.0557565596"><ele>75.57</ele><time>2026-04-23T22:55:00Z</time></trkpt><trkpt lat="59.1003008746" lon="30.0558118802"><ele>73.61</ele><time>2026-04-23T22:55:28Z</time></trkpt><trkpt lat="59.1003271937" lon="30.0558216870"><ele>74.18</ele><time>2026-04-23T22:56:11Z</time></trkpt><trkpt lat="59.1003265232" lon="30.0558506884"><ele>74.25</ele><time>2026-04-23T22:56:32Z</time></trkpt><trkpt lat="59.1003433708" lon="30.0557108782"><ele>75.94</ele><time>2026-04-23T22:56:55Z</time></trkpt><trkpt lat="59.1003840230" lon="30.0556741655"><ele>76.17</ele><time>2026-04-23T22:57:07Z</time></trkpt><trkpt lat="59.1004691832" lon="30.0556902587"><ele>77.28</ele><time>2026-04-23T22:57:26Z</time></trkpt><trkpt lat="59.1005316284" lon="30.0555923581"><ele>73.93</ele><time>2026-04-23T22:57:44Z</time></trkpt><trkpt lat="59.1006054729" lon="30.0554709882"><ele>75.84</ele><time>2026-04-23T22:57:54Z</time></trkpt><trkpt lat="59.1007302795" lon="30.0553322677"><ele>76.13</ele><time>2026-04-23T22:58:15Z</time></trkpt><trkpt lat="59.1008107457" lon="30.0553387217"><ele>74.93</ele><time>2026-04-23T22:58:28Z</time></trkpt><trkpt lat="59.1008911282" lon="30.0553324353"><ele>75.31</ele><time>2026-04-23T22:58:43Z</time></trkpt><trkpt lat="59.1009716783" lon="30.0553823914"><ele>75.58</ele><time>2026-04-23T22:59:01Z</time></trkpt><trkpt lat="59.1010754462" lon="30.0553531386"><ele>76.21</ele><time>2026-04-23T22:59:16Z</time></trkpt><trkpt lat="59.1012070421" lon="30.0554313418"><ele>76.21</ele><time>2026-04-23T22:59:40Z</time></trkpt><trkpt lat="59.1012143344" lon="30.0554378796"><ele>76.22</ele><time>2026-04-23T22:59:41Z</time></trkpt><trkpt lat="59.1013060324" lon="30.0554621872"><ele>76.37</ele><time>2026-04-23T22:59:55Z</time></trkpt><trkpt lat="59.1013349500" lon="30.0554644503"><ele>76.53</ele><time>2026-04-23T23:00:11Z</time></trkpt><trkpt lat="59.1013579164" lon="30.0554055255"><ele>76.05</ele><time>2026-04-23T23:00:38Z</time></trkpt><trkpt lat="59.1013837326" lon="30.0554628577"><ele>75.44</ele><time>2026-04-23T23:01:09Z</time></trkpt><trkpt lat="59.1013886780" lon="30.0555286556"><ele>73.95</ele><time>2026-04-23T23:01:22Z</time></trkpt><trkpt lat="59.1014188528" lon="30.0557203498"><ele>74.02</ele><time>2026-04-23T23:01:37Z</time></trkpt><trkpt lat="59.1014239658" lon="30.0558243692"><ele>73.59</ele><time>2026-04-23T23:01:54Z</time></trkpt><trkpt lat="59.1014502849" lon="30.0558691286"><ele>73.52</ele><time>2026-04-23T23:02:09Z</time></trkpt><trkpt lat="59.1014846507" lon="30.0559248682"><ele>73.46</ele><time>2026-04-23T23:02:26Z</time></trkpt><trkpt lat="59.1015000734" lon="30.0560301449"><ele>73.22</ele><time>2026-04-23T23:02:37Z</time></trkpt><trkpt lat="59.1014985647" lon="30.0560912490"><ele>71.84</ele><time>2026-04-23T23:02:51Z</time></trkpt><trkpt lat="59.1015461739" lon="30.0561017264"><ele>71.62</ele><time>2026-04-23T23:03:06Z</time></trkpt><trkpt lat="59.1015910171" lon="30.0560877286"><ele>70.38</ele><time>2026-04-23T23:03:34Z</time></trkpt><trkpt lat="59.1016414762" lon="30.0562011357"><ele>70.90</ele><time>2026-04-23T23:03:48Z</time></trkpt><trkpt lat="59.1016985569" lon="30.0562988687"><ele>71.10</ele><time>2026-04-23T23:04:08Z</time></trkpt><trkpt lat="59.1017580684" lon="30.0564113539"><ele>71.64</ele><time>2026-04-23T23:04:21Z</time></trkpt><trkpt lat="59.1018156521" lon="30.0564936642"><ele>71.95</ele><time>2026-04-23T23:04:32Z</time></trkpt><trkpt lat="59.1018932685" lon="30.0565365795"><ele>72.27</ele><time>2026-04-23T23:04:45Z</time></trkpt><trkpt lat="59.1019468289" lon="30.0566223264"><ele>71.90</ele><time>2026-04-23T23:04:59Z</time></trkpt><trkpt lat="59.1020100284" lon="30.0566492323"><ele>71.44</ele><time>2026-04-23T23:05:12Z</time></trkpt><trkpt lat="59.1020218469" lon="30.0566493999"><ele>71.23</ele><time>2026-04-23T23:05:40Z</time></trkpt><trkpt lat="59.1020197514" lon="30.0566571951"><ele>70.96</ele><time>2026-04-23T23:06:06Z</time></trkpt><trkpt lat="59.1020221822" lon="30.0566558540"><ele>70.52</ele><time>2026-04-23T23:06:21Z</time></trkpt><trkpt lat="59.1020381916" lon="30.0566344801"><ele>70.77</ele><time>2026-04-23T23:06:34Z</time></trkpt><trkpt lat="59.1020136327" lon="30.0567978434"><ele>70.84</ele><time>2026-04-23T23:06:47Z</time></trkpt><trkpt lat="59.1020843759" lon="30.0569168665"><ele>70.95</ele><time>2026-04-23T23:07:01Z</time></trkpt><trkpt lat="59.1021328233" lon="30.0570633821"><ele>71.30</ele><time>2026-04-23T23:07:14Z</time></trkpt><trkpt lat="59.1021654289" lon="30.0571747776"><ele>70.08</ele><time>2026-04-23T23:07:29Z</time></trkpt><trkpt lat="59.1022083443" lon="30.0572782941"><ele>69.89</ele><time>2026-04-23T23:07:40Z</time></trkpt><trkpt lat="59.1023266967" lon="30.0573919527"><ele>71.78</ele><time>2026-04-23T23:08:05Z</time></trkpt><trkpt lat="59.1024298780" lon="30.0575130712"><ele>70.82</ele><time>2026-04-23T23:08:22Z</time></trkpt><trkpt lat="59.1024822649" lon="30.0574684795"><ele>72.58</ele><time>2026-04-23T23:08:32Z</time></trkpt><trkpt lat="59.1025346518" lon="30.0574678928"><ele>73.88</ele><time>2026-04-23T23:08:46Z</time></trkpt><trkpt lat="59.1026516631" lon="30.0576797873"><ele>74.67</ele><time>2026-04-23T23:09:02Z</time></trkpt><trkpt lat="59.1026954167" lon="30.0577664562"><ele>75.14</ele><time>2026-04-23T23:09:22Z</time></trkpt><trkpt lat="59.1026976798" lon="30.0578002352"><ele>74.56</ele><time>2026-04-23T23:09:49Z</time></trkpt><trkpt lat="59.1026964225" lon="30.0578120537"><ele>74.87</ele><time>2026-04-23T23:10:26Z</time></trkpt><trkpt lat="59.1027103364" lon="30.0578651950"><ele>75.13</ele><time>2026-04-23T23:11:13Z</time></trkpt><trkpt lat="59.1027675848" lon="30.0580321625"><ele>72.48</ele><time>2026-04-23T23:11:32Z</time></trkpt><trkpt lat="59.1028236598" lon="30.0581773371"><ele>70.86</ele><time>2026-04-23T23:11:48Z</time></trkpt><trkpt lat="59.1028437763" lon="30.0582778361"><ele>70.27</ele><time>2026-04-23T23:12:02Z</time></trkpt><trkpt lat="59.1029089876" lon="30.0583888963"><ele>73.25</ele><time>2026-04-23T23:12:16Z</time></trkpt><trkpt lat="59.1029320378" lon="30.0584619865"><ele>72.64</ele><time>2026-04-23T23:12:29Z</time></trkpt><trkpt lat="59.1029965784" lon="30.0585824344"><ele>75.26</ele><time>2026-04-23T23:12:46Z</time></trkpt><trkpt lat="59.1030472890" lon="30.0588274375"><ele>75.95</ele><time>2026-04-23T23:13:03Z</time></trkpt><trkpt lat="59.1030433495" lon="30.0589456223"><ele>75.90</ele><time>2026-04-23T23:13:15Z</time></trkpt><trkpt lat="59.1030576825" lon="30.0589905493"><ele>75.39</ele><time>2026-04-23T23:13:35Z</time></trkpt><trkpt lat="59.1030566767" lon="30.0589786470"><ele>74.92</ele><time>2026-04-23T23:13:55Z</time></trkpt><trkpt lat="59.1030841693" lon="30.0590645615"><ele>75.11</ele><time>2026-04-23T23:14:39Z</time></trkpt><trkpt lat="59.1030690819" lon="30.0591791421"><ele>76.35</ele><time>2026-04-23T23:14:54Z</time></trkpt><trkpt lat="59.1030637175" lon="30.0592534896"><ele>76.54</ele><time>2026-04-23T23:15:11Z</time></trkpt><trkpt lat="59.1030526534" lon="30.0592865981"><ele>75.62</ele><time>2026-04-23T23:15:42Z</time></trkpt><trkpt lat="59.1030270886" lon="30.0593232270"><ele>75.41</ele><time>2026-04-23T23:15:51Z</time></trkpt><trkpt lat="59.1030434333" lon="30.0594957266"><ele>75.71</ele><time>2026-04-23T23:16:03Z</time></trkpt><trkpt lat="59.1030523181" lon="30.0596125703"><ele>74.57</ele><time>2026-04-23T23:16:15Z</time></trkpt><trkpt lat="59.1030686628" lon="30.0597830582"><ele>73.86</ele><time>2026-04-23T23:16:29Z</time></trkpt><trkpt lat="59.1030685790" lon="30.0599140674"><ele>73.66</ele><time>2026-04-23T23:16:41Z</time></trkpt><trkpt lat="59.1030833311" lon="30.0600213557"><ele>73.18</ele><time>2026-04-23T23:16:52Z</time></trkpt><trkpt lat="59.1030952334" lon="30.0602038298"><ele>74.01</ele><time>2026-04-23T23:17:06Z</time></trkpt><trkpt lat="59.1031102370" lon="30.0602982938"><ele>74.03</ele><time>2026-04-23T23:17:19Z</time></trkpt><trkpt lat="59.1031130869" lon="30.0603016466"><ele>74.04</ele><time>2026-04-23T23:17:20Z</time></trkpt><trkpt lat="59.1031537391" lon="30.0603602361"><ele>74.64</ele><time>2026-04-23T23:17:34Z</time></trkpt><trkpt lat="59.1031907871" lon="30.0604169816"><ele>74.37</ele><time>2026-04-23T23:17:48Z</time></trkpt><trkpt lat="59.1032115743" lon="30.0605538581"><ele>74.41</ele><time>2026-04-23T23:18:08Z</time></trkpt><trkpt lat="59.1032184474" lon="30.0606851187"><ele>74.21</ele><time>2026-04-23T23:18:21Z</time></trkpt><trkpt lat="59.1031958163" lon="30.0607036427"><ele>74.42</ele><time>2026-04-23T23:18:42Z</time></trkpt><trkpt lat="59.1031734366" lon="30.0607119408"><ele>74.11</ele><time>2026-04-23T23:19:16Z</time></trkpt><trkpt lat="59.1032190342" lon="30.0607925747"><ele>75.34</ele><time>2026-04-23T23:19:47Z</time></trkpt><trkpt lat="59.1032333672" lon="30.0609402638"><ele>74.53</ele><time>2026-04-23T23:20:06Z</time></trkpt><trkpt lat="59.1032028571" lon="30.0611358974"><ele>74.79</ele><time>2026-04-23T23:20:18Z</time></trkpt><trkpt lat="59.1031812318" lon="30.0612741988"><ele>74.92</ele><time>2026-04-23T23:20:26Z</time></trkpt><trkpt lat="59.1031393223" lon="30.0614297669"><ele>74.64</ele><time>2026-04-23T23:20:35Z</time></trkpt><trkpt lat="59.1031450219" lon="30.0615881849"><ele>74.80</ele><time>2026-04-23T23:20:44Z</time></trkpt><trkpt lat="59.1032049526" lon="30.0616798829"><ele>74.53</ele><time>2026-04-23T23:20:56Z</time></trkpt><trkpt lat="59.1032420844" lon="30.0616877619"><ele>74.94</ele><time>2026-04-23T23:21:00Z</time></trkpt><trkpt lat="59.1033497918" lon="30.0617291685"><ele>76.39</ele><time>2026-04-23T23:21:15Z</time></trkpt><trkpt lat="59.1033865884" lon="30.0618301705"><ele>76.03</ele><time>2026-04-23T23:21:34Z</time></trkpt><trkpt lat="59.1034521349" lon="30.0618381333"><ele>75.87</ele><time>2026-04-23T23:21:50Z</time></trkpt><trkpt lat="59.1035369597" lon="30.0618818868"><ele>77.28</ele><time>2026-04-23T23:22:00Z</time></trkpt><trkpt lat="59.1035734210" lon="30.0620133989"><ele>74.74</ele><time>2026-04-23T23:22:14Z</time></trkpt><trkpt lat="59.1036168393" lon="30.0621164963"><ele>74.26</ele><time>2026-04-23T23:22:29Z</time></trkpt><trkpt lat="59.1036502831" lon="30.0622042548"><ele>73.22</ele><time>2026-04-23T23:22:43Z</time></trkpt><trkpt lat="59.1036795359" lon="30.0623368565"><ele>73.57</ele><time>2026-04-23T23:22:58Z</time></trkpt><trkpt lat="59.1037312523" lon="30.0624165684"><ele>72.95</ele><time>2026-04-23T23:23:10Z</time></trkpt><trkpt lat="59.1037329286" lon="30.0624425523"><ele>73.01</ele><time>2026-04-23T23:23:25Z</time></trkpt><trkpt lat="59.1037315875" lon="30.0624457374"><ele>72.54</ele><time>2026-04-23T23:23:31Z</time></trkpt><trkpt lat="59.1037161648" lon="30.0625978690"><ele>73.72</ele><time>2026-04-23T23:23:42Z</time></trkpt><trkpt lat="59.1037093755" lon="30.0625926722"><ele>73.12</ele><time>2026-04-23T23:24:02Z</time></trkpt><trkpt lat="59.1037036758" lon="30.0625670236"><ele>72.83</ele><time>2026-04-23T23:24:48Z</time></trkpt><trkpt lat="59.1036827210" lon="30.0626882259"><ele>72.81</ele><time>2026-04-23T23:25:08Z</time></trkpt><trkpt lat="59.1036626883" lon="30.0628312211"><ele>72.66</ele><time>2026-04-23T23:25:19Z</time></trkpt><trkpt lat="59.1036212817" lon="30.0629763957"><ele>72.10</ele><time>2026-04-23T23:25:31Z</time></trkpt><trkpt lat="59.1036109719" lon="30.0630318839"><ele>71.87</ele><time>2026-04-23T23:25:35Z</time></trkpt><trkpt lat="59.1035756841" lon="30.0631311256"><ele>71.21</ele><time>2026-04-23T23:25:47Z</time></trkpt><trkpt lat="59.1035763547" lon="30.0631829258"><ele>70.68</ele><time>2026-04-23T23:26:09Z</time></trkpt><trkpt lat="59.1035753489" lon="30.0632114243"><ele>70.88</ele><time>2026-04-23T23:26:33Z</time></trkpt><trkpt lat="59.1034977324" lon="30.0631733704"><ele>71.07</ele><time>2026-04-23T23:26:46Z</time></trkpt><trkpt lat="59.1034233849" lon="30.0631636474"><ele>70.98</ele><time>2026-04-23T23:27:03Z</time></trkpt><trkpt lat="59.1032974888" lon="30.0631729513"><ele>71.43</ele><time>2026-04-23T23:27:18Z</time></trkpt><trkpt lat="59.1032419167" lon="30.0631744601"><ele>71.32</ele><time>2026-04-23T23:27:35Z</time></trkpt><trkpt lat="59.1031954810" lon="30.0631636474"><ele>71.58</ele><time>2026-04-23T23:27:54Z</time></trkpt><trkpt lat="59.1030686628" lon="30.0631060638"><ele>71.87</ele><time>2026-04-23T23:28:09Z</time></trkpt><trkpt lat="59.1029249970" lon="30.0630608853"><ele>72.26</ele><time>2026-04-23T23:28:26Z</time></trkpt><trkpt lat="59.1029119212" lon="30.0630539283"><ele>72.26</ele><time>2026-04-23T23:28:28Z</time></trkpt><trkpt lat="59.1028801538" lon="30.0630264357"><ele>72.07</ele><time>2026-04-23T23:28:32Z</time></trkpt><trkpt lat="59.1027981788" lon="30.0629844423"><ele>72.22</ele><time>2026-04-23T23:28:47Z</time></trkpt><trkpt lat="59.1026896331" lon="30.0629734620"><ele>72.02</ele><time>2026-04-23T23:29:03Z</time></trkpt><trkpt lat="59.1026428621" lon="30.0630711950"><ele>72.20</ele><time>2026-04-23T23:29:12Z</time></trkpt><trkpt lat="59.1026400961" lon="30.0632287748"><ele>72.68</ele><time>2026-04-23T23:29:22Z</time></trkpt><trkpt lat="59.1026889626" lon="30.0635604467"><ele>73.01</ele><time>2026-04-23T23:29:39Z</time></trkpt><trkpt lat="59.1026829276" lon="30.0638329424"><ele>73.16</ele><time>2026-04-23T23:29:55Z</time></trkpt><trkpt lat="59.1026623920" lon="30.0640787836"><ele>73.19</ele><time>2026-04-23T23:30:09Z</time></trkpt><trkpt lat="59.1026259307" lon="30.0641707331"><ele>73.30</ele><time>2026-04-23T23:30:15Z</time></trkpt><trkpt lat="59.1025144514" lon="30.0643928535"><ele>73.78</ele><time>2026-04-23T23:30:33Z</time></trkpt><trkpt lat="59.1025127750" lon="30.0644276384"><ele>73.54</ele><time>2026-04-23T23:30:35Z</time></trkpt><trkpt lat="59.1024942510" lon="30.0648470689"><ele>73.29</ele><time>2026-04-23T23:30:56Z</time></trkpt><trkpt lat="59.1024932452" lon="30.0649456400"><ele>73.28</ele><time>2026-04-23T23:31:14Z</time></trkpt><trkpt lat="59.1025359929" lon="30.0650305487"><ele>73.91</ele><time>2026-04-23T23:31:46Z</time></trkpt><trkpt lat="59.1025504936" lon="30.0650328957"><ele>73.72</ele><time>2026-04-23T23:31:48Z</time></trkpt><trkpt lat="59.1026740428" lon="30.0650802534"><ele>72.47</ele><time>2026-04-23T23:32:04Z</time></trkpt><trkpt lat="59.1027701832" lon="30.0650453847"><ele>71.64</ele><time>2026-04-23T23:32:17Z</time></trkpt><trkpt lat="59.1028538346" lon="30.0650068279"><ele>71.53</ele><time>2026-04-23T23:32:30Z</time></trkpt><trkpt lat="59.1028697602" lon="30.0650031399"><ele>71.32</ele><time>2026-04-23T23:32:32Z</time></trkpt><trkpt lat="59.1030011885" lon="30.0650289562"><ele>71.49</ele><time>2026-04-23T23:32:48Z</time></trkpt><trkpt lat="59.1031011846" lon="30.0650522579"><ele>71.25</ele><time>2026-04-23T23:33:02Z</time></trkpt><trkpt lat="59.1032063775" lon="30.0651256833"><ele>71.38</ele><time>2026-04-23T23:33:17Z</time></trkpt><trkpt lat="59.1032538190" lon="30.0651586242"><ele>71.51</ele><time>2026-04-23T23:33:25Z</time></trkpt><trkpt lat="59.1033169348" lon="30.0651730411"><ele>71.07</ele><time>2026-04-23T23:33:36Z</time></trkpt><trkpt lat="59.1034092195" lon="30.0652347319"><ele>71.93</ele><time>2026-04-23T23:33:53Z</time></trkpt><trkpt lat="59.1034782864" lon="30.0652163755"><ele>71.55</ele><time>2026-04-23T23:34:04Z</time></trkpt><trkpt lat="59.1036086250" lon="30.0652893819"><ele>71.43</ele><time>2026-04-23T23:34:19Z</time></trkpt><trkpt lat="59.1037297435" lon="30.0653730333"><ele>70.74</ele><time>2026-04-23T23:34:35Z</time></trkpt><trkpt lat="59.1037925240" lon="30.0654776394"><ele>71.14</ele><time>2026-04-23T23:34:46Z</time></trkpt><trkpt lat="59.1038476769" lon="30.0655963272"><ele>71.17</ele><time>2026-04-23T23:35:00Z</time></trkpt><trkpt lat="59.1038615908" lon="30.0657721795"><ele>70.98</ele><time>2026-04-23T23:35:12Z</time></trkpt><trkpt lat="59.1038328409" lon="30.0658977404"><ele>70.67</ele><time>2026-04-23T23:35:26Z</time></trkpt><trkpt lat="59.1038479283" lon="30.0659558270"><ele>71.19</ele><time>2026-04-23T23:35:43Z</time></trkpt><trkpt lat="59.1038890835" lon="30.0660568289"><ele>71.35</ele><time>2026-04-23T23:35:55Z</time></trkpt><trkpt lat="59.1039318312" lon="30.0660757720"><ele>71.84</ele><time>2026-04-23T23:36:10Z</time></trkpt><trkpt lat="59.1040314920" lon="30.0661310926"><ele>71.52</ele><time>2026-04-23T23:36:24Z</time></trkpt><trkpt lat="59.1040371917" lon="30.0662958808"><ele>71.87</ele><time>2026-04-23T23:36:39Z</time></trkpt><trkpt lat="59.1039935220" lon="30.0664286502"><ele>70.75</ele><time>2026-04-23T23:36:52Z</time></trkpt><trkpt lat="59.1039916780" lon="30.0665697176"><ele>72.11</ele><time>2026-04-23T23:37:04Z</time></trkpt><trkpt lat="59.1040233616" lon="30.0667193346"><ele>71.23</ele><time>2026-04-23T23:37:17Z</time></trkpt><trkpt lat="59.1040465795" lon="30.0668045785"><ele>73.06</ele><time>2026-04-23T23:37:33Z</time></trkpt><trkpt lat="59.1040490940" lon="30.0668088533"><ele>73.07</ele><time>2026-04-23T23:38:05Z</time></trkpt><trkpt lat="59.1040392872" lon="30.0668019801"><ele>72.61</ele><time>2026-04-23T23:38:36Z</time></trkpt><trkpt lat="59.1040073521" lon="30.0669100229"><ele>72.69</ele><time>2026-04-23T23:38:55Z</time></trkpt><trkpt lat="59.1040306538" lon="30.0671210792"><ele>71.60</ele><time>2026-04-23T23:39:09Z</time></trkpt><trkpt lat="59.1040213499" lon="30.0673195627"><ele>72.71</ele><time>2026-04-23T23:39:23Z</time></trkpt><trkpt lat="59.1040547937" lon="30.0674957503"><ele>71.76</ele><time>2026-04-23T23:39:37Z</time></trkpt><trkpt lat="59.1040537879" lon="30.0675870292"><ele>69.91</ele><time>2026-04-23T23:39:47Z</time></trkpt><trkpt lat="59.1040479206" lon="30.0677871890"><ele>69.48</ele><time>2026-04-23T23:40:00Z</time></trkpt><trkpt lat="59.1040595714" lon="30.0679581799"><ele>70.44</ele><time>2026-04-23T23:40:12Z</time></trkpt><trkpt lat="59.1040884890" lon="30.0680801366"><ele>72.47</ele><time>2026-04-23T23:40:26Z</time></trkpt><trkpt lat="59.1041372716" lon="30.0682476908"><ele>76.65</ele><time>2026-04-23T23:40:38Z</time></trkpt><trkpt lat="59.1041584779" lon="30.0684177596"><ele>72.85</ele><time>2026-04-23T23:40:52Z</time></trkpt><trkpt lat="59.1042029858" lon="30.0685028359"><ele>73.69</ele><time>2026-04-23T23:41:04Z</time></trkpt><trkpt lat="59.1042270418" lon="30.0685347710"><ele>75.28</ele><time>2026-04-23T23:41:38Z</time></trkpt><trkpt lat="59.1042081825" lon="30.0685727410"><ele>75.17</ele><time>2026-04-23T23:42:19Z</time></trkpt><trkpt lat="59.1041568853" lon="30.0686311629"><ele>73.93</ele><time>2026-04-23T23:42:33Z</time></trkpt><trkpt lat="59.1041857190" lon="30.0688317418"><ele>74.56</ele><time>2026-04-23T23:42:46Z</time></trkpt><trkpt lat="59.1042019799" lon="30.0689377729"><ele>75.56</ele><time>2026-04-23T23:42:55Z</time></trkpt><trkpt lat="59.1042256169" lon="30.0691217557"><ele>78.09</ele><time>2026-04-23T23:43:07Z</time></trkpt><trkpt lat="59.1042507626" lon="30.0692369230"><ele>75.16</ele><time>2026-04-23T23:43:18Z</time></trkpt><trkpt lat="59.1043404490" lon="30.0693873782"><ele>74.88</ele><time>2026-04-23T23:43:35Z</time></trkpt><trkpt lat="59.1044160537" lon="30.0694628991"><ele>72.81</ele><time>2026-04-23T23:43:49Z</time></trkpt><trkpt lat="59.1044840310" lon="30.0695655774"><ele>71.09</ele><time>2026-04-23T23:44:02Z</time></trkpt><trkpt lat="59.1045547742" lon="30.0696969219"><ele>72.02</ele><time>2026-04-23T23:44:16Z</time></trkpt><trkpt lat="59.1046272777" lon="30.0697622169"><ele>70.21</ele><time>2026-04-23T23:44:29Z</time></trkpt><trkpt lat="59.1046483163" lon="30.0698422641"><ele>70.70</ele><time>2026-04-23T23:44:45Z</time></trkpt><trkpt lat="59.1046502441" lon="30.0698404200"><ele>70.85</ele><time>2026-04-23T23:45:17Z</time></trkpt><trkpt lat="59.1046727914" lon="30.0698637217"><ele>72.09</ele><time>2026-04-23T23:45:52Z</time></trkpt><trkpt lat="59.1046876274" lon="30.0700346287"><ele>72.66</ele><time>2026-04-23T23:46:07Z</time></trkpt><trkpt lat="59.1046807542" lon="30.0702781230"><ele>73.23</ele><time>2026-04-23T23:46:23Z</time></trkpt><trkpt lat="59.1047031339" lon="30.0704423245"><ele>75.26</ele><time>2026-04-23T23:46:35Z</time></trkpt><trkpt lat="59.1047242563" lon="30.0706287380"><ele>72.25</ele><time>2026-04-23T23:46:50Z</time></trkpt><trkpt lat="59.1046993621" lon="30.0707573164"><ele>72.11</ele><time>2026-04-23T23:47:01Z</time></trkpt><trkpt lat="59.1047650762" lon="30.0708811171"><ele>73.86</ele><time>2026-04-23T23:47:14Z</time></trkpt><trkpt lat="59.1048141941" lon="30.0709954463"><ele>71.82</ele><time>2026-04-23T23:47:29Z</time></trkpt><trkpt lat="59.1048404295" lon="30.0710712187"><ele>72.71</ele><time>2026-04-23T23:47:40Z</time></trkpt><trkpt lat="59.1049489751" lon="30.0712081790"><ele>71.40</ele><time>2026-04-23T23:47:55Z</time></trkpt><trkpt lat="59.1049804911" lon="30.0712036528"><ele>70.59</ele><time>2026-04-23T23:48:18Z</time></trkpt><trkpt lat="59.1049806587" lon="30.0712363422"><ele>70.99</ele><time>2026-04-23T23:48:48Z</time></trkpt><trkpt lat="59.1049797367" lon="30.0713845342"><ele>70.75</ele><time>2026-04-23T23:49:10Z</time></trkpt><trkpt lat="59.1049787309" lon="30.0715313852"><ele>71.52</ele><time>2026-04-23T23:49:25Z</time></trkpt><trkpt lat="59.1050093248" lon="30.0716860313"><ele>70.76</ele><time>2026-04-23T23:49:39Z</time></trkpt><trkpt lat="59.1050284356" lon="30.0718696788"><ele>71.92</ele><time>2026-04-23T23:49:59Z</time></trkpt><trkpt lat="59.1050309502" lon="30.0721169449"><ele>73.50</ele><time>2026-04-23T23:50:17Z</time></trkpt><trkpt lat="59.1050226521" lon="30.0722575933"><ele>72.00</ele><time>2026-04-23T23:50:32Z</time></trkpt><trkpt lat="59.1050106660" lon="30.0722806435"><ele>71.78</ele><time>2026-04-23T23:50:35Z</time></trkpt><trkpt lat="59.1049619671" lon="30.0724387262"><ele>72.40</ele><time>2026-04-23T23:50:45Z</time></trkpt><trkpt lat="59.1049284395" lon="30.0725508761"><ele>71.54</ele><time>2026-04-23T23:50:56Z</time></trkpt><trkpt lat="59.1049085744" lon="30.0727263931"><ele>71.18</ele><time>2026-04-23T23:51:09Z</time></trkpt><trkpt lat="59.1049006954" lon="30.0728357770"><ele>71.19</ele><time>2026-04-23T23:51:18Z</time></trkpt><trkpt lat="59.1048769746" lon="30.0729864836"><ele>70.84</ele><time>2026-04-23T23:51:29Z</time></trkpt><trkpt lat="59.1048862785" lon="30.0730603281"><ele>71.63</ele><time>2026-04-23T23:51:35Z</time></trkpt><trkpt lat="59.1049302835" lon="30.0730953645"><ele>71.60</ele><time>2026-04-23T23:51:39Z</time></trkpt><trkpt lat="59.1049912199" lon="30.0730974600"><ele>71.83</ele><time>2026-04-23T23:51:53Z</time></trkpt><trkpt lat="59.1049946565" lon="30.0730992202"><ele>72.54</ele><time>2026-04-23T23:52:21Z</time></trkpt><trkpt lat="59.1050536651" lon="30.0731340889"><ele>70.50</ele><time>2026-04-23T23:52:45Z</time></trkpt><trkpt lat="59.1051724367" lon="30.0732445624"><ele>70.80</ele><time>2026-04-23T23:52:58Z</time></trkpt><trkpt lat="59.1053080559" lon="30.0733510964"><ele>69.21</ele><time>2026-04-23T23:53:12Z</time></trkpt><trkpt lat="59.1054160986" lon="30.0734658446"><ele>68.04</ele><time>2026-04-23T23:53:25Z</time></trkpt><trkpt lat="59.1054719221" lon="30.0735683553"><ele>68.71</ele><time>2026-04-23T23:53:33Z</time></trkpt><trkpt lat="59.1055038571" lon="30.0736611430"><ele>69.46</ele><time>2026-04-23T23:53:38Z</time></trkpt><trkpt lat="59.1055542324" lon="30.0738864485"><ele>69.64</ele><time>2026-04-23T23:53:50Z</time></trkpt><trkpt lat="59.1056138277" lon="30.0740766339"><ele>69.85</ele><time>2026-04-23T23:54:04Z</time></trkpt><trkpt lat="59.1057003289" lon="30.0742891990"><ele>70.53</ele><time>2026-04-23T23:54:18Z</time></trkpt><trkpt lat="59.1057571582" lon="30.0745021831"><ele>70.88</ele><time>2026-04-23T23:54:29Z</time></trkpt><trkpt lat="59.1058079526" lon="30.0746797957"><ele>70.81</ele><time>2026-04-23T23:54:40Z</time></trkpt><trkpt lat="59.1058456711" lon="30.0748538878"><ele>69.54</ele><time>2026-04-23T23:54:51Z</time></trkpt><trkpt lat="59.1058774386" lon="30.0749879982"><ele>68.98</ele><time>2026-04-23T23:55:01Z</time></trkpt><trkpt lat="59.1058946215" lon="30.0750344340"><ele>68.96</ele><time>2026-04-23T23:55:05Z</time></trkpt><trkpt lat="59.1059188452" lon="30.0751293171"><ele>69.00</ele><time>2026-04-23T23:55:10Z</time></trkpt><trkpt lat="59.1059260536" lon="30.0751675386"><ele>69.72</ele><time>2026-04-23T23:55:12Z</time></trkpt><trkpt lat="59.1060083639" lon="30.0753446482"><ele>70.09</ele><time>2026-04-23T23:55:25Z</time></trkpt><trkpt lat="59.1060747486" lon="30.0756141264"><ele>70.11</ele><time>2026-04-23T23:55:38Z</time></trkpt><trkpt lat="59.1061424743" lon="30.0758695230"><ele>68.76</ele><time>2026-04-23T23:55:53Z</time></trkpt><trkpt lat="59.1062079370" lon="30.0760823395"><ele>67.37</ele><time>2026-04-23T23:56:04Z</time></trkpt><trkpt lat="59.1062727291" lon="30.0762497261"><ele>67.09</ele><time>2026-04-23T23:56:16Z</time></trkpt><trkpt lat="59.1063397843" lon="30.0764277577"><ele>66.75</ele><time>2026-04-23T23:56:27Z</time></trkpt><trkpt lat="59.1063556261" lon="30.0764981657"><ele>67.07</ele><time>2026-04-23T23:56:30Z</time></trkpt><trkpt lat="59.1063866392" lon="30.0765715912"><ele>67.04</ele><time>2026-04-23T23:56:34Z</time></trkpt><trkpt lat="59.1064577177" lon="30.0767467730"><ele>66.84</ele><time>2026-04-23T23:56:45Z</time></trkpt><trkpt lat="59.1065003816" lon="30.0769045204"><ele>68.13</ele><time>2026-04-23T23:56:54Z</time></trkpt><trkpt lat="59.1064988729" lon="30.0771406386"><ele>68.58</ele><time>2026-04-23T23:57:07Z</time></trkpt><trkpt lat="59.1064853780" lon="30.0774624199"><ele>68.79</ele><time>2026-04-23T23:57:22Z</time></trkpt><trkpt lat="59.1064824443" lon="30.0776844565"><ele>68.48</ele><time>2026-04-23T23:57:34Z</time></trkpt><trkpt lat="59.1064927541" lon="30.0778957643"><ele>68.12</ele><time>2026-04-23T23:57:46Z</time></trkpt><trkpt lat="59.1065028962" lon="30.0780335627"><ele>66.16</ele><time>2026-04-23T23:57:56Z</time></trkpt><trkpt lat="59.1065329872" lon="30.0783068966"><ele>66.30</ele><time>2026-04-23T23:58:10Z</time></trkpt><trkpt lat="59.1065429617" lon="30.0785509776"><ele>64.71</ele><time>2026-04-23T23:58:23Z</time></trkpt><trkpt lat="59.1065630782" lon="30.0787816476"><ele>63.64</ele><time>2026-04-23T23:58:37Z</time></trkpt></trkseg></trk></gpx>